Wetterdaten: Donnerstag, 21.07.2016
Datum Zeit Temp. A. Temp. A. max Feuchte A. Luftdruck Regen Wind Richtung Richtung Sonnenschein ET UV Solar Taupunkt Windben
21.07.2016 00:00 17,4 C 17,4 C 80 % 1014,0 hPa 0,0 mm 0,0 km/h (0 Bft) W 263 0 min 0,000 mm 0,0 UV-I 0 W/m 13,9 C 0,0 km/h (0 Bft)
21.07.2016 00:01 17,3 C 17,4 C 81 % 1014,0 hPa 0,0 mm 0,0 km/h (0 Bft) W 263 0 min 0,000 mm 0,0 UV-I 0 W/m 14,0 C 0,0 km/h (0 Bft)
21.07.2016 00:02 17,3 C 17,3 C 81 % 1014,0 hPa 0,0 mm 0,0 km/h (0 Bft) W 263 0 min 0,000 mm 0,0 UV-I 0 W/m 14,0 C 0,0 km/h (0 Bft)
21.07.2016 00:03 17,2 C 17,3 C 81 % 1014,1 hPa 0,0 mm 0,0 km/h (0 Bft) W 263 0 min 0,000 mm 0,0 UV-I 0 W/m 13,9 C 0,0 km/h (0 Bft)
21.07.2016 00:04 17,2 C 17,2 C 81 % 1014,0 hPa 0,0 mm 0,0 km/h (0 Bft) W 263 0 min 0,000 mm 0,0 UV-I 0 W/m 13,9 C 0,0 km/h (0 Bft)
21.07.2016 00:05 17,2 C 17,2 C 80 % 1014,0 hPa 0,0 mm 0,0 km/h (0 Bft) W 263 0 min 0,000 mm 0,0 UV-I 0 W/m 13,7 C 0,0 km/h (0 Bft)
21.07.2016 00:06 17,2 C 17,2 C 81 % 1014,0 hPa 0,0 mm 0,6 km/h (0 Bft) W 263 0 min 0,000 mm 0,0 UV-I 0 W/m 13,9 C 1,6 km/h (1 Bft)
21.07.2016 00:07 17,2 C 17,2 C 81 % 1014,1 hPa 0,0 mm 0,4 km/h (0 Bft) W 263 0 min 0,000 mm 0,0 UV-I 0 W/m 13,9 C 1,6 km/h (1 Bft)
21.07.2016 00:08 17,2 C 17,2 C 81 % 1014,0 hPa 0,0 mm 0,0 km/h (0 Bft) W 263 0 min 0,000 mm 0,0 UV-I 0 W/m 13,9 C 0,0 km/h (0 Bft)
21.07.2016 00:09 17,2 C 17,2 C 81 % 1014,0 hPa 0,0 mm 0,2 km/h (0 Bft) W 263 0 min 0,000 mm 0,0 UV-I 0 W/m 13,9 C 1,6 km/h (1 Bft)
21.07.2016 00:10 17,1 C 17,2 C 81 % 1014,0 hPa 0,0 mm 0,2 km/h (0 Bft) W 263 0 min 0,000 mm 0,0 UV-I 0 W/m 13,8 C 1,6 km/h (1 Bft)
21.07.2016 00:11 17,1 C 17,1 C 80 % 1014,1 hPa 0,0 mm 0,1 km/h (0 Bft) W 263 0 min 0,000 mm 0,0 UV-I 0 W/m 13,6 C 1,6 km/h (1 Bft)
21.07.2016 00:12 17,1 C 17,2 C 80 % 1014,1 hPa 0,0 mm 0,4 km/h (0 Bft) W 263 0 min 0,000 mm 0,0 UV-I 0 W/m 13,6 C 1,6 km/h (1 Bft)
21.07.2016 00:13 17,1 C 17,2 C 80 % 1014,1 hPa 0,0 mm 0,3 km/h (0 Bft) W 263 0 min 0,000 mm 0,0 UV-I 0 W/m 13,6 C 1,6 km/h (1 Bft)
21.07.2016 00:14 17,1 C 17,2 C 80 % 1014,1 hPa 0,0 mm 0,1 km/h (0 Bft) W 263 0 min 0,000 mm 0,0 UV-I 0 W/m 13,6 C 1,6 km/h (1 Bft)
21.07.2016 00:15 17,1 C 17,1 C 80 % 1014,1 hPa 0,0 mm 0,0 km/h (0 Bft) W 263 0 min 0,000 mm 0,0 UV-I 0 W/m 13,6 C 0,0 km/h (0 Bft)
21.07.2016 00:16 17,1 C 17,1 C 80 % 1014,1 hPa 0,0 mm 0,0 km/h (0 Bft) W 263 0 min 0,000 mm 0,0 UV-I 0 W/m 13,6 C 0,0 km/h (0 Bft)
21.07.2016 00:17 17,1 C 17,1 C 80 % 1014,1 hPa 0,0 mm 0,0 km/h (0 Bft) W 263 0 min 0,000 mm 0,0 UV-I 0 W/m 13,6 C 0,0 km/h (0 Bft)
21.07.2016 00:18 17,1 C 17,1 C 80 % 1014,0 hPa 0,0 mm 0,9 km/h (0 Bft) W 263 0 min 0,000 mm 0,0 UV-I 0 W/m 13,6 C 1,6 km/h (1 Bft)
21.07.2016 00:19 17,0 C 17,1 C 81 % 1014,2 hPa 0,0 mm 0,1 km/h (0 Bft) W 263 0 min 0,000 mm 0,0 UV-I 0 W/m 13,7 C 1,6 km/h (1 Bft)
21.07.2016 00:20 16,9 C 17,0 C 81 % 1014,2 hPa 0,0 mm 0,0 km/h (0 Bft) W 263 0 min 0,000 mm 0,0 UV-I 0 W/m 13,6 C 0,0 km/h (0 Bft)
21.07.2016 00:21 16,9 C 16,9 C 81 % 1014,1 hPa 0,0 mm 0,0 km/h (0 Bft) W 263 0 min 0,000 mm 0,0 UV-I 0 W/m 13,6 C 0,0 km/h (0 Bft)
21.07.2016 00:22 16,8 C 16,9 C 81 % 1014,1 hPa 0,0 mm 0,0 km/h (0 Bft) W 263 0 min 0,000 mm 0,0 UV-I 0 W/m 13,5 C 0,0 km/h (0 Bft)
21.07.2016 00:23 16,8 C 16,8 C 81 % 1014,1 hPa 0,0 mm 0,0 km/h (0 Bft) W 263 0 min 0,000 mm 0,0 UV-I 0 W/m 13,5 C 0,0 km/h (0 Bft)
21.07.2016 00:24 16,7 C 16,8 C 82 % 1014,1 hPa 0,0 mm 0,0 km/h (0 Bft) W 263 0 min 0,000 mm 0,0 UV-I 0 W/m 13,6 C 0,0 km/h (0 Bft)
21.07.2016 00:25 16,7 C 16,7 C 82 % 1014,1 hPa 0,0 mm 0,0 km/h (0 Bft) W 263 0 min 0,000 mm 0,0 UV-I 0 W/m 13,6 C 0,0 km/h (0 Bft)
21.07.2016 00:26 16,6 C 16,7 C 82 % 1014,1 hPa 0,0 mm 0,1 km/h (0 Bft) W 263 0 min 0,000 mm 0,0 UV-I 0 W/m 13,5 C 1,6 km/h (1 Bft)
21.07.2016 00:27 16,6 C 16,6 C 83 % 1014,0 hPa 0,0 mm 0,0 km/h (0 Bft) W 263 0 min 0,000 mm 0,0 UV-I 0 W/m 13,7 C 0,0 km/h (0 Bft)
21.07.2016 00:28 16,5 C 16,6 C 83 % 1014,0 hPa 0,0 mm 0,0 km/h (0 Bft) W 263 0 min 0,000 mm 0,0 UV-I 0 W/m 13,6 C 0,0 km/h (0 Bft)
21.07.2016 00:29 16,4 C 16,5 C 84 % 1014,0 hPa 0,0 mm 0,0 km/h (0 Bft) W 263 0 min 0,000 mm 0,0 UV-I 0 W/m 13,7 C 0,0 km/h (0 Bft)
21.07.2016 00:30 16,4 C 16,4 C 84 % 1014,0 hPa 0,0 mm 0,0 km/h (0 Bft) W 263 0 min 0,000 mm 0,0 UV-I 0 W/m 13,7 C 0,0 km/h (0 Bft)
21.07.2016 00:31 16,4 C 16,4 C 84 % 1014,0 hPa 0,0 mm 0,0 km/h (0 Bft) W 263 0 min 0,000 mm 0,0 UV-I 0 W/m 13,7 C 0,0 km/h (0 Bft)
21.07.2016 00:32 16,3 C 16,4 C 84 % 1014,0 hPa 0,0 mm 0,0 km/h (0 Bft) W 263 0 min 0,000 mm 0,0 UV-I 0 W/m 13,6 C 0,0 km/h (0 Bft)
21.07.2016 00:33 16,3 C 16,4 C 84 % 1014,0 hPa 0,0 mm 0,0 km/h (0 Bft) W 263 0 min 0,000 mm 0,0 UV-I 0 W/m 13,6 C 0,0 km/h (0 Bft)
21.07.2016 00:34 16,3 C 16,3 C 84 % 1014,0 hPa 0,0 mm 0,1 km/h (0 Bft) W 263 0 min 0,000 mm 0,0 UV-I 0 W/m 13,6 C 1,6 km/h (1 Bft)
21.07.2016 00:35 16,2 C 16,3 C 84 % 1014,0 hPa 0,0 mm 0,0 km/h (0 Bft) W 263 0 min 0,000 mm 0,0 UV-I 0 W/m 13,5 C 0,0 km/h (0 Bft)
21.07.2016 00:36 16,2 C 16,2 C 85 % 1014,0 hPa 0,0 mm 0,0 km/h (0 Bft) W 263 0 min 0,000 mm 0,0 UV-I 0 W/m 13,7 C 0,0 km/h (0 Bft)
21.07.2016 00:37 16,1 C 16,2 C 85 % 1013,9 hPa 0,0 mm 0,0 km/h (0 Bft) W 263 0 min 0,000 mm 0,0 UV-I 0 W/m 13,6 C 0,0 km/h (0 Bft)
21.07.2016 00:38 16,1 C 16,1 C 85 % 1013,9 hPa 0,0 mm 0,0 km/h (0 Bft) W 263 0 min 0,000 mm 0,0 UV-I 0 W/m 13,6 C 0,0 km/h (0 Bft)
21.07.2016 00:39 16,1 C 16,1 C 85 % 1014,0 hPa 0,0 mm 0,1 km/h (0 Bft) W 263 0 min 0,000 mm 0,0 UV-I 0 W/m 13,6 C 1,6 km/h (1 Bft)
21.07.2016 00:40 16,0 C 16,1 C 85 % 1013,9 hPa 0,0 mm 0,0 km/h (0 Bft) W 263 0 min 0,000 mm 0,0 UV-I 0 W/m 13,5 C 0,0 km/h (0 Bft)
21.07.2016 00:41 16,0 C 16,1 C 85 % 1013,9 hPa 0,0 mm 0,3 km/h (0 Bft) W 263 0 min 0,000 mm 0,0 UV-I 0 W/m 13,5 C 1,6 km/h (1 Bft)
21.07.2016 00:42 16,0 C 16,1 C 85 % 1013,9 hPa 0,0 mm 0,3 km/h (0 Bft) W 263 0 min 0,000 mm 0,0 UV-I 0 W/m 13,5 C 1,6 km/h (1 Bft)
21.07.2016 00:43 15,9 C 16,0 C 85 % 1013,9 hPa 0,0 mm 1,0 km/h (0 Bft) W 263 0 min 0,000 mm 0,0 UV-I 0 W/m 13,4 C 1,6 km/h (1 Bft)
21.07.2016 00:44 15,9 C 15,9 C 86 % 1013,9 hPa 0,0 mm 0,1 km/h (0 Bft) W 263 0 min 0,000 mm 0,0 UV-I 0 W/m 13,6 C 1,6 km/h (1 Bft)
21.07.2016 00:45 15,9 C 15,9 C 86 % 1013,9 hPa 0,0 mm 0,3 km/h (0 Bft) W 263 0 min 0,000 mm 0,0 UV-I 0 W/m 13,6 C 1,6 km/h (1 Bft)
21.07.2016 00:46 15,9 C 15,9 C 86 % 1013,9 hPa 0,0 mm 0,1 km/h (0 Bft) W 263 0 min 0,000 mm 0,0 UV-I 0 W/m 13,6 C 1,6 km/h (1 Bft)
21.07.2016 00:47 15,9 C 15,9 C 86 % 1013,9 hPa 0,0 mm 0,2 km/h (0 Bft) W 263 0 min 0,000 mm 0,0 UV-I 0 W/m 13,6 C 1,6 km/h (1 Bft)
21.07.2016 00:48 15,8 C 15,9 C 86 % 1013,9 hPa 0,0 mm 0,5 km/h (0 Bft) W 263 0 min 0,000 mm 0,0 UV-I 0 W/m 13,5 C 1,6 km/h (1 Bft)
21.07.2016 00:49 15,8 C 15,8 C 86 % 1013,9 hPa 0,0 mm 0,0 km/h (0 Bft) W 263 0 min 0,000 mm 0,0 UV-I 0 W/m 13,5 C 0,0 km/h (0 Bft)
21.07.2016 00:50 15,8 C 15,8 C 86 % 1013,9 hPa 0,0 mm 0,5 km/h (0 Bft) W 263 0 min 0,000 mm 0,0 UV-I 0 W/m 13,5 C 1,6 km/h (1 Bft)
21.07.2016 00:51 15,8 C 15,8 C 86 % 1013,9 hPa 0,0 mm 0,7 km/h (0 Bft) W 263 0 min 0,000 mm 0,0 UV-I 0 W/m 13,5 C 3,2 km/h (1 Bft)
21.07.2016 00:52 15,8 C 15,8 C 86 % 1013,9 hPa 0,0 mm 0,6 km/h (0 Bft) W 263 0 min 0,000 mm 0,0 UV-I 0 W/m 13,5 C 1,6 km/h (1 Bft)
21.07.2016 00:53 15,8 C 15,8 C 86 % 1013,9 hPa 0,0 mm 0,9 km/h (0 Bft) W 263 0 min 0,000 mm 0,0 UV-I 0 W/m 13,5 C 1,6 km/h (1 Bft)
21.07.2016 00:54 15,8 C 15,8 C 86 % 1013,9 hPa 0,0 mm 0,1 km/h (0 Bft) W 263 0 min 0,000 mm 0,0 UV-I 0 W/m 13,5 C 1,6 km/h (1 Bft)
21.07.2016 00:55 15,8 C 15,8 C 86 % 1013,9 hPa 0,0 mm 0,1 km/h (0 Bft) W 263 0 min 0,000 mm 0,0 UV-I 0 W/m 13,5 C 1,6 km/h (1 Bft)
21.07.2016 00:56 15,8 C 15,9 C 85 % 1013,9 hPa 0,0 mm 0,7 km/h (0 Bft) W 263 0 min 0,000 mm 0,0 UV-I 0 W/m 13,3 C 1,6 km/h (1 Bft)
21.07.2016 00:57 15,9 C 15,9 C 84 % 1014,0 hPa 0,0 mm 0,0 km/h (0 Bft) W 263 0 min 0,000 mm 0,0 UV-I 0 W/m 13,2 C 0,0 km/h (0 Bft)
21.07.2016 00:58 15,9 C 15,9 C 84 % 1013,9 hPa 0,0 mm 0,0 km/h (0 Bft) W 263 0 min 0,000 mm 0,0 UV-I 0 W/m 13,2 C 0,0 km/h (0 Bft)
21.07.2016 00:59 15,9 C 15,9 C 84 % 1013,9 hPa 0,0 mm 0,1 km/h (0 Bft) W 263 0 min 0,000 mm 0,0 UV-I 0 W/m 13,2 C 1,6 km/h (1 Bft)
21.07.2016 01:00 16,0 C 16,0 C 84 % 1013,9 hPa 0,0 mm 0,0 km/h (0 Bft) W 263 0 min 0,025 mm 0,0 UV-I 0 W/m 13,3 C 0,0 km/h (0 Bft)
21.07.2016 01:01 15,9 C 16,0 C 83 % 1013,9 hPa 0,0 mm 0,3 km/h (0 Bft) W 263 0 min 0,000 mm 0,0 UV-I 0 W/m 13,0 C 1,6 km/h (1 Bft)
21.07.2016 01:02 15,9 C 16,0 C 84 % 1013,9 hPa 0,0 mm 0,1 km/h (0 Bft) W 263 0 min 0,000 mm 0,0 UV-I 0 W/m 13,2 C 1,6 km/h (1 Bft)
21.07.2016 01:03 15,9 C 15,9 C 83 % 1014,0 hPa 0,0 mm 0,0 km/h (0 Bft) W 263 0 min 0,000 mm 0,0 UV-I 0 W/m 13,0 C 0,0 km/h (0 Bft)
21.07.2016 01:04 15,9 C 15,9 C 84 % 1014,0 hPa 0,0 mm 0,1 km/h (0 Bft) W 263 0 min 0,000 mm 0,0 UV-I 0 W/m 13,2 C 1,6 km/h (1 Bft)
21.07.2016 01:05 15,9 C 15,9 C 84 % 1013,9 hPa 0,0 mm 0,3 km/h (0 Bft) W 263 0 min 0,000 mm 0,0 UV-I 0 W/m 13,2 C 1,6 km/h (1 Bft)
21.07.2016 01:06 15,9 C 15,9 C 84 % 1013,9 hPa 0,0 mm 0,8 km/h (0 Bft) W 263 0 min 0,000 mm 0,0 UV-I 0 W/m 13,2 C 1,6 km/h (1 Bft)
21.07.2016 01:07 15,9 C 15,9 C 84 % 1014,0 hPa 0,0 mm 0,5 km/h (0 Bft) W 263 0 min 0,000 mm 0,0 UV-I 0 W/m 13,2 C 1,6 km/h (1 Bft)
21.07.2016 01:08 15,8 C 15,9 C 84 % 1014,0 hPa 0,0 mm 0,1 km/h (0 Bft) W 263 0 min 0,000 mm 0,0 UV-I 0 W/m 13,1 C 1,6 km/h (1 Bft)
21.07.2016 01:09 15,8 C 15,9 C 84 % 1014,0 hPa 0,0 mm 0,3 km/h (0 Bft) W 263 0 min 0,000 mm 0,0 UV-I 0 W/m 13,1 C 1,6 km/h (1 Bft)
21.07.2016 01:10 15,8 C 15,8 C 84 % 1014,0 hPa 0,0 mm 0,6 km/h (0 Bft) W 263 0 min 0,000 mm 0,0 UV-I 0 W/m 13,1 C 1,6 km/h (1 Bft)
21.07.2016 01:11 15,8 C 15,8 C 84 % 1014,0 hPa 0,0 mm 0,2 km/h (0 Bft) W 263 0 min 0,000 mm 0,0 UV-I 0 W/m 13,1 C 1,6 km/h (1 Bft)
21.07.2016 01:12 15,8 C 15,8 C 84 % 1013,9 hPa 0,0 mm 0,0 km/h (0 Bft) W 263 0 min 0,000 mm 0,0 UV-I 0 W/m 13,1 C 0,0 km/h (0 Bft)
21.07.2016 01:13 15,8 C 15,8 C 84 % 1013,9 hPa 0,0 mm 0,0 km/h (0 Bft) W 263 0 min 0,000 mm 0,0 UV-I 0 W/m 13,1 C 0,0 km/h (0 Bft)
21.07.2016 01:14 15,8 C 15,8 C 84 % 1013,9 hPa 0,0 mm 0,0 km/h (0 Bft) W 263 0 min 0,000 mm 0,0 UV-I 0 W/m 13,1 C 0,0 km/h (0 Bft)
21.07.2016 01:15 15,8 C 15,8 C 84 % 1013,9 hPa 0,0 mm 0,0 km/h (0 Bft) W 263 0 min 0,000 mm 0,0 UV-I 0 W/m 13,1 C 0,0 km/h (0 Bft)
21.07.2016 01:16 15,8 C 15,8 C 84 % 1013,9 hPa 0,0 mm 0,1 km/h (0 Bft) W 263 0 min 0,000 mm 0,0 UV-I 0 W/m 13,1 C 1,6 km/h (1 Bft)
21.07.2016 01:17 15,7 C 15,8 C 84 % 1013,9 hPa 0,0 mm 0,0 km/h (0 Bft) W 263 0 min 0,000 mm 0,0 UV-I 0 W/m 13,0 C 0,0 km/h (0 Bft)
21.07.2016 01:18 15,7 C 15,7 C 84 % 1013,9 hPa 0,0 mm 0,4 km/h (0 Bft) W 263 0 min 0,000 mm 0,0 UV-I 0 W/m 13,0 C 1,6 km/h (1 Bft)
21.07.2016 01:19 15,7 C 15,7 C 84 % 1013,9 hPa 0,0 mm 0,0 km/h (0 Bft) W 263 0 min 0,000 mm 0,0 UV-I 0 W/m 13,0 C 0,0 km/h (0 Bft)
21.07.2016 01:20 15,7 C 15,7 C 84 % 1013,9 hPa 0,0 mm 0,0 km/h (0 Bft) W 263 0 min 0,000 mm 0,0 UV-I 0 W/m 13,0 C 0,0 km/h (0 Bft)
21.07.2016 01:21 15,7 C 15,7 C 84 % 1013,9 hPa 0,0 mm 0,2 km/h (0 Bft) W 263 0 min 0,000 mm 0,0 UV-I 0 W/m 13,0 C 1,6 km/h (1 Bft)
21.07.2016 01:22 15,7 C 15,8 C 84 % 1013,9 hPa 0,0 mm 0,0 km/h (0 Bft) W 263 0 min 0,000 mm 0,0 UV-I 0 W/m 13,0 C 0,0 km/h (0 Bft)
21.07.2016 01:23 15,7 C 15,8 C 84 % 1013,9 hPa 0,0 mm 0,0 km/h (0 Bft) W 263 0 min 0,000 mm 0,0 UV-I 0 W/m 13,0 C 0,0 km/h (0 Bft)
21.07.2016 01:24 15,7 C 15,7 C 85 % 1013,8 hPa 0,0 mm 0,7 km/h (0 Bft) W 263 0 min 0,000 mm 0,0 UV-I 0 W/m 13,2 C 1,6 km/h (1 Bft)
21.07.2016 01:25 15,7 C 15,7 C 85 % 1013,8 hPa 0,0 mm 0,0 km/h (0 Bft) W 263 0 min 0,000 mm 0,0 UV-I 0 W/m 13,2 C 0,0 km/h (0 Bft)
21.07.2016 01:26 15,7 C 15,7 C 85 % 1013,8 hPa 0,0 mm 0,0 km/h (0 Bft) W 263 0 min 0,000 mm 0,0 UV-I 0 W/m 13,2 C 0,0 km/h (0 Bft)
21.07.2016 01:27 15,7 C 15,7 C 85 % 1013,8 hPa 0,0 mm 0,5 km/h (0 Bft) W 263 0 min 0,000 mm 0,0 UV-I 0 W/m 13,2 C 1,6 km/h (1 Bft)
21.07.2016 01:28 15,7 C 15,7 C 84 % 1013,8 hPa 0,0 mm 0,0 km/h (0 Bft) W 263 0 min 0,000 mm 0,0 UV-I 0 W/m 13,0 C 0,0 km/h (0 Bft)
21.07.2016 01:29 15,7 C 15,7 C 84 % 1013,8 hPa 0,0 mm 0,0 km/h (0 Bft) W 263 0 min 0,000 mm 0,0 UV-I 0 W/m 13,0 C 0,0 km/h (0 Bft)
21.07.2016 01:30 15,7 C 15,7 C 84 % 1013,7 hPa 0,0 mm 0,1 km/h (0 Bft) W 263 0 min 0,000 mm 0,0 UV-I 0 W/m 13,0 C 1,6 km/h (1 Bft)
21.07.2016 01:31 15,7 C 15,7 C 84 % 1013,7 hPa 0,0 mm 0,3 km/h (0 Bft) W 263 0 min 0,000 mm 0,0 UV-I 0 W/m 13,0 C 1,6 km/h (1 Bft)
21.07.2016 01:32 15,7 C 15,7 C 84 % 1013,7 hPa 0,0 mm 0,1 km/h (0 Bft) W 263 0 min 0,000 mm 0,0 UV-I 0 W/m 13,0 C 1,6 km/h (1 Bft)
21.07.2016 01:33 15,8 C 15,8 C 84 % 1013,7 hPa 0,0 mm 0,1 km/h (0 Bft) W 263 0 min 0,000 mm 0,0 UV-I 0 W/m 13,1 C 1,6 km/h (1 Bft)
21.07.2016 01:34 15,8 C 15,8 C 84 % 1013,7 hPa 0,0 mm 0,1 km/h (0 Bft) W 263 0 min 0,000 mm 0,0 UV-I 0 W/m 13,1 C 1,6 km/h (1 Bft)
21.07.2016 01:35 15,9 C 15,9 C 82 % 1013,7 hPa 0,0 mm 0,6 km/h (0 Bft) W 263 0 min 0,000 mm 0,0 UV-I 0 W/m 12,8 C 1,6 km/h (1 Bft)
21.07.2016 01:36 16,0 C 16,0 C 82 % 1013,7 hPa 0,0 mm 0,0 km/h (0 Bft) W 263 0 min 0,000 mm 0,0 UV-I 0 W/m 12,9 C 0,0 km/h (0 Bft)
21.07.2016 01:37 15,9 C 16,0 C 82 % 1013,6 hPa 0,0 mm 0,4 km/h (0 Bft) W 263 0 min 0,000 mm 0,0 UV-I 0 W/m 12,8 C 1,6 km/h (1 Bft)
21.07.2016 01:38 15,9 C 16,0 C 82 % 1013,6 hPa 0,0 mm 0,1 km/h (0 Bft) W 263 0 min 0,000 mm 0,0 UV-I 0 W/m 12,8 C 1,6 km/h (1 Bft)
21.07.2016 01:39 16,1 C 16,1 C 82 % 1013,6 hPa 0,0 mm 0,5 km/h (0 Bft) W 263 0 min 0,000 mm 0,0 UV-I 0 W/m 13,0 C 1,6 km/h (1 Bft)
21.07.2016 01:40 16,1 C 16,1 C 82 % 1013,6 hPa 0,0 mm 0,3 km/h (0 Bft) W 263 0 min 0,000 mm 0,0 UV-I 0 W/m 13,0 C 1,6 km/h (1 Bft)
21.07.2016 01:41 16,2 C 16,2 C 81 % 1013,7 hPa 0,0 mm 0,0 km/h (0 Bft) W 263 0 min 0,000 mm 0,0 UV-I 0 W/m 12,9 C 0,0 km/h (0 Bft)
21.07.2016 01:42 16,2 C 16,2 C 81 % 1013,6 hPa 0,0 mm 0,1 km/h (0 Bft) W 263 0 min 0,000 mm 0,0 UV-I 0 W/m 12,9 C 1,6 km/h (1 Bft)
21.07.2016 01:43 16,2 C 16,2 C 81 % 1013,6 hPa 0,0 mm 0,5 km/h (0 Bft) W 263 0 min 0,000 mm 0,0 UV-I 0 W/m 12,9 C 1,6 km/h (1 Bft)
21.07.2016 01:44 16,1 C 16,2 C 81 % 1013,6 hPa 0,0 mm 0,4 km/h (0 Bft) W 263 0 min 0,000 mm 0,0 UV-I 0 W/m 12,8 C 1,6 km/h (1 Bft)
21.07.2016 01:45 15,9 C 16,1 C 81 % 1013,7 hPa 0,0 mm 0,1 km/h (0 Bft) W 263 0 min 0,000 mm 0,0 UV-I 0 W/m 12,6 C 1,6 km/h (1 Bft)
21.07.2016 01:46 15,9 C 15,9 C 82 % 1013,6 hPa 0,0 mm 0,0 km/h (0 Bft) W 263 0 min 0,000 mm 0,0 UV-I 0 W/m 12,8 C 0,0 km/h (0 Bft)
21.07.2016 01:47 15,9 C 15,9 C 82 % 1013,6 hPa 0,0 mm 0,5 km/h (0 Bft) W 263 0 min 0,000 mm 0,0 UV-I 0 W/m 12,8 C 1,6 km/h (1 Bft)
21.07.2016 01:48 15,9 C 15,9 C 82 % 1013,6 hPa 0,0 mm 0,0 km/h (0 Bft) W 263 0 min 0,000 mm 0,0 UV-I 0 W/m 12,8 C 0,0 km/h (0 Bft)
21.07.2016 01:49 15,9 C 15,9 C 82 % 1013,6 hPa 0,0 mm 0,0 km/h (0 Bft) W 263 0 min 0,000 mm 0,0 UV-I 0 W/m 12,8 C 0,0 km/h (0 Bft)
21.07.2016 01:50 15,8 C 15,9 C 82 % 1013,6 hPa 0,0 mm 0,0 km/h (0 Bft) W 263 0 min 0,000 mm 0,0 UV-I 0 W/m 12,7 C 0,0 km/h (0 Bft)
21.07.2016 01:51 15,7 C 15,8 C 83 % 1013,6 hPa 0,0 mm 0,2 km/h (0 Bft) W 263 0 min 0,000 mm 0,0 UV-I 0 W/m 12,8 C 1,6 km/h (1 Bft)
21.07.2016 01:52 15,7 C 15,7 C 83 % 1013,6 hPa 0,0 mm 0,0 km/h (0 Bft) W 263 0 min 0,000 mm 0,0 UV-I 0 W/m 12,8 C 0,0 km/h (0 Bft)
21.07.2016 01:53 15,6 C 15,7 C 84 % 1013,6 hPa 0,0 mm 0,0 km/h (0 Bft) W 263 0 min 0,000 mm 0,0 UV-I 0 W/m 12,9 C 0,0 km/h (0 Bft)
21.07.2016 01:54 15,6 C 15,6 C 84 % 1013,6 hPa 0,0 mm 0,0 km/h (0 Bft) W 263 0 min 0,000 mm 0,0 UV-I 0 W/m 12,9 C 0,0 km/h (0 Bft)
21.07.2016 01:55 15,6 C 15,6 C 84 % 1013,6 hPa 0,0 mm 0,0 km/h (0 Bft) W 263 0 min 0,000 mm 0,0 UV-I 0 W/m 12,9 C 0,0 km/h (0 Bft)
21.07.2016 01:56 15,6 C 15,6 C 84 % 1013,6 hPa 0,0 mm 0,3 km/h (0 Bft) W 263 0 min 0,000 mm 0,0 UV-I 0 W/m 12,9 C 1,6 km/h (1 Bft)
21.07.2016 01:57 15,6 C 15,6 C 83 % 1013,5 hPa 0,0 mm 0,0 km/h (0 Bft) W 263 0 min 0,000 mm 0,0 UV-I 0 W/m 12,7 C 0,0 km/h (0 Bft)
21.07.2016 01:58 15,5 C 15,6 C 84 % 1013,5 hPa 0,0 mm 0,0 km/h (0 Bft) W 263 0 min 0,000 mm 0,0 UV-I 0 W/m 12,8 C 0,0 km/h (0 Bft)
21.07.2016 01:59 15,5 C 15,5 C 84 % 1013,5 hPa 0,0 mm 0,0 km/h (0 Bft) W 263 0 min 0,000 mm 0,0 UV-I 0 W/m 12,8 C 0,0 km/h (0 Bft)
21.07.2016 02:00 15,5 C 15,5 C 84 % 1013,5 hPa 0,0 mm 0,0 km/h (0 Bft) W 263 0 min 0,026 mm 0,0 UV-I 0 W/m 12,8 C 0,0 km/h (0 Bft)
21.07.2016 02:01 15,4 C 15,5 C 84 % 1013,5 hPa 0,0 mm 0,0 km/h (0 Bft) W 263 0 min 0,000 mm 0,0 UV-I 0 W/m 12,7 C 0,0 km/h (0 Bft)
21.07.2016 02:02 15,5 C 15,5 C 84 % 1013,5 hPa 0,0 mm 0,0 km/h (0 Bft) W 263 0 min 0,000 mm 0,0 UV-I 0 W/m 12,8 C 0,0 km/h (0 Bft)
21.07.2016 02:03 15,6 C 15,6 C 83 % 1013,5 hPa 0,0 mm 0,0 km/h (0 Bft) W 263 0 min 0,000 mm 0,0 UV-I 0 W/m 12,7 C 0,0 km/h (0 Bft)
21.07.2016 02:04 15,7 C 15,7 C 82 % 1013,5 hPa 0,0 mm 0,0 km/h (0 Bft) W 263 0 min 0,000 mm 0,0 UV-I 0 W/m 12,6 C 0,0 km/h (0 Bft)
21.07.2016 02:05 15,8 C 15,8 C 81 % 1013,5 hPa 0,0 mm 0,0 km/h (0 Bft) W 263 0 min 0,000 mm 0,0 UV-I 0 W/m 12,5 C 0,0 km/h (0 Bft)
21.07.2016 02:06 15,9 C 15,9 C 81 % 1013,5 hPa 0,0 mm 0,0 km/h (0 Bft) W 263 0 min 0,000 mm 0,0 UV-I 0 W/m 12,6 C 0,0 km/h (0 Bft)
21.07.2016 02:07 15,9 C 15,9 C 81 % 1013,5 hPa 0,0 mm 0,0 km/h (0 Bft) W 263 0 min 0,000 mm 0,0 UV-I 0 W/m 12,6 C 0,0 km/h (0 Bft)
21.07.2016 02:08 16,0 C 16,0 C 81 % 1013,5 hPa 0,0 mm 0,0 km/h (0 Bft) W 263 0 min 0,000 mm 0,0 UV-I 0 W/m 12,7 C 0,0 km/h (0 Bft)
21.07.2016 02:09 16,0 C 16,0 C 81 % 1013,5 hPa 0,0 mm 0,0 km/h (0 Bft) W 263 0 min 0,000 mm 0,0 UV-I 0 W/m 12,7 C 0,0 km/h (0 Bft)
21.07.2016 02:10 16,1 C 16,1 C 80 % 1013,5 hPa 0,0 mm 0,2 km/h (0 Bft) W 263 0 min 0,000 mm 0,0 UV-I 0 W/m 12,6 C 1,6 km/h (1 Bft)
21.07.2016 02:11 16,1 C 16,1 C 80 % 1013,5 hPa 0,0 mm 0,9 km/h (0 Bft) W 263 0 min 0,000 mm 0,0 UV-I 0 W/m 12,6 C 1,6 km/h (1 Bft)
21.07.2016 02:12 16,2 C 16,2 C 80 % 1013,5 hPa 0,0 mm 0,2 km/h (0 Bft) W 263 0 min 0,000 mm 0,0 UV-I 0 W/m 12,7 C 1,6 km/h (1 Bft)
21.07.2016 02:13 16,2 C 16,2 C 80 % 1013,5 hPa 0,0 mm 0,5 km/h (0 Bft) W 263 0 min 0,000 mm 0,0 UV-I 0 W/m 12,7 C 3,2 km/h (1 Bft)
21.07.2016 02:14 16,3 C 16,3 C 80 % 1013,5 hPa 0,0 mm 1,0 km/h (0 Bft) W 263 0 min 0,000 mm 0,0 UV-I 0 W/m 12,8 C 3,2 km/h (1 Bft)
21.07.2016 02:15 16,3 C 16,3 C 80 % 1013,5 hPa 0,0 mm 0,4 km/h (0 Bft) W 263 0 min 0,000 mm 0,0 UV-I 0 W/m 12,8 C 1,6 km/h (1 Bft)
21.07.2016 02:16 16,3 C 16,3 C 80 % 1013,5 hPa 0,0 mm 0,0 km/h (0 Bft) W 263 0 min 0,000 mm 0,0 UV-I 0 W/m 12,8 C 0,0 km/h (0 Bft)
21.07.2016 02:17 16,2 C 16,3 C 80 % 1013,5 hPa 0,0 mm 0,0 km/h (0 Bft) W 263 0 min 0,000 mm 0,0 UV-I 0 W/m 12,7 C 0,0 km/h (0 Bft)
21.07.2016 02:18 16,3 C 16,3 C 80 % 1013,5 hPa 0,0 mm 0,0 km/h (0 Bft) W 263 0 min 0,000 mm 0,0 UV-I 0 W/m 12,8 C 0,0 km/h (0 Bft)
21.07.2016 02:19 16,3 C 16,3 C 81 % 1013,5 hPa 0,0 mm 0,0 km/h (0 Bft) W 263 0 min 0,000 mm 0,0 UV-I 0 W/m 13,0 C 0,0 km/h (0 Bft)
21.07.2016 02:20 16,3 C 16,3 C 80 % 1013,5 hPa 0,0 mm 0,0 km/h (0 Bft) W 263 0 min 0,000 mm 0,0 UV-I 0 W/m 12,8 C 0,0 km/h (0 Bft)
21.07.2016 02:21 16,3 C 16,3 C 80 % 1013,5 hPa 0,0 mm 0,0 km/h (0 Bft) W 263 0 min 0,000 mm 0,0 UV-I 0 W/m 12,8 C 0,0 km/h (0 Bft)
21.07.2016 02:22 16,3 C 16,3 C 80 % 1013,5 hPa 0,0 mm 0,0 km/h (0 Bft) W 263 0 min 0,000 mm 0,0 UV-I 0 W/m 12,8 C 0,0 km/h (0 Bft)
21.07.2016 02:23 16,2 C 16,3 C 80 % 1013,4 hPa 0,0 mm 0,0 km/h (0 Bft) W 263 0 min 0,000 mm 0,0 UV-I 0 W/m 12,7 C 0,0 km/h (0 Bft)
21.07.2016 02:24 16,1 C 16,2 C 80 % 1013,4 hPa 0,0 mm 0,0 km/h (0 Bft) W 263 0 min 0,000 mm 0,0 UV-I 0 W/m 12,6 C 0,0 km/h (0 Bft)
21.07.2016 02:25 16,1 C 16,1 C 80 % 1013,4 hPa 0,0 mm 0,0 km/h (0 Bft) W 263 0 min 0,000 mm 0,0 UV-I 0 W/m 12,6 C 0,0 km/h (0 Bft)
21.07.2016 02:26 16,0 C 16,1 C 81 % 1013,4 hPa 0,0 mm 0,0 km/h (0 Bft) W 263 0 min 0,000 mm 0,0 UV-I 0 W/m 12,7 C 0,0 km/h (0 Bft)
21.07.2016 02:27 16,0 C 16,1 C 81 % 1013,4 hPa 0,0 mm 0,0 km/h (0 Bft) W 263 0 min 0,000 mm 0,0 UV-I 0 W/m 12,7 C 0,0 km/h (0 Bft)
21.07.2016 02:28 16,0 C 16,0 C 82 % 1013,3 hPa 0,0 mm 0,0 km/h (0 Bft) W 263 0 min 0,000 mm 0,0 UV-I 0 W/m 12,9 C 0,0 km/h (0 Bft)
21.07.2016 02:29 15,9 C 16,0 C 82 % 1013,2 hPa 0,0 mm 1,0 km/h (0 Bft) W 264 0 min 0,000 mm 0,0 UV-I 0 W/m 12,8 C 3,2 km/h (1 Bft)
21.07.2016 02:30 15,9 C 15,9 C 82 % 1013,2 hPa 0,0 mm 1,6 km/h (1 Bft) W 273 0 min 0,000 mm 0,0 UV-I 0 W/m 12,8 C 3,2 km/h (1 Bft)
21.07.2016 02:31 15,8 C 15,9 C 82 % 1013,3 hPa 0,0 mm 2,5 km/h (1 Bft) W 273 0 min 0,000 mm 0,0 UV-I 0 W/m 12,7 C 4,8 km/h (1 Bft)
21.07.2016 02:32 15,7 C 15,8 C 82 % 1013,3 hPa 0,0 mm 1,8 km/h (1 Bft) W 276 0 min 0,000 mm 0,0 UV-I 0 W/m 12,6 C 3,2 km/h (1 Bft)
21.07.2016 02:33 15,5 C 15,7 C 82 % 1013,3 hPa 0,0 mm 0,5 km/h (0 Bft) W 276 0 min 0,000 mm 0,0 UV-I 0 W/m 12,4 C 1,6 km/h (1 Bft)
21.07.2016 02:34 15,4 C 15,5 C 82 % 1013,2 hPa 0,0 mm 1,5 km/h (1 Bft) W 276 0 min 0,000 mm 0,0 UV-I 0 W/m 12,3 C 3,2 km/h (1 Bft)
21.07.2016 02:35 15,3 C 15,4 C 83 % 1013,2 hPa 0,0 mm 2,2 km/h (1 Bft) W-NW 284 0 min 0,000 mm 0,0 UV-I 0 W/m 12,4 C 4,8 km/h (1 Bft)
21.07.2016 02:36 15,3 C 15,3 C 83 % 1013,1 hPa 0,0 mm 0,0 km/h (0 Bft) W-NW 284 0 min 0,000 mm 0,0 UV-I 0 W/m 12,4 C 0,0 km/h (0 Bft)
21.07.2016 02:37 15,3 C 15,3 C 83 % 1013,1 hPa 0,0 mm 0,2 km/h (0 Bft) W-NW 284 0 min 0,000 mm 0,0 UV-I 0 W/m 12,4 C 1,6 km/h (1 Bft)
21.07.2016 02:38 15,2 C 15,3 C 83 % 1013,1 hPa 0,0 mm 0,0 km/h (0 Bft) W-NW 284 0 min 0,000 mm 0,0 UV-I 0 W/m 12,3 C 0,0 km/h (0 Bft)
21.07.2016 02:39 15,2 C 15,2 C 82 % 1013,1 hPa 0,0 mm 0,4 km/h (0 Bft) W-NW 284 0 min 0,000 mm 0,0 UV-I 0 W/m 12,1 C 1,6 km/h (1 Bft)
21.07.2016 02:40 15,2 C 15,2 C 82 % 1013,1 hPa 0,0 mm 0,2 km/h (0 Bft) W-NW 284 0 min 0,000 mm 0,0 UV-I 0 W/m 12,1 C 1,6 km/h (1 Bft)
21.07.2016 02:41 15,2 C 15,2 C 82 % 1013,1 hPa 0,0 mm 0,5 km/h (0 Bft) W-NW 284 0 min 0,000 mm 0,0 UV-I 0 W/m 12,1 C 1,6 km/h (1 Bft)
21.07.2016 02:42 15,2 C 15,2 C 82 % 1013,1 hPa 0,0 mm 0,7 km/h (0 Bft) W-NW 284 0 min 0,000 mm 0,0 UV-I 0 W/m 12,1 C 1,6 km/h (1 Bft)
21.07.2016 02:43 15,2 C 15,2 C 82 % 1013,0 hPa 0,0 mm 0,9 km/h (0 Bft) W-NW 296 0 min 0,000 mm 0,0 UV-I 0 W/m 12,1 C 3,2 km/h (1 Bft)
21.07.2016 02:44 15,2 C 15,2 C 82 % 1013,1 hPa 0,0 mm 2,0 km/h (1 Bft) NW 310 0 min 0,000 mm 0,0 UV-I 0 W/m 12,1 C 4,8 km/h (1 Bft)
21.07.2016 02:45 15,2 C 15,2 C 82 % 1013,0 hPa 0,0 mm 0,1 km/h (0 Bft) NW 310 0 min 0,000 mm 0,0 UV-I 0 W/m 12,1 C 1,6 km/h (1 Bft)
21.07.2016 02:46 15,3 C 15,3 C 81 % 1013,1 hPa 0,0 mm 0,0 km/h (0 Bft) NW 310 0 min 0,000 mm 0,0 UV-I 0 W/m 12,1 C 0,0 km/h (0 Bft)
21.07.2016 02:47 15,3 C 15,3 C 81 % 1013,0 hPa 0,0 mm 0,0 km/h (0 Bft) NW 310 0 min 0,000 mm 0,0 UV-I 0 W/m 12,1 C 0,0 km/h (0 Bft)
21.07.2016 02:48 15,4 C 15,4 C 81 % 1013,0 hPa 0,0 mm 0,0 km/h (0 Bft) NW 310 0 min 0,000 mm 0,0 UV-I 0 W/m 12,2 C 0,0 km/h (0 Bft)
21.07.2016 02:49 15,4 C 15,4 C 80 % 1013,0 hPa 0,0 mm 0,1 km/h (0 Bft) NW 310 0 min 0,000 mm 0,0 UV-I 0 W/m 12,0 C 1,6 km/h (1 Bft)
21.07.2016 02:50 15,4 C 15,4 C 80 % 1013,0 hPa 0,0 mm 1,0 km/h (0 Bft) NW 310 0 min 0,000 mm 0,0 UV-I 0 W/m 12,0 C 3,2 km/h (1 Bft)
21.07.2016 02:51 15,5 C 15,5 C 80 % 1013,0 hPa 0,0 mm 0,3 km/h (0 Bft) NW 310 0 min 0,000 mm 0,0 UV-I 0 W/m 12,1 C 1,6 km/h (1 Bft)
21.07.2016 02:52 15,5 C 15,5 C 80 % 1013,0 hPa 0,0 mm 1,1 km/h (1 Bft) NW 310 0 min 0,000 mm 0,0 UV-I 0 W/m 12,1 C 3,2 km/h (1 Bft)
21.07.2016 02:53 15,5 C 15,6 C 79 % 1013,0 hPa 0,0 mm 2,5 km/h (1 Bft) N 360 0 min 0,000 mm 0,0 UV-I 0 W/m 11,9 C 6,4 km/h (2 Bft)
21.07.2016 02:54 15,5 C 15,5 C 80 % 1012,9 hPa 0,0 mm 3,0 km/h (1 Bft) NO 38 0 min 0,000 mm 0,0 UV-I 0 W/m 12,1 C 4,8 km/h (1 Bft)
21.07.2016 02:55 15,5 C 15,6 C 80 % 1012,9 hPa 0,0 mm 1,9 km/h (1 Bft) N-NO 16 0 min 0,000 mm 0,0 UV-I 0 W/m 12,1 C 3,2 km/h (1 Bft)
21.07.2016 02:56 15,4 C 15,5 C 80 % 1012,9 hPa 0,0 mm 0,8 km/h (0 Bft) N-NO 16 0 min 0,000 mm 0,0 UV-I 0 W/m 12,0 C 3,2 km/h (1 Bft)
21.07.2016 02:57 15,4 C 15,5 C 80 % 1012,9 hPa 0,0 mm 1,1 km/h (1 Bft) N-NO 16 0 min 0,000 mm 0,0 UV-I 0 W/m 12,0 C 3,2 km/h (1 Bft)
21.07.2016 02:58 15,5 C 15,5 C 79 % 1012,9 hPa 0,0 mm 1,7 km/h (1 Bft) N 350 0 min 0,000 mm 0,0 UV-I 0 W/m 11,9 C 4,8 km/h (1 Bft)
21.07.2016 02:59 15,5 C 15,5 C 79 % 1012,9 hPa 0,0 mm 0,3 km/h (0 Bft) N 350 0 min 0,000 mm 0,0 UV-I 0 W/m 11,9 C 1,6 km/h (1 Bft)
21.07.2016 03:00 15,6 C 15,6 C 79 % 1012,9 hPa 0,0 mm 2,1 km/h (1 Bft) N-NW 348 0 min 0,025 mm 0,0 UV-I 0 W/m 12,0 C 4,8 km/h (1 Bft)
21.07.2016 03:01 15,6 C 15,6 C 79 % 1012,9 hPa 0,0 mm 1,1 km/h (1 Bft) N-NW 346 0 min 0,000 mm 0,0 UV-I 0 W/m 12,0 C 3,2 km/h (1 Bft)
21.07.2016 03:02 15,6 C 15,6 C 78 % 1012,9 hPa 0,0 mm 2,1 km/h (1 Bft) N-NW 342 0 min 0,000 mm 0,0 UV-I 0 W/m 11,8 C 3,2 km/h (1 Bft)
21.07.2016 03:03 15,6 C 15,6 C 78 % 1012,9 hPa 0,0 mm 0,7 km/h (0 Bft) N-NW 342 0 min 0,000 mm 0,0 UV-I 0 W/m 11,8 C 1,6 km/h (1 Bft)
21.07.2016 03:04 15,7 C 15,7 C 77 % 1012,9 hPa 0,0 mm 1,3 km/h (1 Bft) N-NW 342 0 min 0,000 mm 0,0 UV-I 0 W/m 11,7 C 3,2 km/h (1 Bft)
21.07.2016 03:05 15,8 C 15,8 C 77 % 1012,9 hPa 0,0 mm 1,3 km/h (1 Bft) N-NW 342 0 min 0,000 mm 0,0 UV-I 0 W/m 11,8 C 3,2 km/h (1 Bft)
21.07.2016 03:06 15,8 C 15,8 C 77 % 1012,9 hPa 0,0 mm 0,8 km/h (0 Bft) N-NW 343 0 min 0,000 mm 0,0 UV-I 0 W/m 11,8 C 3,2 km/h (1 Bft)
21.07.2016 03:07 15,9 C 15,9 C 78 % 1012,9 hPa 0,0 mm 0,7 km/h (0 Bft) N-NW 343 0 min 0,000 mm 0,0 UV-I 0 W/m 12,1 C 1,6 km/h (1 Bft)
21.07.2016 03:08 16,0 C 16,0 C 77 % 1012,9 hPa 0,0 mm 0,5 km/h (0 Bft) N-NW 343 0 min 0,000 mm 0,0 UV-I 0 W/m 12,0 C 1,6 km/h (1 Bft)
21.07.2016 03:09 16,1 C 16,1 C 76 % 1012,9 hPa 0,0 mm 0,2 km/h (0 Bft) N-NW 343 0 min 0,000 mm 0,0 UV-I 0 W/m 11,9 C 1,6 km/h (1 Bft)
21.07.2016 03:10 16,1 C 16,1 C 76 % 1012,8 hPa 0,0 mm 0,1 km/h (0 Bft) N-NW 343 0 min 0,000 mm 0,0 UV-I 0 W/m 11,9 C 1,6 km/h (1 Bft)
21.07.2016 03:11 16,1 C 16,1 C 76 % 1012,8 hPa 0,0 mm 0,3 km/h (0 Bft) N-NW 343 0 min 0,000 mm 0,0 UV-I 0 W/m 11,9 C 1,6 km/h (1 Bft)
21.07.2016 03:12 16,2 C 16,2 C 75 % 1012,7 hPa 0,0 mm 3,3 km/h (1 Bft) N-NW 340 0 min 0,000 mm 0,0 UV-I 0 W/m 11,8 C 4,8 km/h (1 Bft)
21.07.2016 03:13 16,2 C 16,2 C 75 % 1012,7 hPa 0,0 mm 0,4 km/h (0 Bft) N-NW 336 0 min 0,000 mm 0,0 UV-I 0 W/m 11,8 C 1,6 km/h (1 Bft)
21.07.2016 03:14 16,2 C 16,2 C 75 % 1012,8 hPa 0,0 mm 0,7 km/h (0 Bft) N-NW 336 0 min 0,000 mm 0,0 UV-I 0 W/m 11,8 C 1,6 km/h (1 Bft)
21.07.2016 03:15 16,3 C 16,3 C 75 % 1012,7 hPa 0,0 mm 1,7 km/h (1 Bft) N-NW 336 0 min 0,000 mm 0,0 UV-I 0 W/m 11,9 C 3,2 km/h (1 Bft)
21.07.2016 03:16 16,3 C 16,3 C 75 % 1012,7 hPa 0,0 mm 1,0 km/h (0 Bft) N-NW 331 0 min 0,000 mm 0,0 UV-I 0 W/m 11,9 C 1,6 km/h (1 Bft)
21.07.2016 03:17 16,3 C 16,3 C 75 % 1012,7 hPa 0,0 mm 0,4 km/h (0 Bft) N-NW 331 0 min 0,000 mm 0,0 UV-I 0 W/m 11,9 C 1,6 km/h (1 Bft)
21.07.2016 03:18 16,3 C 16,3 C 75 % 1012,7 hPa 0,0 mm 0,7 km/h (0 Bft) N-NW 331 0 min 0,000 mm 0,0 UV-I 0 W/m 11,9 C 1,6 km/h (1 Bft)
21.07.2016 03:19 16,2 C 16,3 C 75 % 1012,7 hPa 0,0 mm 1,3 km/h (1 Bft) N-NW 331 0 min 0,000 mm 0,0 UV-I 0 W/m 11,8 C 1,6 km/h (1 Bft)
21.07.2016 03:20 16,2 C 16,2 C 75 % 1012,7 hPa 0,0 mm 0,7 km/h (0 Bft) N-NW 331 0 min 0,000 mm 0,0 UV-I 0 W/m 11,8 C 1,6 km/h (1 Bft)
21.07.2016 03:21 16,2 C 16,2 C 75 % 1012,7 hPa 0,0 mm 0,0 km/h (0 Bft) N-NW 331 0 min 0,000 mm 0,0 UV-I 0 W/m 11,8 C 0,0 km/h (0 Bft)
21.07.2016 03:22 16,1 C 16,2 C 75 % 1012,7 hPa 0,0 mm 1,0 km/h (0 Bft) N-NW 331 0 min 0,000 mm 0,0 UV-I 0 W/m 11,7 C 1,6 km/h (1 Bft)
21.07.2016 03:23 16,0 C 16,1 C 75 % 1012,7 hPa 0,0 mm 0,7 km/h (0 Bft) NW 313 0 min 0,000 mm 0,0 UV-I 0 W/m 11,6 C 3,2 km/h (1 Bft)
21.07.2016 03:24 15,9 C 16,0 C 76 % 1012,7 hPa 0,0 mm 0,8 km/h (0 Bft) NW 313 0 min 0,000 mm 0,0 UV-I 0 W/m 11,7 C 3,2 km/h (1 Bft)
21.07.2016 03:25 15,9 C 15,9 C 75 % 1012,7 hPa 0,0 mm 0,1 km/h (0 Bft) NW 313 0 min 0,000 mm 0,0 UV-I 0 W/m 11,5 C 1,6 km/h (1 Bft)
21.07.2016 03:26 15,9 C 15,9 C 76 % 1012,7 hPa 0,0 mm 0,0 km/h (0 Bft) NW 313 0 min 0,000 mm 0,0 UV-I 0 W/m 11,7 C 0,0 km/h (0 Bft)
21.07.2016 03:27 15,9 C 15,9 C 76 % 1012,7 hPa 0,0 mm 0,3 km/h (0 Bft) NW 313 0 min 0,000 mm 0,0 UV-I 0 W/m 11,7 C 1,6 km/h (1 Bft)
21.07.2016 03:28 15,9 C 15,9 C 76 % 1012,6 hPa 0,0 mm 0,7 km/h (0 Bft) NW 313 0 min 0,000 mm 0,0 UV-I 0 W/m 11,7 C 1,6 km/h (1 Bft)
21.07.2016 03:29 15,8 C 15,9 C 76 % 1012,6 hPa 0,0 mm 0,6 km/h (0 Bft) NW 313 0 min 0,000 mm 0,0 UV-I 0 W/m 11,6 C 1,6 km/h (1 Bft)
21.07.2016 03:30 15,8 C 15,8 C 76 % 1012,6 hPa 0,0 mm 0,7 km/h (0 Bft) NW 314 0 min 0,000 mm 0,0 UV-I 0 W/m 11,6 C 1,6 km/h (1 Bft)
21.07.2016 03:31 15,8 C 15,8 C 76 % 1012,6 hPa 0,0 mm 0,7 km/h (0 Bft) NW 314 0 min 0,000 mm 0,0 UV-I 0 W/m 11,6 C 1,6 km/h (1 Bft)
21.07.2016 03:32 15,8 C 15,8 C 76 % 1012,6 hPa 0,0 mm 0,0 km/h (0 Bft) NW 314 0 min 0,000 mm 0,0 UV-I 0 W/m 11,6 C 0,0 km/h (0 Bft)
21.07.2016 03:33 15,8 C 15,8 C 76 % 1012,7 hPa 0,0 mm 0,0 km/h (0 Bft) NW 314 0 min 0,000 mm 0,0 UV-I 0 W/m 11,6 C 0,0 km/h (0 Bft)
21.07.2016 03:34 15,8 C 15,8 C 75 % 1012,7 hPa 0,0 mm 0,5 km/h (0 Bft) NW 314 0 min 0,000 mm 0,0 UV-I 0 W/m 11,4 C 1,6 km/h (1 Bft)
21.07.2016 03:35 15,9 C 15,9 C 75 % 1012,7 hPa 0,0 mm 0,3 km/h (0 Bft) NW 314 0 min 0,000 mm 0,0 UV-I 0 W/m 11,5 C 1,6 km/h (1 Bft)
21.07.2016 03:36 15,9 C 15,9 C 75 % 1012,7 hPa 0,0 mm 0,7 km/h (0 Bft) NW 314 0 min 0,000 mm 0,0 UV-I 0 W/m 11,5 C 1,6 km/h (1 Bft)
21.07.2016 03:37 16,0 C 16,0 C 75 % 1012,7 hPa 0,0 mm 0,9 km/h (0 Bft) NW 314 0 min 0,000 mm 0,0 UV-I 0 W/m 11,6 C 1,6 km/h (1 Bft)
21.07.2016 03:38 16,1 C 16,1 C 75 % 1012,7 hPa 0,0 mm 0,6 km/h (0 Bft) NW 304 0 min 0,000 mm 0,0 UV-I 0 W/m 11,7 C 1,6 km/h (1 Bft)
21.07.2016 03:39 16,1 C 16,1 C 74 % 1012,7 hPa 0,0 mm 0,1 km/h (0 Bft) NW 304 0 min 0,000 mm 0,0 UV-I 0 W/m 11,5 C 1,6 km/h (1 Bft)
21.07.2016 03:40 16,3 C 16,3 C 73 % 1012,7 hPa 0,0 mm 0,0 km/h (0 Bft) NW 304 0 min 0,000 mm 0,0 UV-I 0 W/m 11,4 C 0,0 km/h (0 Bft)
21.07.2016 03:41 16,3 C 16,3 C 73 % 1012,7 hPa 0,0 mm 0,0 km/h (0 Bft) NW 304 0 min 0,000 mm 0,0 UV-I 0 W/m 11,4 C 0,0 km/h (0 Bft)
21.07.2016 03:42 16,4 C 16,4 C 73 % 1012,7 hPa 0,0 mm 0,0 km/h (0 Bft) NW 304 0 min 0,000 mm 0,0 UV-I 0 W/m 11,5 C 0,0 km/h (0 Bft)
21.07.2016 03:43 16,4 C 16,4 C 73 % 1012,7 hPa 0,0 mm 0,0 km/h (0 Bft) NW 304 0 min 0,000 mm 0,0 UV-I 0 W/m 11,5 C 0,0 km/h (0 Bft)
21.07.2016 03:44 16,4 C 16,4 C 73 % 1012,7 hPa 0,0 mm 0,0 km/h (0 Bft) NW 304 0 min 0,000 mm 0,0 UV-I 0 W/m 11,5 C 0,0 km/h (0 Bft)
21.07.2016 03:45 16,4 C 16,4 C 73 % 1012,7 hPa 0,0 mm 0,0 km/h (0 Bft) NW 304 0 min 0,000 mm 0,0 UV-I 0 W/m 11,5 C 0,0 km/h (0 Bft)
21.07.2016 03:46 16,5 C 16,5 C 72 % 1012,7 hPa 0,0 mm 0,0 km/h (0 Bft) NW 304 0 min 0,000 mm 0,0 UV-I 0 W/m 11,4 C 0,0 km/h (0 Bft)
21.07.2016 03:47 16,6 C 16,6 C 72 % 1012,7 hPa 0,0 mm 0,0 km/h (0 Bft) NW 304 0 min 0,000 mm 0,0 UV-I 0 W/m 11,5 C 0,0 km/h (0 Bft)
21.07.2016 03:48 16,6 C 16,6 C 72 % 1012,7 hPa 0,0 mm 0,0 km/h (0 Bft) NW 304 0 min 0,000 mm 0,0 UV-I 0 W/m 11,5 C 0,0 km/h (0 Bft)
21.07.2016 03:49 16,6 C 16,6 C 72 % 1012,7 hPa 0,0 mm 0,0 km/h (0 Bft) NW 304 0 min 0,000 mm 0,0 UV-I 0 W/m 11,5 C 0,0 km/h (0 Bft)
21.07.2016 03:50 16,6 C 16,6 C 72 % 1012,7 hPa 0,0 mm 0,0 km/h (0 Bft) NW 304 0 min 0,000 mm 0,0 UV-I 0 W/m 11,5 C 0,0 km/h (0 Bft)
21.07.2016 03:51 16,6 C 16,7 C 72 % 1012,6 hPa 0,0 mm 0,0 km/h (0 Bft) NW 304 0 min 0,000 mm 0,0 UV-I 0 W/m 11,5 C 0,0 km/h (0 Bft)
21.07.2016 03:52 16,6 C 16,6 C 72 % 1012,6 hPa 0,0 mm 1,0 km/h (0 Bft) NW 311 0 min 0,000 mm 0,0 UV-I 0 W/m 11,5 C 3,2 km/h (1 Bft)
21.07.2016 03:53 16,4 C 16,6 C 72 % 1012,6 hPa 0,0 mm 0,8 km/h (0 Bft) NW 311 0 min 0,000 mm 0,0 UV-I 0 W/m 11,3 C 1,6 km/h (1 Bft)
21.07.2016 03:54 16,4 C 16,4 C 72 % 1012,6 hPa 0,0 mm 1,1 km/h (1 Bft) NW 311 0 min 0,000 mm 0,0 UV-I 0 W/m 11,3 C 1,6 km/h (1 Bft)
21.07.2016 03:55 16,3 C 16,4 C 73 % 1012,6 hPa 0,0 mm 0,7 km/h (0 Bft) NW 311 0 min 0,000 mm 0,0 UV-I 0 W/m 11,4 C 1,6 km/h (1 Bft)
21.07.2016 03:56 16,3 C 16,3 C 73 % 1012,6 hPa 0,0 mm 0,1 km/h (0 Bft) NW 311 0 min 0,000 mm 0,0 UV-I 0 W/m 11,4 C 1,6 km/h (1 Bft)
21.07.2016 03:57 16,2 C 16,3 C 74 % 1012,6 hPa 0,0 mm 0,5 km/h (0 Bft) NW 311 0 min 0,000 mm 0,0 UV-I 0 W/m 11,6 C 1,6 km/h (1 Bft)
21.07.2016 03:58 16,2 C 16,2 C 74 % 1012,5 hPa 0,0 mm 0,9 km/h (0 Bft) NW 311 0 min 0,000 mm 0,0 UV-I 0 W/m 11,6 C 1,6 km/h (1 Bft)
21.07.2016 03:59 16,2 C 16,2 C 74 % 1012,5 hPa 0,0 mm 0,2 km/h (0 Bft) NW 311 0 min 0,000 mm 0,0 UV-I 0 W/m 11,6 C 1,6 km/h (1 Bft)
21.07.2016 04:00 16,1 C 16,2 C 74 % 1012,6 hPa 0,0 mm 1,5 km/h (1 Bft) NW 311 0 min 0,000 mm 0,0 UV-I 0 W/m 11,5 C 3,2 km/h (1 Bft)
21.07.2016 04:01 16,1 C 16,1 C 74 % 1012,5 hPa 0,0 mm 0,5 km/h (0 Bft) NW 311 0 min 0,025 mm 0,0 UV-I 0 W/m 11,5 C 1,6 km/h (1 Bft)
21.07.2016 04:02 16,1 C 16,1 C 74 % 1012,5 hPa 0,0 mm 0,6 km/h (0 Bft) NW 311 0 min 0,001 mm 0,0 UV-I 0 W/m 11,5 C 1,6 km/h (1 Bft)
21.07.2016 04:03 16,1 C 16,2 C 74 % 1012,5 hPa 0,0 mm 0,0 km/h (0 Bft) NW 311 0 min 0,000 mm 0,0 UV-I 0 W/m 11,5 C 0,0 km/h (0 Bft)
21.07.2016 04:04 16,1 C 16,2 C 74 % 1012,5 hPa 0,0 mm 0,0 km/h (0 Bft) NW 311 0 min 0,000 mm 0,0 UV-I 0 W/m 11,5 C 0,0 km/h (0 Bft)
21.07.2016 04:05 16,1 C 16,1 C 74 % 1012,4 hPa 0,0 mm 0,0 km/h (0 Bft) NW 311 0 min 0,000 mm 0,0 UV-I 0 W/m 11,5 C 0,0 km/h (0 Bft)
21.07.2016 04:06 16,1 C 16,1 C 74 % 1012,4 hPa 0,0 mm 0,0 km/h (0 Bft) NW 311 0 min 0,000 mm 0,0 UV-I 0 W/m 11,5 C 0,0 km/h (0 Bft)
21.07.2016 04:07 16,1 C 16,1 C 74 % 1012,4 hPa 0,0 mm 0,0 km/h (0 Bft) NW 311 0 min 0,000 mm 0,0 UV-I 0 W/m 11,5 C 0,0 km/h (0 Bft)
21.07.2016 04:08 16,0 C 16,1 C 74 % 1012,4 hPa 0,0 mm 0,3 km/h (0 Bft) NW 311 0 min 0,000 mm 0,0 UV-I 0 W/m 11,4 C 1,6 km/h (1 Bft)
21.07.2016 04:09 16,1 C 16,1 C 75 % 1012,4 hPa 0,0 mm 0,3 km/h (0 Bft) NW 311 0 min 0,000 mm 0,0 UV-I 0 W/m 11,7 C 1,6 km/h (1 Bft)
21.07.2016 04:10 15,9 C 16,1 C 76 % 1012,4 hPa 0,0 mm 0,2 km/h (0 Bft) NW 311 0 min 0,000 mm 0,0 UV-I 0 W/m 11,7 C 1,6 km/h (1 Bft)
21.07.2016 04:11 15,8 C 15,9 C 76 % 1012,4 hPa 0,0 mm 0,6 km/h (0 Bft) NW 311 0 min 0,000 mm 0,0 UV-I 0 W/m 11,6 C 1,6 km/h (1 Bft)
21.07.2016 04:12 15,7 C 15,8 C 77 % 1012,4 hPa 0,0 mm 0,6 km/h (0 Bft) NW 311 0 min 0,000 mm 0,0 UV-I 0 W/m 11,7 C 1,6 km/h (1 Bft)
21.07.2016 04:13 15,6 C 15,7 C 77 % 1012,4 hPa 0,0 mm 1,5 km/h (1 Bft) NW 311 0 min 0,000 mm 0,0 UV-I 0 W/m 11,6 C 3,2 km/h (1 Bft)
21.07.2016 04:14 15,4 C 15,6 C 77 % 1012,3 hPa 0,0 mm 0,5 km/h (0 Bft) NW 311 0 min 0,000 mm 0,0 UV-I 0 W/m 11,4 C 1,6 km/h (1 Bft)
21.07.2016 04:15 15,4 C 15,4 C 77 % 1012,4 hPa 0,0 mm 0,5 km/h (0 Bft) NW 311 0 min 0,000 mm 0,0 UV-I 0 W/m 11,4 C 1,6 km/h (1 Bft)
21.07.2016 04:16 15,3 C 15,4 C 77 % 1012,4 hPa 0,0 mm 0,1 km/h (0 Bft) NW 311 0 min 0,000 mm 0,0 UV-I 0 W/m 11,3 C 1,6 km/h (1 Bft)
21.07.2016 04:17 15,3 C 15,3 C 78 % 1012,4 hPa 0,0 mm 0,1 km/h (0 Bft) NW 311 0 min 0,000 mm 0,0 UV-I 0 W/m 11,5 C 1,6 km/h (1 Bft)
21.07.2016 04:18 15,3 C 15,3 C 77 % 1012,3 hPa 0,0 mm 0,2 km/h (0 Bft) NW 311 0 min 0,000 mm 0,0 UV-I 0 W/m 11,3 C 1,6 km/h (1 Bft)
21.07.2016 04:19 15,3 C 15,3 C 78 % 1012,3 hPa 0,0 mm 0,0 km/h (0 Bft) NW 311 0 min 0,000 mm 0,0 UV-I 0 W/m 11,5 C 0,0 km/h (0 Bft)
21.07.2016 04:20 15,2 C 15,3 C 78 % 1012,3 hPa 0,0 mm 0,0 km/h (0 Bft) NW 311 0 min 0,000 mm 0,0 UV-I 0 W/m 11,4 C 0,0 km/h (0 Bft)
21.07.2016 04:21 15,2 C 15,2 C 78 % 1012,3 hPa 0,0 mm 0,0 km/h (0 Bft) NW 311 0 min 0,000 mm 0,0 UV-I 0 W/m 11,4 C 0,0 km/h (0 Bft)
21.07.2016 04:22 15,2 C 15,2 C 78 % 1012,4 hPa 0,0 mm 0,0 km/h (0 Bft) NW 311 0 min 0,000 mm 0,0 UV-I 0 W/m 11,4 C 0,0 km/h (0 Bft)
21.07.2016 04:23 15,2 C 15,2 C 78 % 1012,3 hPa 0,0 mm 0,0 km/h (0 Bft) NW 311 0 min 0,000 mm 0,0 UV-I 0 W/m 11,4 C 0,0 km/h (0 Bft)
21.07.2016 04:24 15,2 C 15,2 C 77 % 1012,3 hPa 0,0 mm 0,0 km/h (0 Bft) NW 311 0 min 0,000 mm 0,0 UV-I 0 W/m 11,2 C 0,0 km/h (0 Bft)
21.07.2016 04:25 15,3 C 15,3 C 76 % 1012,3 hPa 0,0 mm 1,3 km/h (1 Bft) SW 233 0 min 0,000 mm 0,0 UV-I 0 W/m 11,1 C 3,2 km/h (1 Bft)
21.07.2016 04:26 15,4 C 15,4 C 76 % 1012,3 hPa 0,0 mm 1,4 km/h (1 Bft) SW 233 0 min 0,000 mm 0,0 UV-I 0 W/m 11,2 C 1,6 km/h (1 Bft)
21.07.2016 04:27 15,5 C 15,5 C 76 % 1012,3 hPa 0,0 mm 2,4 km/h (1 Bft) S 190 0 min 0,000 mm 0,0 UV-I 0 W/m 11,3 C 3,2 km/h (1 Bft)
21.07.2016 04:28 15,6 C 15,6 C 75 % 1012,3 hPa 0,0 mm 1,9 km/h (1 Bft) N-NW 343 0 min 0,000 mm 0,0 UV-I 0 W/m 11,2 C 4,8 km/h (1 Bft)
21.07.2016 04:29 15,7 C 15,7 C 76 % 1012,3 hPa 0,0 mm 2,3 km/h (1 Bft) O-NO 68 0 min 0,000 mm 0,0 UV-I 0 W/m 11,5 C 3,2 km/h (1 Bft)
21.07.2016 04:30 15,8 C 15,8 C 75 % 1012,3 hPa 0,0 mm 1,9 km/h (1 Bft) O-NO 68 0 min 0,000 mm 0,0 UV-I 0 W/m 11,4 C 3,2 km/h (1 Bft)
21.07.2016 04:31 15,8 C 15,8 C 75 % 1012,2 hPa 0,0 mm 1,1 km/h (1 Bft) O-NO 68 0 min 0,000 mm 0,0 UV-I 0 W/m 11,4 C 3,2 km/h (1 Bft)
21.07.2016 04:32 15,8 C 15,8 C 75 % 1012,2 hPa 0,0 mm 0,8 km/h (0 Bft) O-NO 68 0 min 0,000 mm 0,0 UV-I 0 W/m 11,4 C 1,6 km/h (1 Bft)
21.07.2016 04:33 15,7 C 15,8 C 75 % 1012,2 hPa 0,0 mm 0,1 km/h (0 Bft) O-NO 68 0 min 0,000 mm 0,0 UV-I 0 W/m 11,3 C 1,6 km/h (1 Bft)
21.07.2016 04:34 15,7 C 15,7 C 75 % 1012,2 hPa 0,0 mm 0,7 km/h (0 Bft) O-NO 68 0 min 0,000 mm 0,0 UV-I 0 W/m 11,3 C 1,6 km/h (1 Bft)
21.07.2016 04:35 15,7 C 15,7 C 74 % 1012,2 hPa 0,0 mm 0,1 km/h (0 Bft) O-NO 68 0 min 0,000 mm 0,0 UV-I 0 W/m 11,1 C 1,6 km/h (1 Bft)
21.07.2016 04:36 15,7 C 15,8 C 76 % 1012,2 hPa 0,0 mm 0,5 km/h (0 Bft) O-NO 68 0 min 0,000 mm 0,0 UV-I 0 W/m 11,5 C 1,6 km/h (1 Bft)
21.07.2016 04:37 15,7 C 15,7 C 75 % 1012,2 hPa 0,0 mm 0,3 km/h (0 Bft) O-NO 68 0 min 0,000 mm 0,0 UV-I 0 W/m 11,3 C 1,6 km/h (1 Bft)
21.07.2016 04:38 15,7 C 15,7 C 75 % 1012,2 hPa 0,0 mm 0,2 km/h (0 Bft) O-NO 68 0 min 0,000 mm 0,0 UV-I 0 W/m 11,3 C 1,6 km/h (1 Bft)
21.07.2016 04:39 15,7 C 15,7 C 75 % 1012,1 hPa 0,0 mm 0,2 km/h (0 Bft) O-NO 68 0 min 0,000 mm 0,0 UV-I 0 W/m 11,3 C 1,6 km/h (1 Bft)
21.07.2016 04:40 15,6 C 15,7 C 75 % 1012,2 hPa 0,0 mm 0,1 km/h (0 Bft) O-NO 68 0 min 0,000 mm 0,0 UV-I 0 W/m 11,2 C 1,6 km/h (1 Bft)
21.07.2016 04:41 15,6 C 15,6 C 75 % 1012,1 hPa 0,0 mm 0,5 km/h (0 Bft) O-NO 68 0 min 0,000 mm 0,0 UV-I 0 W/m 11,2 C 1,6 km/h (1 Bft)
21.07.2016 04:42 15,5 C 15,6 C 75 % 1012,1 hPa 0,0 mm 0,0 km/h (0 Bft) O-NO 68 0 min 0,000 mm 0,0 UV-I 0 W/m 11,1 C 0,0 km/h (0 Bft)
21.07.2016 04:43 15,5 C 15,6 C 75 % 1012,1 hPa 0,0 mm 0,0 km/h (0 Bft) O-NO 68 0 min 0,000 mm 0,0 UV-I 0 W/m 11,1 C 0,0 km/h (0 Bft)
21.07.2016 04:44 15,5 C 15,5 C 76 % 1012,1 hPa 0,0 mm 0,3 km/h (0 Bft) O-NO 68 0 min 0,000 mm 0,0 UV-I 0 W/m 11,3 C 1,6 km/h (1 Bft)
21.07.2016 04:45 15,6 C 15,6 C 76 % 1012,1 hPa 0,0 mm 0,4 km/h (0 Bft) O-NO 68 0 min 0,000 mm 0,0 UV-I 0 W/m 11,4 C 1,6 km/h (1 Bft)
21.07.2016 04:46 15,5 C 15,6 C 76 % 1012,1 hPa 0,0 mm 0,1 km/h (0 Bft) O-NO 68 0 min 0,000 mm 0,0 UV-I 0 W/m 11,3 C 1,6 km/h (1 Bft)
21.07.2016 04:47 15,5 C 15,6 C 76 % 1012,1 hPa 0,0 mm 0,0 km/h (0 Bft) O-NO 68 0 min 0,000 mm 0,0 UV-I 0 W/m 11,3 C 0,0 km/h (0 Bft)
21.07.2016 04:48 15,5 C 15,5 C 77 % 1012,1 hPa 0,0 mm 0,1 km/h (0 Bft) O-NO 68 0 min 0,000 mm 0,0 UV-I 0 W/m 11,5 C 1,6 km/h (1 Bft)
21.07.2016 04:49 15,5 C 15,5 C 77 % 1012,1 hPa 0,0 mm 0,1 km/h (0 Bft) O-NO 68 0 min 0,000 mm 0,0 UV-I 0 W/m 11,5 C 1,6 km/h (1 Bft)
21.07.2016 04:50 15,6 C 15,6 C 77 % 1012,1 hPa 0,0 mm 0,5 km/h (0 Bft) O-NO 68 0 min 0,000 mm 0,0 UV-I 0 W/m 11,6 C 1,6 km/h (1 Bft)
21.07.2016 04:51 15,6 C 15,6 C 76 % 1012,1 hPa 0,0 mm 0,0 km/h (0 Bft) O-NO 68 0 min 0,000 mm 0,0 UV-I 0 W/m 11,4 C 0,0 km/h (0 Bft)
21.07.2016 04:52 15,8 C 15,8 C 76 % 1012,1 hPa 0,0 mm 0,0 km/h (0 Bft) O-NO 68 0 min 0,000 mm 0,0 UV-I 0 W/m 11,6 C 0,0 km/h (0 Bft)
21.07.2016 04:53 15,8 C 15,8 C 76 % 1012,1 hPa 0,0 mm 0,3 km/h (0 Bft) O-NO 68 0 min 0,000 mm 0,0 UV-I 0 W/m 11,6 C 1,6 km/h (1 Bft)
21.07.2016 04:54 15,9 C 15,9 C 76 % 1012,1 hPa 0,0 mm 0,2 km/h (0 Bft) O-NO 68 0 min 0,000 mm 0,0 UV-I 0 W/m 11,7 C 1,6 km/h (1 Bft)
21.07.2016 04:55 15,9 C 15,9 C 76 % 1012,1 hPa 0,0 mm 0,3 km/h (0 Bft) O-NO 68 0 min 0,000 mm 0,0 UV-I 0 W/m 11,7 C 1,6 km/h (1 Bft)
21.07.2016 04:56 15,9 C 15,9 C 76 % 1012,1 hPa 0,0 mm 0,7 km/h (0 Bft) O-NO 68 0 min 0,000 mm 0,0 UV-I 0 W/m 11,7 C 1,6 km/h (1 Bft)
21.07.2016 04:57 15,9 C 15,9 C 76 % 1012,1 hPa 0,0 mm 0,0 km/h (0 Bft) O-NO 68 0 min 0,000 mm 0,0 UV-I 0 W/m 11,7 C 0,0 km/h (0 Bft)
21.07.2016 04:58 15,8 C 15,9 C 77 % 1012,1 hPa 0,0 mm 0,5 km/h (0 Bft) O-NO 68 0 min 0,000 mm 0,0 UV-I 0 W/m 11,8 C 1,6 km/h (1 Bft)
21.07.2016 04:59 15,8 C 15,8 C 77 % 1012,1 hPa 0,0 mm 0,7 km/h (0 Bft) O-NO 68 0 min 0,000 mm 0,0 UV-I 0 W/m 11,8 C 1,6 km/h (1 Bft)
21.07.2016 05:00 15,7 C 15,8 C 77 % 1012,1 hPa 0,0 mm 0,0 km/h (0 Bft) O-NO 68 0 min 0,025 mm 0,0 UV-I 0 W/m 11,7 C 0,0 km/h (0 Bft)
21.07.2016 05:01 15,7 C 15,7 C 77 % 1012,1 hPa 0,0 mm 0,0 km/h (0 Bft) O-NO 68 0 min 0,000 mm 0,0 UV-I 0 W/m 11,7 C 0,0 km/h (0 Bft)
21.07.2016 05:02 15,7 C 15,7 C 77 % 1012,0 hPa 0,0 mm 0,1 km/h (0 Bft) O-NO 68 0 min 0,000 mm 0,0 UV-I 0 W/m 11,7 C 1,6 km/h (1 Bft)
21.07.2016 05:03 15,7 C 15,7 C 77 % 1012,0 hPa 0,0 mm 0,1 km/h (0 Bft) O-NO 68 0 min 0,000 mm 0,0 UV-I 0 W/m 11,7 C 1,6 km/h (1 Bft)
21.07.2016 05:04 15,6 C 15,7 C 77 % 1012,0 hPa 0,0 mm 0,0 km/h (0 Bft) O-NO 68 0 min 0,000 mm 0,0 UV-I 0 W/m 11,6 C 0,0 km/h (0 Bft)
21.07.2016 05:05 15,7 C 15,7 C 77 % 1012,0 hPa 0,0 mm 0,1 km/h (0 Bft) O-NO 68 0 min 0,000 mm 0,0 UV-I 0 W/m 11,7 C 1,6 km/h (1 Bft)
21.07.2016 05:06 15,7 C 15,7 C 76 % 1012,0 hPa 0,0 mm 0,0 km/h (0 Bft) O-NO 68 0 min 0,000 mm 0,0 UV-I 0 W/m 11,5 C 0,0 km/h (0 Bft)
21.07.2016 05:07 15,7 C 15,7 C 76 % 1012,0 hPa 0,0 mm 0,0 km/h (0 Bft) O-NO 68 0 min 0,000 mm 0,0 UV-I 0 W/m 11,5 C 0,0 km/h (0 Bft)
21.07.2016 05:08 15,7 C 15,7 C 76 % 1012,0 hPa 0,0 mm 0,0 km/h (0 Bft) O-NO 68 0 min 0,000 mm 0,0 UV-I 0 W/m 11,5 C 0,0 km/h (0 Bft)
21.07.2016 05:09 15,6 C 15,7 C 77 % 1012,0 hPa 0,0 mm 0,0 km/h (0 Bft) O-NO 68 0 min 0,000 mm 0,0 UV-I 0 W/m 11,6 C 0,0 km/h (0 Bft)
21.07.2016 05:10 15,6 C 15,6 C 77 % 1012,0 hPa 0,0 mm 0,0 km/h (0 Bft) O-NO 68 0 min 0,000 mm 0,0 UV-I 0 W/m 11,6 C 0,0 km/h (0 Bft)
21.07.2016 05:11 15,5 C 15,6 C 77 % 1012,0 hPa 0,0 mm 0,0 km/h (0 Bft) O-NO 68 0 min 0,000 mm 0,0 UV-I 0 W/m 11,5 C 0,0 km/h (0 Bft)
21.07.2016 05:12 15,5 C 15,5 C 77 % 1011,9 hPa 0,0 mm 0,0 km/h (0 Bft) O-NO 68 0 min 0,000 mm 0,0 UV-I 0 W/m 11,5 C 0,0 km/h (0 Bft)
21.07.2016 05:13 15,5 C 15,5 C 77 % 1011,9 hPa 0,0 mm 0,0 km/h (0 Bft) O-NO 68 0 min 0,000 mm 0,0 UV-I 0 W/m 11,5 C 0,0 km/h (0 Bft)
21.07.2016 05:14 15,6 C 15,6 C 77 % 1011,9 hPa 0,0 mm 0,0 km/h (0 Bft) O-NO 68 0 min 0,000 mm 0,0 UV-I 0 W/m 11,6 C 0,0 km/h (0 Bft)
21.07.2016 05:15 15,6 C 15,6 C 77 % 1011,9 hPa 0,0 mm 0,0 km/h (0 Bft) O-NO 68 0 min 0,000 mm 0,0 UV-I 0 W/m 11,6 C 0,0 km/h (0 Bft)
21.07.2016 05:16 15,5 C 15,6 C 76 % 1012,0 hPa 0,0 mm 0,0 km/h (0 Bft) O-NO 68 0 min 0,000 mm 0,0 UV-I 0 W/m 11,3 C 0,0 km/h (0 Bft)
21.07.2016 05:17 15,5 C 15,5 C 77 % 1011,9 hPa 0,0 mm 0,0 km/h (0 Bft) O-NO 68 0 min 0,000 mm 0,0 UV-I 0 W/m 11,5 C 0,0 km/h (0 Bft)
21.07.2016 05:18 15,5 C 15,5 C 77 % 1012,0 hPa 0,0 mm 0,0 km/h (0 Bft) O-NO 68 0 min 0,000 mm 0,0 UV-I 0 W/m 11,5 C 0,0 km/h (0 Bft)
21.07.2016 05:19 15,4 C 15,5 C 77 % 1011,9 hPa 0,0 mm 0,0 km/h (0 Bft) O-NO 68 0 min 0,000 mm 0,0 UV-I 0 W/m 11,4 C 0,0 km/h (0 Bft)
21.07.2016 05:20 15,4 C 15,5 C 77 % 1011,9 hPa 0,0 mm 0,0 km/h (0 Bft) O-NO 68 0 min 0,000 mm 0,0 UV-I 0 W/m 11,4 C 0,0 km/h (0 Bft)
21.07.2016 05:21 15,4 C 15,4 C 77 % 1011,9 hPa 0,0 mm 0,0 km/h (0 Bft) O-NO 68 0 min 0,000 mm 0,0 UV-I 0 W/m 11,4 C 0,0 km/h (0 Bft)
21.07.2016 05:22 15,4 C 15,4 C 78 % 1011,9 hPa 0,0 mm 0,0 km/h (0 Bft) O-NO 68 0 min 0,000 mm 0,0 UV-I 0 W/m 11,6 C 0,0 km/h (0 Bft)
21.07.2016 05:23 15,4 C 15,4 C 78 % 1011,9 hPa 0,0 mm 0,0 km/h (0 Bft) O-NO 68 0 min 0,000 mm 0,0 UV-I 0 W/m 11,6 C 0,0 km/h (0 Bft)
21.07.2016 05:24 15,4 C 15,4 C 78 % 1011,9 hPa 0,0 mm 0,0 km/h (0 Bft) O-NO 68 0 min 0,000 mm 0,0 UV-I 0 W/m 11,6 C 0,0 km/h (0 Bft)
21.07.2016 05:25 15,4 C 15,4 C 77 % 1011,9 hPa 0,0 mm 0,0 km/h (0 Bft) O-NO 68 0 min 0,000 mm 0,0 UV-I 0 W/m 11,4 C 0,0 km/h (0 Bft)
21.07.2016 05:26 15,4 C 15,4 C 77 % 1011,9 hPa 0,0 mm 0,3 km/h (0 Bft) NO 40 0 min 0,000 mm 0,0 UV-I 0 W/m 11,4 C 3,2 km/h (1 Bft)
21.07.2016 05:27 15,4 C 15,4 C 78 % 1011,9 hPa 0,0 mm 1,4 km/h (1 Bft) NO 40 0 min 0,000 mm 0,0 UV-I 0 W/m 11,6 C 1,6 km/h (1 Bft)
21.07.2016 05:28 15,6 C 15,6 C 78 % 1012,0 hPa 0,0 mm 2,7 km/h (1 Bft) N-NW 333 0 min 0,000 mm 0,0 UV-I 0 W/m 11,8 C 4,8 km/h (1 Bft)
21.07.2016 05:29 15,5 C 15,6 C 78 % 1011,9 hPa 0,0 mm 0,5 km/h (0 Bft) N-NW 333 0 min 0,000 mm 0,0 UV-I 0 W/m 11,7 C 3,2 km/h (1 Bft)
21.07.2016 05:30 15,6 C 15,6 C 78 % 1011,9 hPa 0,0 mm 0,0 km/h (0 Bft) N-NW 333 0 min 0,000 mm 0,0 UV-I 0 W/m 11,8 C 0,0 km/h (0 Bft)
21.07.2016 05:31 15,6 C 15,6 C 78 % 1011,9 hPa 0,0 mm 0,6 km/h (0 Bft) N-NW 333 0 min 0,000 mm 0,0 UV-I 0 W/m 11,8 C 1,6 km/h (1 Bft)
21.07.2016 05:32 15,6 C 15,6 C 77 % 1011,9 hPa 0,0 mm 0,9 km/h (0 Bft) N-NW 333 0 min 0,000 mm 0,0 UV-I 0 W/m 11,6 C 1,6 km/h (1 Bft)
21.07.2016 05:33 15,6 C 15,7 C 78 % 1011,9 hPa 0,0 mm 0,6 km/h (0 Bft) N-NW 333 0 min 0,000 mm 0,0 UV-I 0 W/m 11,8 C 1,6 km/h (1 Bft)
21.07.2016 05:34 15,6 C 15,6 C 79 % 1011,9 hPa 0,0 mm 0,3 km/h (0 Bft) N-NW 333 0 min 0,000 mm 0,0 UV-I 0 W/m 12,0 C 1,6 km/h (1 Bft)
21.07.2016 05:35 15,6 C 15,6 C 78 % 1011,9 hPa 0,0 mm 0,2 km/h (0 Bft) N-NW 333 0 min 0,000 mm 0,0 UV-I 0 W/m 11,8 C 1,6 km/h (1 Bft)
21.07.2016 05:36 15,6 C 15,6 C 77 % 1011,9 hPa 0,0 mm 0,1 km/h (0 Bft) N-NW 333 0 min 0,000 mm 0,0 UV-I 0 W/m 11,6 C 1,6 km/h (1 Bft)
21.07.2016 05:37 15,6 C 15,6 C 77 % 1011,9 hPa 0,0 mm 0,0 km/h (0 Bft) N-NW 333 0 min 0,000 mm 0,0 UV-I 0 W/m 11,6 C 0,0 km/h (0 Bft)
21.07.2016 05:38 15,7 C 15,7 C 77 % 1011,9 hPa 0,0 mm 0,0 km/h (0 Bft) N-NW 333 0 min 0,000 mm 0,0 UV-I 5 W/m 11,7 C 0,0 km/h (0 Bft)
21.07.2016 05:39 15,7 C 15,7 C 77 % 1011,9 hPa 0,0 mm 0,0 km/h (0 Bft) N-NW 333 0 min 0,000 mm 0,0 UV-I 5 W/m 11,7 C 0,0 km/h (0 Bft)
21.07.2016 05:40 15,8 C 15,8 C 76 % 1011,9 hPa 0,0 mm 0,0 km/h (0 Bft) N-NW 333 0 min 0,000 mm 0,0 UV-I 5 W/m 11,6 C 0,0 km/h (0 Bft)
21.07.2016 05:41 15,9 C 15,9 C 76 % 1011,9 hPa 0,0 mm 1,1 km/h (1 Bft) N-NW 333 0 min 0,000 mm 0,0 UV-I 5 W/m 11,7 C 3,2 km/h (1 Bft)
21.07.2016 05:42 15,9 C 15,9 C 78 % 1012,0 hPa 0,0 mm 0,6 km/h (0 Bft) N-NW 333 0 min 0,000 mm 0,0 UV-I 5 W/m 12,1 C 1,6 km/h (1 Bft)
21.07.2016 05:43 15,9 C 15,9 C 77 % 1012,0 hPa 0,0 mm 0,1 km/h (0 Bft) N-NW 333 0 min 0,000 mm 0,0 UV-I 7 W/m 11,9 C 1,6 km/h (1 Bft)
21.07.2016 05:44 15,9 C 15,9 C 78 % 1011,9 hPa 0,0 mm 0,1 km/h (0 Bft) N-NW 333 0 min 0,000 mm 0,0 UV-I 7 W/m 12,1 C 1,6 km/h (1 Bft)
21.07.2016 05:45 15,9 C 15,9 C 78 % 1012,0 hPa 0,0 mm 0,2 km/h (0 Bft) N-NW 333 0 min 0,000 mm 0,0 UV-I 7 W/m 12,1 C 1,6 km/h (1 Bft)
21.07.2016 05:46 15,9 C 15,9 C 77 % 1012,0 hPa 0,0 mm 0,1 km/h (0 Bft) N-NW 333 0 min 0,000 mm 0,0 UV-I 7 W/m 11,9 C 1,6 km/h (1 Bft)
21.07.2016 05:47 15,9 C 15,9 C 75 % 1012,0 hPa 0,0 mm 0,1 km/h (0 Bft) N-NW 333 0 min 0,000 mm 0,0 UV-I 7 W/m 11,5 C 1,6 km/h (1 Bft)
21.07.2016 05:48 16,0 C 16,0 C 75 % 1012,0 hPa 0,0 mm 0,1 km/h (0 Bft) N-NW 333 0 min 0,000 mm 0,0 UV-I 9 W/m 11,6 C 1,6 km/h (1 Bft)
21.07.2016 05:49 16,2 C 16,2 C 74 % 1012,0 hPa 0,0 mm 0,0 km/h (0 Bft) N-NW 333 0 min 0,000 mm 0,0 UV-I 9 W/m 11,6 C 0,0 km/h (0 Bft)
21.07.2016 05:50 16,2 C 16,2 C 74 % 1012,0 hPa 0,0 mm 0,2 km/h (0 Bft) N-NW 333 0 min 0,000 mm 0,0 UV-I 9 W/m 11,6 C 1,6 km/h (1 Bft)
21.07.2016 05:51 16,3 C 16,3 C 78 % 1012,1 hPa 0,0 mm 0,0 km/h (0 Bft) N-NW 333 0 min 0,000 mm 0,0 UV-I 9 W/m 12,5 C 0,0 km/h (0 Bft)
21.07.2016 05:52 16,2 C 16,3 C 75 % 1012,1 hPa 0,0 mm 0,1 km/h (0 Bft) N-NW 333 1 min 0,000 mm 0,0 UV-I 9 W/m 11,8 C 1,6 km/h (1 Bft)
21.07.2016 05:53 16,2 C 16,3 C 76 % 1012,1 hPa 0,0 mm 0,7 km/h (0 Bft) N-NW 333 0 min 0,000 mm 0,0 UV-I 9 W/m 12,0 C 1,6 km/h (1 Bft)
21.07.2016 05:54 16,2 C 16,3 C 76 % 1012,1 hPa 0,0 mm 0,1 km/h (0 Bft) N-NW 333 0 min 0,000 mm 0,0 UV-I 9 W/m 12,0 C 1,6 km/h (1 Bft)
21.07.2016 05:55 16,2 C 16,3 C 76 % 1012,2 hPa 0,0 mm 0,4 km/h (0 Bft) N-NW 333 0 min 0,000 mm 0,0 UV-I 9 W/m 12,0 C 1,6 km/h (1 Bft)
21.07.2016 05:56 16,2 C 16,3 C 77 % 1012,2 hPa 0,0 mm 0,0 km/h (0 Bft) N-NW 333 0 min 0,000 mm 0,0 UV-I 9 W/m 12,2 C 0,0 km/h (0 Bft)
21.07.2016 05:57 16,2 C 16,2 C 77 % 1012,3 hPa 0,0 mm 0,0 km/h (0 Bft) N-NW 333 0 min 0,000 mm 0,0 UV-I 9 W/m 12,2 C 0,0 km/h (0 Bft)
21.07.2016 05:58 16,2 C 16,2 C 76 % 1012,3 hPa 0,0 mm 0,0 km/h (0 Bft) N-NW 333 0 min 0,000 mm 0,0 UV-I 9 W/m 12,0 C 0,0 km/h (0 Bft)
21.07.2016 05:59 16,2 C 16,2 C 75 % 1012,3 hPa 0,0 mm 0,0 km/h (0 Bft) N-NW 333 0 min 0,000 mm 0,0 UV-I 9 W/m 11,8 C 0,0 km/h (0 Bft)
21.07.2016 06:00 16,3 C 16,3 C 77 % 1012,4 hPa 0,0 mm 0,0 km/h (0 Bft) N-NW 333 0 min 0,000 mm 0,0 UV-I 9 W/m 12,3 C 0,0 km/h (0 Bft)
21.07.2016 06:01 16,3 C 16,3 C 75 % 1012,5 hPa 0,0 mm 0,0 km/h (0 Bft) N-NW 333 0 min 0,000 mm 0,0 UV-I 9 W/m 11,9 C 0,0 km/h (0 Bft)
21.07.2016 06:02 16,3 C 16,3 C 75 % 1013,0 hPa 0,0 mm 2,6 km/h (1 Bft) W 277 0 min 0,000 mm 0,0 UV-I 9 W/m 11,9 C 4,8 km/h (1 Bft)
21.07.2016 06:03 16,3 C 16,3 C 77 % 1013,0 hPa 0,0 mm 7,8 km/h (2 Bft) W 277 0 min 0,000 mm 0,0 UV-I 9 W/m 12,3 C 11,3 km/h (2 Bft)
21.07.2016 06:04 16,3 C 16,3 C 74 % 1013,6 hPa 0,0 mm 10,7 km/h (2 Bft) W-SW 245 0 min 0,000 mm 0,0 UV-I 9 W/m 11,7 C 17,7 km/h (3 Bft)
21.07.2016 06:05 16,5 C 16,5 C 74 % 1013,4 hPa 0,0 mm 5,0 km/h (1 Bft) S-SO 151 0 min 0,000 mm 0,0 UV-I 9 W/m 11,8 C 9,7 km/h (2 Bft)
21.07.2016 06:06 16,7 C 16,7 C 72 % 1013,4 hPa 0,0 mm 10,6 km/h (2 Bft) W-SW 238 0 min 0,000 mm 0,0 UV-I 9 W/m 11,6 C 27,4 km/h (4 Bft)
21.07.2016 06:07 16,9 C 16,9 C 72 % 1013,5 hPa 0,0 mm 12,8 km/h (3 Bft) SW 230 0 min 0,000 mm 0,0 UV-I 9 W/m 11,8 C 24,1 km/h (4 Bft)
21.07.2016 06:08 17,2 C 17,2 C 70 % 1013,5 hPa 0,0 mm 14,6 km/h (3 Bft) W-SW 251 0 min 0,000 mm 0,0 UV-I 9 W/m 11,7 C 19,3 km/h (3 Bft)
21.07.2016 06:09 17,6 C 17,6 C 69 % 1013,5 hPa 0,0 mm 5,0 km/h (1 Bft) S-SW 192 0 min 0,000 mm 0,0 UV-I 11 W/m 11,8 C 11,3 km/h (2 Bft)
21.07.2016 06:10 17,9 C 17,9 C 66 % 1013,5 hPa 0,0 mm 9,7 km/h (2 Bft) W-NW 291 0 min 0,000 mm 0,0 UV-I 11 W/m 11,5 C 16,1 km/h (3 Bft)
21.07.2016 06:11 18,3 C 18,3 C 66 % 1013,4 hPa 0,0 mm 9,9 km/h (2 Bft) W-NW 295 0 min 0,000 mm 0,0 UV-I 11 W/m 11,8 C 17,7 km/h (3 Bft)
21.07.2016 06:12 18,4 C 18,4 C 65 % 1013,4 hPa 0,0 mm 10,7 km/h (2 Bft) SW 225 0 min 0,000 mm 0,0 UV-I 11 W/m 11,7 C 22,5 km/h (4 Bft)
21.07.2016 06:13 18,6 C 18,6 C 65 % 1013,5 hPa 0,0 mm 11,8 km/h (2 Bft) W 259 0 min 0,000 mm 0,0 UV-I 11 W/m 11,9 C 19,3 km/h (3 Bft)
21.07.2016 06:14 18,8 C 18,8 C 63 % 1013,5 hPa 0,0 mm 10,6 km/h (2 Bft) W-SW 258 0 min 0,000 mm 0,0 UV-I 11 W/m 11,6 C 17,7 km/h (3 Bft)
21.07.2016 06:15 18,8 C 18,8 C 63 % 1013,5 hPa 0,0 mm 12,0 km/h (2 Bft) W-SW 246 0 min 0,000 mm 0,0 UV-I 11 W/m 11,6 C 17,7 km/h (3 Bft)
21.07.2016 06:16 18,9 C 18,9 C 63 % 1013,5 hPa 0,0 mm 10,6 km/h (2 Bft) W 275 0 min 0,000 mm 0,0 UV-I 11 W/m 11,7 C 16,1 km/h (3 Bft)
21.07.2016 06:17 19,0 C 19,0 C 63 % 1013,5 hPa 0,0 mm 11,0 km/h (2 Bft) W 262 0 min 0,000 mm 0,0 UV-I 11 W/m 11,8 C 19,3 km/h (3 Bft)
21.07.2016 06:18 18,9 C 19,0 C 63 % 1013,5 hPa 0,0 mm 14,1 km/h (3 Bft) W-SW 251 0 min 0,000 mm 0,0 UV-I 11 W/m 11,7 C 19,3 km/h (3 Bft)
21.07.2016 06:19 18,9 C 19,0 C 63 % 1013,6 hPa 0,0 mm 16,7 km/h (3 Bft) W-NW 284 0 min 0,000 mm 0,0 UV-I 11 W/m 11,7 C 20,9 km/h (4 Bft)
21.07.2016 06:20 19,1 C 19,1 C 63 % 1013,5 hPa 0,0 mm 17,8 km/h (3 Bft) W 263 0 min 0,000 mm 0,0 UV-I 11 W/m 11,9 C 32,2 km/h (5 Bft)
21.07.2016 06:21 19,1 C 19,1 C 64 % 1013,5 hPa 0,0 mm 14,8 km/h (3 Bft) W-NW 292 0 min 0,000 mm 0,0 UV-I 11 W/m 12,1 C 24,1 km/h (4 Bft)
21.07.2016 06:22 19,1 C 19,1 C 64 % 1013,5 hPa 0,0 mm 9,9 km/h (2 Bft) W-NW 286 0 min 0,000 mm 0,0 UV-I 11 W/m 12,1 C 12,9 km/h (3 Bft)
21.07.2016 06:23 19,1 C 19,1 C 63 % 1013,6 hPa 0,0 mm 12,4 km/h (3 Bft) W 261 0 min 0,000 mm 0,0 UV-I 11 W/m 11,9 C 20,9 km/h (4 Bft)
21.07.2016 06:24 19,2 C 19,2 C 63 % 1013,6 hPa 0,0 mm 17,2 km/h (3 Bft) W 262 0 min 0,000 mm 0,0 UV-I 11 W/m 12,0 C 25,7 km/h (4 Bft)
21.07.2016 06:25 19,3 C 19,3 C 64 % 1013,6 hPa 0,0 mm 12,5 km/h (3 Bft) W 281 0 min 0,000 mm 0,0 UV-I 11 W/m 12,3 C 19,3 km/h (3 Bft)
21.07.2016 06:26 19,3 C 19,3 C 64 % 1013,6 hPa 0,0 mm 14,9 km/h (3 Bft) W 267 0 min 0,000 mm 0,0 UV-I 12 W/m 12,3 C 29,0 km/h (5 Bft)
21.07.2016 06:27 19,3 C 19,4 C 63 % 1013,6 hPa 0,0 mm 16,8 km/h (3 Bft) W-SW 254 0 min 0,000 mm 0,0 UV-I 12 W/m 12,1 C 20,9 km/h (4 Bft)
21.07.2016 06:28 19,4 C 19,4 C 63 % 1013,6 hPa 0,0 mm 18,4 km/h (3 Bft) W 277 0 min 0,000 mm 0,0 UV-I 14 W/m 12,2 C 32,2 km/h (5 Bft)
21.07.2016 06:29 19,5 C 19,5 C 63 % 1013,6 hPa 0,0 mm 14,5 km/h (3 Bft) W 259 0 min 0,000 mm 0,0 UV-I 16 W/m 12,3 C 19,3 km/h (3 Bft)
21.07.2016 06:30 19,6 C 19,6 C 64 % 1013,7 hPa 0,0 mm 20,5 km/h (4 Bft) W 269 0 min 0,000 mm 0,0 UV-I 21 W/m 12,6 C 27,4 km/h (4 Bft)
21.07.2016 06:31 19,7 C 19,7 C 63 % 1013,7 hPa 0,0 mm 16,0 km/h (3 Bft) W-NW 296 0 min 0,000 mm 0,0 UV-I 25 W/m 12,5 C 20,9 km/h (4 Bft)
21.07.2016 06:32 19,7 C 19,7 C 64 % 1013,7 hPa 0,0 mm 15,0 km/h (3 Bft) W 261 0 min 0,000 mm 0,0 UV-I 28 W/m 12,7 C 20,9 km/h (4 Bft)
21.07.2016 06:33 19,8 C 19,8 C 64 % 1013,7 hPa 0,0 mm 17,7 km/h (3 Bft) W-SW 243 0 min 0,000 mm 0,0 UV-I 32 W/m 12,8 C 25,7 km/h (4 Bft)
21.07.2016 06:34 19,8 C 19,8 C 64 % 1013,7 hPa 0,0 mm 15,6 km/h (3 Bft) W-NW 287 0 min 0,000 mm 0,0 UV-I 37 W/m 12,8 C 25,7 km/h (4 Bft)
21.07.2016 06:35 19,8 C 19,8 C 64 % 1013,7 hPa 0,0 mm 17,1 km/h (3 Bft) W 259 0 min 0,000 mm 0,0 UV-I 40 W/m 12,8 C 25,7 km/h (4 Bft)
21.07.2016 06:36 19,9 C 19,9 C 64 % 1013,7 hPa 0,0 mm 18,0 km/h (3 Bft) W 276 0 min 0,000 mm 0,0 UV-I 49 W/m 12,9 C 27,4 km/h (4 Bft)
21.07.2016 06:37 20,0 C 20,0 C 64 % 1013,7 hPa 0,0 mm 19,8 km/h (3 Bft) W-SW 250 0 min 0,000 mm 0,0 UV-I 54 W/m 13,0 C 29,0 km/h (5 Bft)
21.07.2016 06:38 20,1 C 20,1 C 64 % 1013,8 hPa 0,0 mm 22,0 km/h (4 Bft) W-SW 256 0 min 0,000 mm 0,0 UV-I 58 W/m 13,1 C 30,6 km/h (5 Bft)
21.07.2016 06:39 20,1 C 20,1 C 65 % 1013,9 hPa 0,0 mm 22,1 km/h (4 Bft) W 279 0 min 0,000 mm 0,0 UV-I 60 W/m 13,3 C 29,0 km/h (5 Bft)
21.07.2016 06:40 20,2 C 20,2 C 65 % 1013,9 hPa 0,0 mm 18,3 km/h (3 Bft) SW 222 0 min 0,000 mm 0,0 UV-I 63 W/m 13,4 C 24,1 km/h (4 Bft)
21.07.2016 06:41 20,2 C 20,2 C 65 % 1013,9 hPa 0,0 mm 20,2 km/h (4 Bft) W-NW 292 0 min 0,000 mm 0,0 UV-I 69 W/m 13,4 C 30,6 km/h (5 Bft)
21.07.2016 06:42 20,2 C 20,3 C 65 % 1014,0 hPa 0,0 mm 18,5 km/h (3 Bft) W 259 0 min 0,000 mm 0,0 UV-I 72 W/m 13,4 C 40,2 km/h (6 Bft)
21.07.2016 06:43 20,3 C 20,3 C 65 % 1014,0 hPa 0,0 mm 18,3 km/h (3 Bft) W 275 0 min 0,000 mm 0,0 UV-I 76 W/m 13,5 C 24,1 km/h (4 Bft)
21.07.2016 06:44 20,4 C 20,4 C 66 % 1014,0 hPa 0,0 mm 17,6 km/h (3 Bft) W 278 0 min 0,000 mm 0,0 UV-I 79 W/m 13,8 C 30,6 km/h (5 Bft)
21.07.2016 06:45 20,4 C 20,4 C 66 % 1013,9 hPa 0,0 mm 18,6 km/h (3 Bft) W 267 0 min 0,000 mm 0,0 UV-I 79 W/m 13,8 C 27,4 km/h (4 Bft)
21.07.2016 06:46 20,4 C 20,4 C 66 % 1014,0 hPa 0,0 mm 23,7 km/h (4 Bft) W 275 0 min 0,000 mm 0,0 UV-I 83 W/m 13,8 C 33,8 km/h (5 Bft)
21.07.2016 06:47 20,4 C 20,4 C 67 % 1014,0 hPa 0,0 mm 21,7 km/h (4 Bft) W 279 0 min 0,000 mm 0,0 UV-I 77 W/m 14,1 C 29,0 km/h (5 Bft)
21.07.2016 06:48 20,4 C 20,5 C 67 % 1014,0 hPa 0,0 mm 20,5 km/h (4 Bft) SW 234 0 min 0,000 mm 0,0 UV-I 69 W/m 14,1 C 33,8 km/h (5 Bft)
21.07.2016 06:49 20,5 C 20,5 C 67 % 1014,0 hPa 0,0 mm 16,3 km/h (3 Bft) W-SW 240 0 min 0,000 mm 0,0 UV-I 65 W/m 14,2 C 32,2 km/h (5 Bft)
21.07.2016 06:50 20,5 C 20,5 C 67 % 1014,1 hPa 0,0 mm 24,8 km/h (4 Bft) W 279 0 min 0,000 mm 0,0 UV-I 60 W/m 14,2 C 38,6 km/h (5 Bft)
21.07.2016 06:51 20,5 C 20,5 C 67 % 1014,0 hPa 0,0 mm 18,5 km/h (3 Bft) W-SW 238 0 min 0,000 mm 0,0 UV-I 56 W/m 14,2 C 27,4 km/h (4 Bft)
21.07.2016 06:52 20,5 C 20,5 C 67 % 1014,0 hPa 0,0 mm 17,4 km/h (3 Bft) W-NW 284 0 min 0,000 mm 0,0 UV-I 53 W/m 14,2 C 27,4 km/h (4 Bft)
21.07.2016 06:53 20,5 C 20,5 C 67 % 1014,2 hPa 0,0 mm 15,2 km/h (3 Bft) W-NW 282 0 min 0,000 mm 0,0 UV-I 51 W/m 14,2 C 25,7 km/h (4 Bft)
21.07.2016 06:54 20,4 C 20,5 C 67 % 1014,1 hPa 0,0 mm 21,6 km/h (4 Bft) W 269 0 min 0,000 mm 0,0 UV-I 47 W/m 14,1 C 33,8 km/h (5 Bft)
21.07.2016 06:55 20,4 C 20,4 C 68 % 1014,1 hPa 0,0 mm 21,5 km/h (4 Bft) W-SW 242 0 min 0,000 mm 0,0 UV-I 46 W/m 14,3 C 30,6 km/h (5 Bft)
21.07.2016 06:56 20,4 C 20,4 C 68 % 1014,2 hPa 0,0 mm 18,1 km/h (3 Bft) W-SW 253 0 min 0,000 mm 0,0 UV-I 42 W/m 14,3 C 22,5 km/h (4 Bft)
21.07.2016 06:57 20,4 C 20,4 C 69 % 1014,2 hPa 0,0 mm 17,5 km/h (3 Bft) W-NW 294 0 min 0,000 mm 0,0 UV-I 40 W/m 14,5 C 25,7 km/h (4 Bft)
21.07.2016 06:58 20,4 C 20,4 C 69 % 1014,2 hPa 0,0 mm 23,4 km/h (4 Bft) W 280 0 min 0,000 mm 0,0 UV-I 44 W/m 14,5 C 27,4 km/h (4 Bft)
21.07.2016 06:59 20,3 C 20,4 C 69 % 1014,2 hPa 0,0 mm 16,8 km/h (3 Bft) W 261 0 min 0,000 mm 0,0 UV-I 39 W/m 14,4 C 27,4 km/h (4 Bft)
21.07.2016 07:00 20,3 C 20,3 C 69 % 1014,2 hPa 0,0 mm 9,0 km/h (2 Bft) W 277 0 min 0,000 mm 0,0 UV-I 35 W/m 14,4 C 19,3 km/h (3 Bft)
21.07.2016 07:01 20,3 C 20,3 C 70 % 1014,2 hPa 0,0 mm 21,9 km/h (4 Bft) W 262 0 min 0,102 mm 0,0 UV-I 33 W/m 14,6 C 37,0 km/h (5 Bft)
21.07.2016 07:02 20,2 C 20,3 C 70 % 1014,2 hPa 0,0 mm 15,4 km/h (3 Bft) SW 235 0 min 0,000 mm 0,0 UV-I 32 W/m 14,5 C 32,2 km/h (5 Bft)
21.07.2016 07:03 20,3 C 20,3 C 70 % 1014,3 hPa 0,0 mm 26,2 km/h (4 Bft) W-NW 299 0 min 0,000 mm 0,0 UV-I 30 W/m 14,6 C 35,4 km/h (5 Bft)
21.07.2016 07:04 20,2 C 20,3 C 71 % 1014,2 hPa 0,0 mm 21,0 km/h (4 Bft) W-SW 258 0 min 0,000 mm 0,0 UV-I 28 W/m 14,8 C 35,4 km/h (5 Bft)
21.07.2016 07:05 20,2 C 20,2 C 71 % 1014,3 hPa 0,0 mm 22,3 km/h (4 Bft) W-SW 256 0 min 0,000 mm 0,0 UV-I 25 W/m 14,8 C 35,4 km/h (5 Bft)
21.07.2016 07:06 20,2 C 20,2 C 71 % 1014,4 hPa 0,0 mm 16,7 km/h (3 Bft) W 259 0 min 0,000 mm 0,0 UV-I 23 W/m 14,8 C 29,0 km/h (5 Bft)
21.07.2016 07:07 20,2 C 20,2 C 71 % 1014,6 hPa 0,0 mm 25,8 km/h (4 Bft) W-SW 246 0 min 0,000 mm 0,0 UV-I 19 W/m 14,8 C 41,8 km/h (6 Bft)
21.07.2016 07:08 20,1 C 20,2 C 71 % 1014,6 hPa 0,0 mm 26,9 km/h (4 Bft) W 276 0 min 0,000 mm 0,0 UV-I 18 W/m 14,7 C 38,6 km/h (5 Bft)
21.07.2016 07:10 20,1 C 20,1 C 72 % 1014,4 hPa 0,0 mm 19,6 km/h (3 Bft) W 259 0 min 0,000 mm 0,0 UV-I 12 W/m 14,9 C 32,2 km/h (5 Bft)
21.07.2016 07:11 20,0 C 20,1 C 72 % 1014,4 hPa 0,0 mm 23,9 km/h (4 Bft) W-NW 288 0 min 0,000 mm 0,0 UV-I 12 W/m 14,8 C 37,0 km/h (5 Bft)
21.07.2016 07:12 19,9 C 20,0 C 73 % 1014,4 hPa 0,0 mm 26,9 km/h (4 Bft) W-SW 257 0 min 0,000 mm 0,0 UV-I 12 W/m 14,9 C 33,8 km/h (5 Bft)
21.07.2016 07:13 19,9 C 20,0 C 73 % 1014,3 hPa 0,0 mm 20,0 km/h (4 Bft) W-SW 247 0 min 0,000 mm 0,0 UV-I 12 W/m 14,9 C 32,2 km/h (5 Bft)
21.07.2016 07:14 19,9 C 19,9 C 73 % 1014,3 hPa 0,0 mm 15,8 km/h (3 Bft) W 267 0 min 0,000 mm 0,0 UV-I 12 W/m 14,9 C 30,6 km/h (5 Bft)
21.07.2016 07:15 19,8 C 19,9 C 73 % 1014,4 hPa 0,0 mm 15,6 km/h (3 Bft) W-SW 244 0 min 0,000 mm 0,0 UV-I 12 W/m 14,8 C 24,1 km/h (4 Bft)
21.07.2016 07:16 19,8 C 19,9 C 73 % 1014,4 hPa 0,0 mm 16,2 km/h (3 Bft) W 266 0 min 0,000 mm 0,0 UV-I 12 W/m 14,8 C 27,4 km/h (4 Bft)
21.07.2016 07:17 19,8 C 19,8 C 73 % 1014,6 hPa 0,0 mm 23,9 km/h (4 Bft) W 259 0 min 0,000 mm 0,0 UV-I 14 W/m 14,8 C 46,7 km/h (6 Bft)
21.07.2016 07:18 19,8 C 19,8 C 73 % 1014,6 hPa 0,0 mm 24,5 km/h (4 Bft) SW 230 0 min 0,000 mm 0,0 UV-I 14 W/m 14,8 C 33,8 km/h (5 Bft)
21.07.2016 07:19 19,8 C 19,8 C 73 % 1014,4 hPa 0,0 mm 20,7 km/h (4 Bft) NW 307 0 min 0,000 mm 0,0 UV-I 16 W/m 14,8 C 29,0 km/h (5 Bft)
21.07.2016 07:20 19,8 C 19,8 C 73 % 1014,4 hPa 0,0 mm 19,7 km/h (3 Bft) W 263 0 min 0,000 mm 0,0 UV-I 18 W/m 14,8 C 27,4 km/h (4 Bft)
21.07.2016 07:21 19,7 C 19,8 C 74 % 1014,5 hPa 0,0 mm 20,6 km/h (4 Bft) W-NW 284 0 min 0,000 mm 0,0 UV-I 18 W/m 14,9 C 33,8 km/h (5 Bft)
21.07.2016 07:22 19,7 C 19,8 C 74 % 1014,6 hPa 0,0 mm 15,2 km/h (3 Bft) SW 231 0 min 0,000 mm 0,0 UV-I 19 W/m 14,9 C 22,5 km/h (4 Bft)
21.07.2016 07:23 19,7 C 19,7 C 74 % 1014,6 hPa 0,0 mm 19,4 km/h (3 Bft) W-NW 293 0 min 0,000 mm 0,0 UV-I 19 W/m 14,9 C 32,2 km/h (5 Bft)
21.07.2016 07:24 19,7 C 19,7 C 74 % 1014,5 hPa 0,0 mm 19,4 km/h (3 Bft) W 261 0 min 0,000 mm 0,0 UV-I 19 W/m 14,9 C 29,0 km/h (5 Bft)
21.07.2016 07:25 19,7 C 19,7 C 74 % 1014,7 hPa 0,0 mm 23,4 km/h (4 Bft) W 273 0 min 0,000 mm 0,0 UV-I 21 W/m 14,9 C 33,8 km/h (5 Bft)
21.07.2016 07:26 19,7 C 19,7 C 74 % 1014,7 hPa 0,0 mm 19,1 km/h (3 Bft) W 275 0 min 0,000 mm 0,0 UV-I 23 W/m 14,9 C 25,7 km/h (4 Bft)
21.07.2016 07:27 19,7 C 19,7 C 74 % 1014,7 hPa 0,0 mm 22,3 km/h (4 Bft) W 259 0 min 0,000 mm 0,0 UV-I 25 W/m 14,9 C 38,6 km/h (5 Bft)
21.07.2016 07:28 19,7 C 19,7 C 74 % 1014,7 hPa 0,0 mm 17,4 km/h (3 Bft) W-NW 290 0 min 0,000 mm 0,0 UV-I 26 W/m 14,9 C 33,8 km/h (5 Bft)
21.07.2016 07:29 19,6 C 19,7 C 74 % 1014,6 hPa 0,0 mm 14,3 km/h (3 Bft) W-SW 240 0 min 0,000 mm 0,0 UV-I 30 W/m 14,8 C 29,0 km/h (5 Bft)
21.07.2016 07:30 19,6 C 19,7 C 75 % 1014,7 hPa 0,0 mm 21,0 km/h (4 Bft) W 263 0 min 0,000 mm 0,0 UV-I 32 W/m 15,0 C 35,4 km/h (5 Bft)
21.07.2016 07:31 19,6 C 19,7 C 74 % 1014,8 hPa 0,0 mm 19,2 km/h (3 Bft) W-NW 288 0 min 0,000 mm 0,0 UV-I 33 W/m 14,8 C 27,4 km/h (4 Bft)
21.07.2016 07:32 19,6 C 19,6 C 75 % 1014,8 hPa 0,0 mm 11,9 km/h (2 Bft) W-NW 290 0 min 0,000 mm 0,0 UV-I 33 W/m 15,0 C 27,4 km/h (4 Bft)
21.07.2016 07:33 19,6 C 19,6 C 75 % 1014,8 hPa 0,0 mm 15,7 km/h (3 Bft) W-SW 251 0 min 0,000 mm 0,0 UV-I 33 W/m 15,0 C 27,4 km/h (4 Bft)
21.07.2016 07:34 19,6 C 19,6 C 75 % 1014,9 hPa 0,0 mm 15,0 km/h (3 Bft) W 265 0 min 0,000 mm 0,0 UV-I 33 W/m 15,0 C 22,5 km/h (4 Bft)
21.07.2016 07:35 19,6 C 19,6 C 75 % 1014,9 hPa 0,0 mm 15,2 km/h (3 Bft) W-SW 254 0 min 0,000 mm 0,0 UV-I 32 W/m 15,0 C 30,6 km/h (5 Bft)
21.07.2016 07:36 19,6 C 19,6 C 75 % 1014,9 hPa 0,0 mm 12,7 km/h (3 Bft) W 275 0 min 0,000 mm 0,0 UV-I 32 W/m 15,0 C 19,3 km/h (3 Bft)
21.07.2016 07:37 19,5 C 19,6 C 75 % 1014,9 hPa 0,0 mm 15,4 km/h (3 Bft) W-NW 283 0 min 0,000 mm 0,0 UV-I 30 W/m 14,9 C 27,4 km/h (4 Bft)
21.07.2016 07:38 19,5 C 19,5 C 75 % 1014,9 hPa 0,0 mm 19,5 km/h (3 Bft) SW 232 0 min 0,000 mm 0,0 UV-I 26 W/m 14,9 C 32,2 km/h (5 Bft)
21.07.2016 07:39 19,5 C 19,5 C 75 % 1015,1 hPa 0,0 mm 26,0 km/h (4 Bft) W 271 0 min 0,000 mm 0,0 UV-I 25 W/m 14,9 C 35,4 km/h (5 Bft)
21.07.2016 07:40 19,5 C 19,5 C 75 % 1015,1 hPa 0,0 mm 11,3 km/h (2 Bft) S-SW 213 0 min 0,000 mm 0,0 UV-I 23 W/m 14,9 C 20,9 km/h (4 Bft)
21.07.2016 07:41 19,5 C 19,5 C 75 % 1015,1 hPa 0,0 mm 15,8 km/h (3 Bft) W 263 0 min 0,000 mm 0,0 UV-I 21 W/m 14,9 C 32,2 km/h (5 Bft)
21.07.2016 07:42 19,5 C 19,5 C 75 % 1015,1 hPa 0,0 mm 22,7 km/h (4 Bft) W-NW 290 0 min 0,000 mm 0,0 UV-I 21 W/m 14,9 C 32,2 km/h (5 Bft)
21.07.2016 07:43 19,5 C 19,5 C 75 % 1015,0 hPa 0,0 mm 15,2 km/h (3 Bft) W 259 0 min 0,000 mm 0,0 UV-I 19 W/m 14,9 C 24,1 km/h (4 Bft)
21.07.2016 07:44 19,5 C 19,5 C 75 % 1015,2 hPa 0,0 mm 21,1 km/h (4 Bft) W 264 0 min 0,000 mm 0,0 UV-I 19 W/m 14,9 C 29,0 km/h (5 Bft)
21.07.2016 07:45 19,4 C 19,5 C 75 % 1015,2 hPa 0,0 mm 12,3 km/h (3 Bft) W 263 0 min 0,000 mm 0,0 UV-I 21 W/m 14,8 C 19,3 km/h (3 Bft)
21.07.2016 07:46 19,5 C 19,5 C 75 % 1015,2 hPa 0,0 mm 15,0 km/h (3 Bft) W-SW 256 0 min 0,000 mm 0,0 UV-I 23 W/m 14,9 C 25,7 km/h (4 Bft)
21.07.2016 07:47 19,4 C 19,5 C 76 % 1015,3 hPa 0,0 mm 16,1 km/h (3 Bft) W-NW 287 0 min 0,000 mm 0,0 UV-I 25 W/m 15,1 C 25,7 km/h (4 Bft)
21.07.2016 07:48 19,4 C 19,4 C 76 % 1015,2 hPa 0,0 mm 10,5 km/h (2 Bft) SW 219 0 min 0,000 mm 0,0 UV-I 23 W/m 15,1 C 19,3 km/h (3 Bft)
21.07.2016 07:49 19,4 C 19,4 C 76 % 1015,3 hPa 0,0 mm 16,0 km/h (3 Bft) W-SW 251 0 min 0,000 mm 0,0 UV-I 21 W/m 15,1 C 30,6 km/h (5 Bft)
21.07.2016 07:50 19,4 C 19,4 C 76 % 1015,3 hPa 0,0 mm 22,6 km/h (4 Bft) W-SW 258 0 min 0,000 mm 0,0 UV-I 18 W/m 15,1 C 33,8 km/h (5 Bft)
21.07.2016 07:51 19,4 C 19,4 C 77 % 1015,4 hPa 0,0 mm 18,0 km/h (3 Bft) W-NW 292 0 min 0,000 mm 0,0 UV-I 18 W/m 15,3 C 24,1 km/h (4 Bft)
21.07.2016 07:52 19,3 C 19,4 C 77 % 1015,4 hPa 0,0 mm 17,0 km/h (3 Bft) W-NW 285 0 min 0,000 mm 0,0 UV-I 18 W/m 15,2 C 20,9 km/h (4 Bft)
21.07.2016 07:53 19,3 C 19,3 C 77 % 1015,4 hPa 0,0 mm 9,8 km/h (2 Bft) W-NW 287 0 min 0,000 mm 0,0 UV-I 19 W/m 15,2 C 19,3 km/h (3 Bft)
21.07.2016 07:54 19,3 C 19,3 C 77 % 1015,5 hPa 0,0 mm 13,1 km/h (3 Bft) SW 217 0 min 0,000 mm 0,0 UV-I 21 W/m 15,2 C 19,3 km/h (3 Bft)
21.07.2016 07:55 19,3 C 19,3 C 78 % 1015,3 hPa 0,0 mm 19,5 km/h (3 Bft) W-SW 251 0 min 0,000 mm 0,0 UV-I 21 W/m 15,4 C 29,0 km/h (5 Bft)
21.07.2016 07:56 19,2 C 19,3 C 78 % 1015,5 hPa 0,0 mm 26,4 km/h (4 Bft) W-NW 291 0 min 0,000 mm 0,0 UV-I 23 W/m 15,3 C 37,0 km/h (5 Bft)
21.07.2016 07:57 19,1 C 19,2 C 79 % 1015,5 hPa 0,0 mm 18,0 km/h (3 Bft) W-SW 241 0 min 0,000 mm 0,0 UV-I 23 W/m 15,4 C 27,4 km/h (4 Bft)
21.07.2016 07:58 19,1 C 19,1 C 80 % 1015,5 hPa 0,0 mm 10,2 km/h (2 Bft) W 269 0 min 0,000 mm 0,0 UV-I 23 W/m 15,6 C 14,5 km/h (3 Bft)
21.07.2016 07:59 18,9 C 19,1 C 81 % 1015,7 hPa 0,0 mm 15,6 km/h (3 Bft) W-SW 242 0 min 0,000 mm 0,0 UV-I 21 W/m 15,6 C 30,6 km/h (5 Bft)
21.07.2016 08:00 18,7 C 18,9 C 82 % 1015,8 hPa 0,0 mm 20,0 km/h (4 Bft) W 279 0 min 0,076 mm 0,0 UV-I 23 W/m 15,6 C 29,0 km/h (5 Bft)
21.07.2016 08:01 18,6 C 18,7 C 82 % 1015,7 hPa 0,0 mm 11,7 km/h (2 Bft) W-NW 294 0 min 0,000 mm 0,0 UV-I 25 W/m 15,5 C 17,7 km/h (3 Bft)
21.07.2016 08:02 18,4 C 18,6 C 84 % 1015,8 hPa 0,0 mm 9,7 km/h (2 Bft) W 281 0 min 0,000 mm 0,0 UV-I 26 W/m 15,6 C 12,9 km/h (3 Bft)
21.07.2016 08:03 18,2 C 18,6 C 84 % 1015,8 hPa 0,0 mm 14,6 km/h (3 Bft) SW 228 0 min 0,000 mm 0,0 UV-I 28 W/m 15,4 C 25,7 km/h (4 Bft)
21.07.2016 08:04 18,1 C 18,2 C 85 % 1015,9 hPa 0,0 mm 20,5 km/h (4 Bft) S 187 0 min 0,000 mm 0,0 UV-I 33 W/m 15,5 C 32,2 km/h (5 Bft)
21.07.2016 08:05 17,9 C 18,1 C 86 % 1015,9 hPa 0,0 mm 19,2 km/h (3 Bft) W-SW 256 0 min 0,000 mm 0,0 UV-I 33 W/m 15,5 C 24,1 km/h (4 Bft)
21.07.2016 08:06 17,9 C 17,9 C 87 % 1015,9 hPa 0,2 mm 13,4 km/h (3 Bft) W-SW 252 0 min 0,000 mm 0,0 UV-I 35 W/m 15,7 C 20,9 km/h (4 Bft)
21.07.2016 08:07 17,7 C 17,9 C 88 % 1015,9 hPa 0,0 mm 15,7 km/h (3 Bft) W 265 0 min 0,000 mm 0,0 UV-I 35 W/m 15,7 C 19,3 km/h (3 Bft)
21.07.2016 08:08 17,7 C 17,7 C 88 % 1016,0 hPa 0,0 mm 17,4 km/h (3 Bft) W-NW 291 0 min 0,000 mm 0,0 UV-I 33 W/m 15,7 C 30,6 km/h (5 Bft)
21.07.2016 08:09 17,6 C 17,7 C 88 % 1016,0 hPa 0,0 mm 13,3 km/h (3 Bft) W-SW 253 0 min 0,000 mm 0,0 UV-I 30 W/m 15,6 C 20,9 km/h (4 Bft)
21.07.2016 08:10 17,6 C 17,6 C 89 % 1016,0 hPa 0,2 mm 9,1 km/h (2 Bft) W-SW 249 0 min 0,000 mm 0,0 UV-I 30 W/m 15,8 C 16,1 km/h (3 Bft)
21.07.2016 08:11 17,5 C 17,6 C 89 % 1016,0 hPa 0,0 mm 12,4 km/h (3 Bft) W 271 0 min 0,000 mm 0,0 UV-I 32 W/m 15,7 C 17,7 km/h (3 Bft)
21.07.2016 08:12 17,4 C 17,5 C 89 % 1015,9 hPa 0,0 mm 13,4 km/h (3 Bft) W 276 0 min 0,000 mm 0,0 UV-I 33 W/m 15,6 C 17,7 km/h (3 Bft)
21.07.2016 08:13 17,4 C 17,4 C 90 % 1016,0 hPa 0,0 mm 15,6 km/h (3 Bft) W-NW 294 0 min 0,000 mm 0,0 UV-I 35 W/m 15,7 C 22,5 km/h (4 Bft)
21.07.2016 08:14 17,3 C 17,4 C 90 % 1015,9 hPa 0,2 mm 13,4 km/h (3 Bft) W 267 0 min 0,000 mm 0,0 UV-I 37 W/m 15,6 C 27,4 km/h (4 Bft)
21.07.2016 08:15 17,3 C 17,3 C 90 % 1015,9 hPa 0,0 mm 13,0 km/h (3 Bft) NW 306 0 min 0,000 mm 0,0 UV-I 44 W/m 15,6 C 17,7 km/h (3 Bft)
21.07.2016 08:16 17,3 C 17,3 C 90 % 1015,9 hPa 0,0 mm 11,8 km/h (2 Bft) SW 219 0 min 0,000 mm 0,0 UV-I 47 W/m 15,6 C 14,5 km/h (3 Bft)
21.07.2016 08:17 17,3 C 17,3 C 90 % 1015,9 hPa 0,2 mm 11,6 km/h (2 Bft) NW 306 0 min 0,000 mm 0,0 UV-I 51 W/m 15,6 C 17,7 km/h (3 Bft)
21.07.2016 08:18 17,3 C 17,3 C 90 % 1015,9 hPa 0,0 mm 3,9 km/h (1 Bft) W-NW 301 0 min 0,000 mm 0,0 UV-I 53 W/m 15,6 C 6,4 km/h (2 Bft)
21.07.2016 08:19 17,2 C 17,3 C 91 % 1015,9 hPa 0,2 mm 5,6 km/h (1 Bft) SW 236 0 min 0,000 mm 0,0 UV-I 54 W/m 15,7 C 9,7 km/h (2 Bft)
21.07.2016 08:20 17,2 C 17,2 C 91 % 1015,8 hPa 0,0 mm 12,0 km/h (2 Bft) W-SW 248 0 min 0,000 mm 0,0 UV-I 54 W/m 15,7 C 17,7 km/h (3 Bft)
21.07.2016 08:21 17,2 C 17,2 C 91 % 1015,8 hPa 0,2 mm 10,5 km/h (2 Bft) W 269 0 min 0,000 mm 0,0 UV-I 54 W/m 15,7 C 16,1 km/h (3 Bft)
21.07.2016 08:22 17,2 C 17,2 C 91 % 1015,8 hPa 0,0 mm 10,8 km/h (2 Bft) W 275 0 min 0,000 mm 0,0 UV-I 54 W/m 15,7 C 19,3 km/h (3 Bft)
21.07.2016 08:23 17,2 C 17,2 C 91 % 1015,8 hPa 0,0 mm 4,9 km/h (1 Bft) W-NW 286 0 min 0,000 mm 0,0 UV-I 56 W/m 15,7 C 9,7 km/h (2 Bft)
21.07.2016 08:24 17,2 C 17,2 C 92 % 1015,8 hPa 0,2 mm 7,7 km/h (2 Bft) W-NW 286 0 min 0,000 mm 0,0 UV-I 58 W/m 15,9 C 11,3 km/h (2 Bft)
21.07.2016 08:25 17,1 C 17,2 C 92 % 1015,8 hPa 0,0 mm 8,5 km/h (2 Bft) W 267 0 min 0,000 mm 0,0 UV-I 58 W/m 15,8 C 17,7 km/h (3 Bft)
21.07.2016 08:26 17,2 C 17,2 C 92 % 1015,8 hPa 0,0 mm 10,3 km/h (2 Bft) W-SW 249 0 min 0,000 mm 0,0 UV-I 56 W/m 15,9 C 17,7 km/h (3 Bft)
21.07.2016 08:27 17,1 C 17,2 C 92 % 1015,8 hPa 0,2 mm 4,0 km/h (1 Bft) W-SW 244 0 min 0,000 mm 0,5 UV-I 58 W/m 15,8 C 9,7 km/h (2 Bft)
21.07.2016 08:28 17,2 C 17,2 C 92 % 1015,7 hPa 0,0 mm 8,7 km/h (2 Bft) W 267 0 min 0,000 mm 0,0 UV-I 56 W/m 15,9 C 20,9 km/h (4 Bft)
21.07.2016 08:29 17,1 C 17,2 C 92 % 1015,7 hPa 0,0 mm 13,3 km/h (3 Bft) SW 234 0 min 0,000 mm 0,0 UV-I 56 W/m 15,8 C 22,5 km/h (4 Bft)
21.07.2016 08:30 17,1 C 17,2 C 92 % 1015,7 hPa 0,0 mm 7,7 km/h (2 Bft) SW 227 0 min 0,000 mm 0,0 UV-I 53 W/m 15,8 C 16,1 km/h (3 Bft)
21.07.2016 08:31 17,1 C 17,1 C 92 % 1015,8 hPa 0,0 mm 12,8 km/h (3 Bft) W 275 0 min 0,000 mm 0,0 UV-I 51 W/m 15,8 C 20,9 km/h (4 Bft)
21.07.2016 08:32 17,1 C 17,2 C 92 % 1015,8 hPa 0,0 mm 12,3 km/h (3 Bft) W-SW 255 0 min 0,000 mm 0,0 UV-I 49 W/m 15,8 C 17,7 km/h (3 Bft)
21.07.2016 08:33 17,1 C 17,2 C 92 % 1015,7 hPa 0,0 mm 7,4 km/h (2 Bft) W-SW 257 0 min 0,000 mm 0,0 UV-I 47 W/m 15,8 C 14,5 km/h (3 Bft)
21.07.2016 08:34 17,1 C 17,1 C 92 % 1015,7 hPa 0,0 mm 7,2 km/h (2 Bft) W-SW 254 0 min 0,000 mm 0,0 UV-I 49 W/m 15,8 C 9,7 km/h (2 Bft)
21.07.2016 08:35 17,1 C 17,1 C 92 % 1015,7 hPa 0,2 mm 4,5 km/h (1 Bft) W 259 0 min 0,000 mm 0,0 UV-I 49 W/m 15,8 C 9,7 km/h (2 Bft)
21.07.2016 08:36 17,1 C 17,1 C 92 % 1015,6 hPa 0,0 mm 4,4 km/h (1 Bft) W 276 0 min 0,000 mm 0,0 UV-I 51 W/m 15,8 C 6,4 km/h (2 Bft)
21.07.2016 08:37 17,1 C 17,1 C 92 % 1015,6 hPa 0,0 mm 7,2 km/h (2 Bft) W-SW 257 0 min 0,000 mm 0,0 UV-I 53 W/m 15,8 C 11,3 km/h (2 Bft)
21.07.2016 08:38 17,1 C 17,1 C 92 % 1015,6 hPa 0,0 mm 11,1 km/h (2 Bft) W 267 0 min 0,000 mm 0,0 UV-I 54 W/m 15,8 C 19,3 km/h (3 Bft)
21.07.2016 08:39 17,1 C 17,1 C 92 % 1015,6 hPa 0,0 mm 7,2 km/h (2 Bft) S-SO 168 0 min 0,000 mm 0,0 UV-I 54 W/m 15,8 C 9,7 km/h (2 Bft)
21.07.2016 08:40 17,1 C 17,1 C 92 % 1015,6 hPa 0,0 mm 9,0 km/h (2 Bft) W-NW 288 0 min 0,000 mm 0,0 UV-I 54 W/m 15,8 C 12,9 km/h (3 Bft)
21.07.2016 08:41 17,1 C 17,1 C 92 % 1015,6 hPa 0,0 mm 6,1 km/h (2 Bft) W 281 0 min 0,000 mm 0,0 UV-I 54 W/m 15,8 C 11,3 km/h (2 Bft)
21.07.2016 08:42 17,1 C 17,1 C 91 % 1015,6 hPa 0,0 mm 7,9 km/h (2 Bft) SW 236 0 min 0,000 mm 0,0 UV-I 53 W/m 15,6 C 12,9 km/h (3 Bft)
21.07.2016 08:43 17,1 C 17,1 C 91 % 1015,5 hPa 0,0 mm 5,8 km/h (2 Bft) W 267 0 min 0,000 mm 0,0 UV-I 53 W/m 15,6 C 12,9 km/h (3 Bft)
21.07.2016 08:44 17,1 C 17,1 C 92 % 1015,5 hPa 0,0 mm 5,0 km/h (1 Bft) W-SW 243 0 min 0,000 mm 0,0 UV-I 51 W/m 15,8 C 11,3 km/h (2 Bft)
21.07.2016 08:45 17,1 C 17,1 C 92 % 1015,5 hPa 0,0 mm 9,3 km/h (2 Bft) W 272 0 min 0,000 mm 0,0 UV-I 51 W/m 15,8 C 16,1 km/h (3 Bft)
21.07.2016 08:46 17,1 C 17,1 C 91 % 1015,5 hPa 0,0 mm 9,3 km/h (2 Bft) W 259 0 min 0,000 mm 0,0 UV-I 53 W/m 15,6 C 14,5 km/h (3 Bft)
21.07.2016 08:47 17,1 C 17,1 C 91 % 1015,6 hPa 0,0 mm 4,5 km/h (1 Bft) W 265 0 min 0,000 mm 0,0 UV-I 53 W/m 15,6 C 11,3 km/h (2 Bft)
21.07.2016 08:48 17,1 C 17,1 C 91 % 1015,5 hPa 0,0 mm 9,7 km/h (2 Bft) S-SO 160 0 min 0,000 mm 0,0 UV-I 53 W/m 15,6 C 14,5 km/h (3 Bft)
21.07.2016 08:49 17,0 C 17,1 C 91 % 1015,5 hPa 0,0 mm 5,5 km/h (1 Bft) W-SW 238 0 min 0,000 mm 0,0 UV-I 54 W/m 15,5 C 8,0 km/h (2 Bft)
21.07.2016 08:50 17,0 C 17,1 C 90 % 1015,5 hPa 0,0 mm 4,0 km/h (1 Bft) SW 224 0 min 0,000 mm 0,0 UV-I 56 W/m 15,3 C 6,4 km/h (2 Bft)
21.07.2016 08:51 17,1 C 17,1 C 89 % 1015,5 hPa 0,0 mm 1,7 km/h (1 Bft) W 259 0 min 0,000 mm 0,0 UV-I 60 W/m 15,3 C 4,8 km/h (1 Bft)
21.07.2016 08:52 17,1 C 17,1 C 89 % 1015,5 hPa 0,0 mm 2,7 km/h (1 Bft) W-SW 253 0 min 0,000 mm 0,5 UV-I 63 W/m 15,3 C 4,8 km/h (1 Bft)
21.07.2016 08:53 17,1 C 17,1 C 91 % 1015,6 hPa 0,0 mm 4,2 km/h (1 Bft) W-NW 288 0 min 0,000 mm 0,5 UV-I 67 W/m 15,6 C 11,3 km/h (2 Bft)
21.07.2016 08:54 17,1 C 17,1 C 91 % 1015,7 hPa 0,0 mm 8,3 km/h (2 Bft) SW 225 0 min 0,000 mm 0,5 UV-I 69 W/m 15,6 C 12,9 km/h (3 Bft)
21.07.2016 08:55 17,1 C 17,1 C 91 % 1015,7 hPa 0,0 mm 5,4 km/h (1 Bft) W 277 0 min 0,000 mm 0,5 UV-I 72 W/m 15,6 C 8,0 km/h (2 Bft)
21.07.2016 08:56 17,0 C 17,1 C 91 % 1015,7 hPa 0,2 mm 3,1 km/h (1 Bft) S-SO 149 0 min 0,000 mm 0,6 UV-I 74 W/m 15,5 C 6,4 km/h (2 Bft)
21.07.2016 08:57 17,0 C 17,0 C 90 % 1015,7 hPa 0,0 mm 3,2 km/h (1 Bft) W 269 0 min 0,000 mm 0,6 UV-I 74 W/m 15,3 C 6,4 km/h (2 Bft)
21.07.2016 08:58 17,0 C 17,0 C 90 % 1015,7 hPa 0,0 mm 5,1 km/h (1 Bft) W-NW 286 0 min 0,000 mm 0,6 UV-I 74 W/m 15,3 C 9,7 km/h (2 Bft)
21.07.2016 08:59 17,0 C 17,0 C 90 % 1015,7 hPa 0,0 mm 2,5 km/h (1 Bft) W 263 0 min 0,000 mm 0,6 UV-I 74 W/m 15,3 C 4,8 km/h (1 Bft)
21.07.2016 09:00 17,0 C 17,0 C 90 % 1015,7 hPa 0,0 mm 1,6 km/h (1 Bft) S-SW 210 0 min 0,000 mm 0,5 UV-I 72 W/m 15,3 C 3,2 km/h (1 Bft)
21.07.2016 09:01 17,0 C 17,0 C 90 % 1015,7 hPa 0,0 mm 2,1 km/h (1 Bft) S 175 0 min 0,051 mm 0,5 UV-I 72 W/m 15,3 C 3,2 km/h (1 Bft)
21.07.2016 09:02 17,0 C 17,0 C 91 % 1015,7 hPa 0,0 mm 1,8 km/h (1 Bft) S 175 0 min 0,000 mm 0,5 UV-I 69 W/m 15,5 C 3,2 km/h (1 Bft)
21.07.2016 09:03 16,9 C 17,0 C 90 % 1015,8 hPa 0,0 mm 2,1 km/h (1 Bft) S-SW 198 0 min 0,000 mm 0,5 UV-I 69 W/m 15,2 C 3,2 km/h (1 Bft)
21.07.2016 09:04 16,9 C 17,0 C 91 % 1015,8 hPa 0,0 mm 1,7 km/h (1 Bft) S 175 0 min 0,000 mm 0,5 UV-I 67 W/m 15,4 C 3,2 km/h (1 Bft)
21.07.2016 09:05 16,9 C 16,9 C 90 % 1015,9 hPa 0,0 mm 1,9 km/h (1 Bft) S 173 0 min 0,000 mm 0,5 UV-I 67 W/m 15,2 C 3,2 km/h (1 Bft)
21.07.2016 09:06 16,9 C 16,9 C 91 % 1015,9 hPa 0,0 mm 1,9 km/h (1 Bft) S-SW 196 0 min 0,000 mm 0,5 UV-I 67 W/m 15,4 C 3,2 km/h (1 Bft)
21.07.2016 09:07 16,9 C 16,9 C 92 % 1015,8 hPa 0,0 mm 2,1 km/h (1 Bft) W 275 0 min 0,000 mm 0,5 UV-I 67 W/m 15,6 C 4,8 km/h (1 Bft)
21.07.2016 09:08 16,9 C 16,9 C 92 % 1015,8 hPa 0,0 mm 2,1 km/h (1 Bft) S 182 0 min 0,000 mm 0,5 UV-I 70 W/m 15,6 C 4,8 km/h (1 Bft)
21.07.2016 09:09 16,9 C 16,9 C 91 % 1015,9 hPa 0,0 mm 0,0 km/h (0 Bft) S 182 0 min 0,000 mm 0,5 UV-I 72 W/m 15,4 C 0,0 km/h (0 Bft)
21.07.2016 09:10 16,8 C 16,9 C 92 % 1015,9 hPa 0,0 mm 0,0 km/h (0 Bft) S 182 0 min 0,000 mm 0,5 UV-I 72 W/m 15,5 C 0,0 km/h (0 Bft)
21.07.2016 09:11 16,8 C 16,8 C 92 % 1015,9 hPa 0,0 mm 1,3 km/h (1 Bft) S-SO 160 0 min 0,000 mm 0,5 UV-I 72 W/m 15,5 C 3,2 km/h (1 Bft)
21.07.2016 09:12 16,8 C 16,8 C 92 % 1015,9 hPa 0,0 mm 4,1 km/h (1 Bft) S 180 0 min 0,000 mm 0,5 UV-I 70 W/m 15,5 C 6,4 km/h (2 Bft)
21.07.2016 09:13 16,7 C 16,8 C 92 % 1015,9 hPa 0,0 mm 2,9 km/h (1 Bft) S 175 0 min 0,000 mm 0,5 UV-I 67 W/m 15,4 C 4,8 km/h (1 Bft)
21.07.2016 09:14 16,7 C 16,8 C 92 % 1015,9 hPa 0,0 mm 2,2 km/h (1 Bft) S 172 0 min 0,000 mm 0,5 UV-I 65 W/m 15,4 C 3,2 km/h (1 Bft)
21.07.2016 09:15 16,7 C 16,7 C 93 % 1015,9 hPa 0,0 mm 2,3 km/h (1 Bft) O-SO 122 0 min 0,000 mm 0,5 UV-I 63 W/m 15,6 C 4,8 km/h (1 Bft)
21.07.2016 09:16 16,7 C 16,7 C 93 % 1015,9 hPa 0,0 mm 2,6 km/h (1 Bft) O-SO 123 0 min 0,000 mm 0,5 UV-I 60 W/m 15,6 C 4,8 km/h (1 Bft)
21.07.2016 09:17 16,6 C 16,7 C 94 % 1015,9 hPa 0,0 mm 3,8 km/h (1 Bft) O 101 0 min 0,000 mm 0,5 UV-I 58 W/m 15,6 C 4,8 km/h (1 Bft)
21.07.2016 09:18 16,6 C 16,6 C 94 % 1015,9 hPa 0,0 mm 5,2 km/h (1 Bft) O 81 0 min 0,000 mm 0,5 UV-I 56 W/m 15,6 C 9,7 km/h (2 Bft)
21.07.2016 09:19 16,6 C 16,6 C 94 % 1015,8 hPa 0,0 mm 3,8 km/h (1 Bft) O 101 0 min 0,000 mm 0,0 UV-I 54 W/m 15,6 C 6,4 km/h (2 Bft)
21.07.2016 09:20 16,6 C 16,6 C 93 % 1015,8 hPa 0,0 mm 3,1 km/h (1 Bft) O 96 0 min 0,000 mm 0,0 UV-I 51 W/m 15,5 C 4,8 km/h (1 Bft)
21.07.2016 09:21 16,6 C 16,6 C 93 % 1015,7 hPa 0,0 mm 1,7 km/h (1 Bft) O 96 0 min 0,000 mm 0,0 UV-I 49 W/m 15,5 C 3,2 km/h (1 Bft)
21.07.2016 09:22 16,6 C 16,6 C 94 % 1015,7 hPa 0,0 mm 1,5 km/h (1 Bft) O 96 0 min 0,000 mm 0,0 UV-I 49 W/m 15,6 C 1,6 km/h (1 Bft)
21.07.2016 09:23 16,6 C 16,6 C 94 % 1015,7 hPa 0,0 mm 0,2 km/h (0 Bft) O 96 0 min 0,000 mm 0,0 UV-I 47 W/m 15,6 C 1,6 km/h (1 Bft)
21.07.2016 09:24 16,6 C 16,6 C 94 % 1015,6 hPa 0,2 mm 0,3 km/h (0 Bft) O 96 0 min 0,000 mm 0,0 UV-I 47 W/m 15,6 C 1,6 km/h (1 Bft)
21.07.2016 09:25 16,6 C 16,6 C 94 % 1015,6 hPa 0,0 mm 0,7 km/h (0 Bft) O 96 0 min 0,000 mm 0,0 UV-I 46 W/m 15,6 C 1,6 km/h (1 Bft)
21.07.2016 09:26 16,5 C 16,6 C 94 % 1015,6 hPa 0,0 mm 2,1 km/h (1 Bft) O 96 0 min 0,000 mm 0,0 UV-I 46 W/m 15,5 C 3,2 km/h (1 Bft)
21.07.2016 09:27 16,5 C 16,5 C 94 % 1015,5 hPa 0,0 mm 2,4 km/h (1 Bft) O 96 0 min 0,000 mm 0,0 UV-I 46 W/m 15,5 C 3,2 km/h (1 Bft)
21.07.2016 09:28 16,5 C 16,6 C 94 % 1015,5 hPa 0,0 mm 1,8 km/h (1 Bft) O 96 0 min 0,000 mm 0,0 UV-I 46 W/m 15,5 C 3,2 km/h (1 Bft)
21.07.2016 09:29 16,5 C 16,5 C 94 % 1015,4 hPa 0,2 mm 4,0 km/h (1 Bft) O-NO 62 0 min 0,000 mm 0,0 UV-I 46 W/m 15,5 C 6,4 km/h (2 Bft)
21.07.2016 09:30 16,5 C 16,6 C 94 % 1015,4 hPa 0,0 mm 4,5 km/h (1 Bft) O-NO 63 0 min 0,000 mm 0,0 UV-I 46 W/m 15,5 C 6,4 km/h (2 Bft)
21.07.2016 09:31 16,6 C 16,6 C 94 % 1015,3 hPa 0,0 mm 1,9 km/h (1 Bft) O-NO 63 0 min 0,000 mm 0,0 UV-I 49 W/m 15,6 C 3,2 km/h (1 Bft)
21.07.2016 09:32 16,5 C 16,6 C 94 % 1015,3 hPa 0,0 mm 1,2 km/h (1 Bft) O-NO 63 0 min 0,000 mm 0,0 UV-I 53 W/m 15,5 C 3,2 km/h (1 Bft)
21.07.2016 09:33 16,4 C 16,5 C 94 % 1015,3 hPa 0,0 mm 0,8 km/h (0 Bft) O-NO 63 0 min 0,000 mm 0,5 UV-I 56 W/m 15,4 C 1,6 km/h (1 Bft)
21.07.2016 09:34 16,5 C 16,5 C 94 % 1015,4 hPa 0,0 mm 1,1 km/h (1 Bft) O-NO 63 0 min 0,000 mm 0,5 UV-I 63 W/m 15,5 C 3,2 km/h (1 Bft)
21.07.2016 09:35 16,6 C 16,6 C 94 % 1015,4 hPa 0,0 mm 0,5 km/h (0 Bft) O-NO 63 0 min 0,000 mm 0,6 UV-I 70 W/m 15,6 C 1,6 km/h (1 Bft)
21.07.2016 09:36 16,6 C 16,6 C 94 % 1015,4 hPa 0,0 mm 0,3 km/h (0 Bft) O-NO 63 0 min 0,000 mm 0,7 UV-I 79 W/m 15,6 C 1,6 km/h (1 Bft)
21.07.2016 09:37 16,6 C 16,6 C 94 % 1015,3 hPa 0,0 mm 0,9 km/h (0 Bft) O-NO 63 0 min 0,000 mm 0,7 UV-I 97 W/m 15,6 C 1,6 km/h (1 Bft)
21.07.2016 09:38 16,6 C 16,6 C 94 % 1015,3 hPa 0,0 mm 0,7 km/h (0 Bft) O-NO 63 0 min 0,000 mm 0,9 UV-I 105 W/m 15,6 C 1,6 km/h (1 Bft)
21.07.2016 09:39 16,6 C 16,6 C 94 % 1015,3 hPa 0,0 mm 1,2 km/h (1 Bft) O-NO 64 0 min 0,000 mm 1,0 UV-I 114 W/m 15,6 C 3,2 km/h (1 Bft)
21.07.2016 09:40 16,6 C 16,6 C 94 % 1015,4 hPa 0,0 mm 0,3 km/h (0 Bft) O-NO 64 0 min 0,000 mm 1,0 UV-I 125 W/m 15,6 C 1,6 km/h (1 Bft)
21.07.2016 09:41 16,6 C 16,6 C 94 % 1015,4 hPa 0,0 mm 0,5 km/h (0 Bft) O-NO 64 0 min 0,000 mm 1,1 UV-I 134 W/m 15,6 C 1,6 km/h (1 Bft)
21.07.2016 09:42 16,6 C 16,6 C 94 % 1015,4 hPa 0,0 mm 0,8 km/h (0 Bft) O-NO 64 0 min 0,000 mm 1,2 UV-I 141 W/m 15,6 C 1,6 km/h (1 Bft)
21.07.2016 09:43 16,6 C 16,6 C 94 % 1015,4 hPa 0,0 mm 1,5 km/h (1 Bft) O-NO 64 0 min 0,000 mm 1,2 UV-I 155 W/m 15,6 C 1,6 km/h (1 Bft)
21.07.2016 09:44 16,6 C 16,6 C 94 % 1015,4 hPa 0,0 mm 1,3 km/h (1 Bft) O-NO 64 0 min 0,000 mm 1,3 UV-I 160 W/m 15,6 C 1,6 km/h (1 Bft)
21.07.2016 09:45 16,7 C 16,7 C 95 % 1015,4 hPa 0,0 mm 1,9 km/h (1 Bft) O-NO 64 0 min 0,000 mm 1,3 UV-I 162 W/m 15,9 C 3,2 km/h (1 Bft)
21.07.2016 09:46 16,7 C 16,7 C 94 % 1015,4 hPa 0,0 mm 2,7 km/h (1 Bft) O 88 0 min 0,000 mm 1,4 UV-I 163 W/m 15,7 C 3,2 km/h (1 Bft)
21.07.2016 09:47 16,9 C 16,9 C 94 % 1015,4 hPa 0,0 mm 3,2 km/h (1 Bft) SO 144 0 min 0,000 mm 1,4 UV-I 163 W/m 15,9 C 3,2 km/h (1 Bft)
21.07.2016 09:48 16,9 C 16,9 C 93 % 1015,4 hPa 0,0 mm 2,1 km/h (1 Bft) SO 144 0 min 0,000 mm 1,4 UV-I 163 W/m 15,8 C 3,2 km/h (1 Bft)
21.07.2016 09:49 17,1 C 17,1 C 94 % 1015,4 hPa 0,0 mm 1,3 km/h (1 Bft) O-SO 121 0 min 0,000 mm 1,4 UV-I 167 W/m 16,1 C 3,2 km/h (1 Bft)
21.07.2016 09:50 17,1 C 17,1 C 93 % 1015,4 hPa 0,0 mm 3,4 km/h (1 Bft) O-SO 121 0 min 0,000 mm 1,5 UV-I 171 W/m 16,0 C 4,8 km/h (1 Bft)
21.07.2016 09:51 17,2 C 17,2 C 92 % 1015,4 hPa 0,0 mm 2,3 km/h (1 Bft) O-SO 121 0 min 0,000 mm 1,6 UV-I 178 W/m 15,9 C 3,2 km/h (1 Bft)
21.07.2016 09:52 17,2 C 17,2 C 93 % 1015,3 hPa 0,0 mm 2,1 km/h (1 Bft) O-SO 121 0 min 0,000 mm 1,6 UV-I 185 W/m 16,1 C 3,2 km/h (1 Bft)
21.07.2016 09:53 17,2 C 17,2 C 93 % 1015,3 hPa 0,0 mm 2,6 km/h (1 Bft) O-SO 121 0 min 0,000 mm 1,7 UV-I 193 W/m 16,1 C 3,2 km/h (1 Bft)
21.07.2016 09:54 17,2 C 17,2 C 93 % 1015,3 hPa 0,0 mm 2,3 km/h (1 Bft) O-SO 121 0 min 0,000 mm 1,8 UV-I 202 W/m 16,1 C 3,2 km/h (1 Bft)
21.07.2016 09:55 17,2 C 17,3 C 93 % 1015,3 hPa 0,0 mm 2,9 km/h (1 Bft) O-SO 111 0 min 0,000 mm 1,9 UV-I 221 W/m 16,1 C 4,8 km/h (1 Bft)
21.07.2016 09:56 17,3 C 17,3 C 94 % 1015,3 hPa 0,0 mm 4,8 km/h (1 Bft) O-SO 103 0 min 0,000 mm 2,1 UV-I 251 W/m 16,3 C 6,4 km/h (2 Bft)
21.07.2016 09:57 17,3 C 17,3 C 93 % 1015,3 hPa 0,0 mm 4,3 km/h (1 Bft) O-NO 68 0 min 0,000 mm 2,2 UV-I 276 W/m 16,2 C 4,8 km/h (1 Bft)
21.07.2016 09:58 17,4 C 17,4 C 92 % 1015,2 hPa 0,0 mm 5,1 km/h (1 Bft) O 90 0 min 0,000 mm 2,3 UV-I 304 W/m 16,1 C 6,4 km/h (2 Bft)
21.07.2016 09:59 17,6 C 17,6 C 93 % 1015,2 hPa 0,0 mm 4,3 km/h (1 Bft) NO 51 0 min 0,000 mm 2,4 UV-I 301 W/m 16,5 C 4,8 km/h (1 Bft)
21.07.2016 10:00 17,7 C 17,7 C 93 % 1015,2 hPa 0,0 mm 4,3 km/h (1 Bft) NO 54 0 min 0,000 mm 2,4 UV-I 299 W/m 16,6 C 6,4 km/h (2 Bft)
21.07.2016 10:01 17,8 C 17,8 C 91 % 1015,1 hPa 0,0 mm 5,4 km/h (1 Bft) O-NO 73 1 min 0,050 mm 2,5 UV-I 366 W/m 16,3 C 9,7 km/h (2 Bft)
21.07.2016 10:02 17,9 C 17,9 C 92 % 1015,1 hPa 0,0 mm 3,6 km/h (1 Bft) N-NO 22 1 min 0,000 mm 2,8 UV-I 397 W/m 16,6 C 6,4 km/h (2 Bft)
21.07.2016 10:03 17,9 C 17,9 C 91 % 1015,1 hPa 0,0 mm 3,4 km/h (1 Bft) O 100 1 min 0,000 mm 3,0 UV-I 436 W/m 16,4 C 6,4 km/h (2 Bft)
21.07.2016 10:04 18,1 C 18,1 C 90 % 1015,1 hPa 0,0 mm 4,6 km/h (1 Bft) O-NO 67 1 min 0,000 mm 3,1 UV-I 471 W/m 16,4 C 8,0 km/h (2 Bft)
21.07.2016 10:05 18,2 C 18,2 C 90 % 1015,1 hPa 0,0 mm 5,3 km/h (1 Bft) SO 128 1 min 0,000 mm 2,9 UV-I 450 W/m 16,5 C 8,0 km/h (2 Bft)
21.07.2016 10:06 18,2 C 18,2 C 90 % 1015,1 hPa 0,0 mm 4,6 km/h (1 Bft) O-NO 64 1 min 0,000 mm 2,8 UV-I 406 W/m 16,5 C 8,0 km/h (2 Bft)
21.07.2016 10:07 18,3 C 18,3 C 90 % 1015,1 hPa 0,0 mm 7,0 km/h (2 Bft) O 82 1 min 0,000 mm 2,8 UV-I 406 W/m 16,6 C 11,3 km/h (2 Bft)
21.07.2016 10:08 18,4 C 18,4 C 90 % 1015,0 hPa 0,0 mm 5,7 km/h (1 Bft) O-NO 61 1 min 0,000 mm 2,8 UV-I 388 W/m 16,7 C 8,0 km/h (2 Bft)
21.07.2016 10:09 18,5 C 18,5 C 89 % 1015,0 hPa 0,0 mm 5,8 km/h (2 Bft) NO 47 1 min 0,000 mm 2,8 UV-I 403 W/m 16,7 C 12,9 km/h (3 Bft)
21.07.2016 10:10 18,6 C 18,6 C 89 % 1015,0 hPa 0,0 mm 5,5 km/h (1 Bft) O-NO 67 0 min 0,000 mm 2,6 UV-I 352 W/m 16,7 C 6,4 km/h (2 Bft)
21.07.2016 10:11 18,7 C 18,7 C 89 % 1015,0 hPa 0,0 mm 4,2 km/h (1 Bft) N-NO 26 0 min 0,000 mm 2,5 UV-I 341 W/m 16,8 C 6,4 km/h (2 Bft)
21.07.2016 10:12 18,7 C 18,7 C 87 % 1015,0 hPa 0,0 mm 4,4 km/h (1 Bft) NO 50 0 min 0,000 mm 2,5 UV-I 330 W/m 16,5 C 6,4 km/h (2 Bft)
21.07.2016 10:13 18,8 C 18,8 C 88 % 1015,0 hPa 0,0 mm 3,8 km/h (1 Bft) N-NO 27 0 min 0,000 mm 2,5 UV-I 327 W/m 16,8 C 4,8 km/h (1 Bft)
21.07.2016 10:14 18,8 C 18,8 C 87 % 1015,0 hPa 0,0 mm 5,4 km/h (1 Bft) NO 51 0 min 0,000 mm 2,5 UV-I 320 W/m 16,6 C 6,4 km/h (2 Bft)
21.07.2016 10:15 18,8 C 18,8 C 88 % 1015,0 hPa 0,0 mm 5,8 km/h (2 Bft) NO 38 0 min 0,000 mm 2,5 UV-I 322 W/m 16,8 C 9,7 km/h (2 Bft)
21.07.2016 10:16 18,8 C 18,8 C 87 % 1014,9 hPa 0,0 mm 4,1 km/h (1 Bft) O-NO 67 0 min 0,000 mm 2,4 UV-I 308 W/m 16,6 C 8,0 km/h (2 Bft)
21.07.2016 10:17 18,8 C 18,8 C 86 % 1014,9 hPa 0,0 mm 3,7 km/h (1 Bft) N-NO 28 0 min 0,000 mm 2,4 UV-I 301 W/m 16,4 C 6,4 km/h (2 Bft)
21.07.2016 10:18 18,9 C 18,9 C 87 % 1014,9 hPa 0,0 mm 5,2 km/h (1 Bft) NO 49 0 min 0,000 mm 2,4 UV-I 301 W/m 16,7 C 8,0 km/h (2 Bft)
21.07.2016 10:19 18,9 C 18,9 C 87 % 1014,9 hPa 0,0 mm 5,2 km/h (1 Bft) O-NO 67 0 min 0,000 mm 2,4 UV-I 297 W/m 16,7 C 8,0 km/h (2 Bft)
21.07.2016 10:20 18,9 C 18,9 C 87 % 1014,8 hPa 0,0 mm 4,5 km/h (1 Bft) NO 44 0 min 0,000 mm 2,4 UV-I 302 W/m 16,7 C 6,4 km/h (2 Bft)
21.07.2016 10:21 18,9 C 18,9 C 88 % 1014,9 hPa 0,0 mm 3,0 km/h (1 Bft) NO 52 0 min 0,000 mm 2,4 UV-I 301 W/m 16,9 C 4,8 km/h (1 Bft)
21.07.2016 10:22 18,9 C 18,9 C 88 % 1014,8 hPa 0,0 mm 3,8 km/h (1 Bft) NO 47 0 min 0,000 mm 2,4 UV-I 301 W/m 16,9 C 6,4 km/h (2 Bft)
21.07.2016 10:23 18,9 C 19,0 C 88 % 1014,8 hPa 0,0 mm 5,2 km/h (1 Bft) O-NO 65 0 min 0,000 mm 2,4 UV-I 295 W/m 16,9 C 6,4 km/h (2 Bft)
21.07.2016 10:24 18,9 C 18,9 C 87 % 1014,9 hPa 0,0 mm 4,0 km/h (1 Bft) NO 49 0 min 0,000 mm 2,4 UV-I 290 W/m 16,7 C 6,4 km/h (2 Bft)
21.07.2016 10:25 18,9 C 18,9 C 87 % 1014,7 hPa 0,0 mm 2,5 km/h (1 Bft) NO 51 0 min 0,000 mm 2,3 UV-I 279 W/m 16,7 C 4,8 km/h (1 Bft)
21.07.2016 10:26 18,8 C 18,9 C 88 % 1014,8 hPa 0,0 mm 3,4 km/h (1 Bft) O 84 0 min 0,000 mm 2,2 UV-I 274 W/m 16,8 C 8,0 km/h (2 Bft)
21.07.2016 10:27 18,8 C 18,9 C 87 % 1014,7 hPa 0,0 mm 2,5 km/h (1 Bft) O-NO 59 0 min 0,000 mm 2,2 UV-I 271 W/m 16,6 C 4,8 km/h (1 Bft)
21.07.2016 10:28 18,8 C 18,8 C 87 % 1014,7 hPa 0,0 mm 3,6 km/h (1 Bft) O-NO 78 0 min 0,000 mm 2,3 UV-I 279 W/m 16,6 C 4,8 km/h (1 Bft)
21.07.2016 10:29 18,8 C 18,8 C 88 % 1014,7 hPa 0,0 mm 5,6 km/h (1 Bft) O-SO 115 0 min 0,000 mm 2,4 UV-I 315 W/m 16,8 C 9,7 km/h (2 Bft)
21.07.2016 10:30 18,8 C 18,8 C 87 % 1014,7 hPa 0,0 mm 2,0 km/h (1 Bft) O-SO 115 0 min 0,000 mm 2,2 UV-I 265 W/m 16,6 C 3,2 km/h (1 Bft)
21.07.2016 10:31 18,8 C 18,8 C 88 % 1014,7 hPa 0,0 mm 4,6 km/h (1 Bft) O 86 0 min 0,000 mm 2,2 UV-I 283 W/m 16,8 C 8,0 km/h (2 Bft)
21.07.2016 10:32 18,8 C 18,8 C 90 % 1014,7 hPa 0,0 mm 3,4 km/h (1 Bft) O-NO 78 0 min 0,000 mm 2,1 UV-I 255 W/m 17,1 C 6,4 km/h (2 Bft)
21.07.2016 10:33 18,9 C 18,9 C 90 % 1014,7 hPa 0,0 mm 2,1 km/h (1 Bft) NO 47 0 min 0,000 mm 2,1 UV-I 248 W/m 17,2 C 3,2 km/h (1 Bft)
21.07.2016 10:34 19,0 C 19,0 C 90 % 1014,7 hPa 0,0 mm 4,1 km/h (1 Bft) NO 36 0 min 0,000 mm 2,1 UV-I 241 W/m 17,3 C 6,4 km/h (2 Bft)
21.07.2016 10:35 19,1 C 19,1 C 88 % 1014,7 hPa 0,0 mm 2,9 km/h (1 Bft) NO 38 0 min 0,000 mm 2,0 UV-I 237 W/m 17,1 C 4,8 km/h (1 Bft)
21.07.2016 10:36 19,1 C 19,1 C 87 % 1014,7 hPa 0,0 mm 1,7 km/h (1 Bft) NO 35 0 min 0,000 mm 1,9 UV-I 227 W/m 16,9 C 3,2 km/h (1 Bft)
21.07.2016 10:37 19,1 C 19,1 C 87 % 1014,7 hPa 0,0 mm 2,3 km/h (1 Bft) NO 45 0 min 0,000 mm 2,0 UV-I 227 W/m 16,9 C 4,8 km/h (1 Bft)
21.07.2016 10:38 19,1 C 19,1 C 88 % 1014,7 hPa 0,0 mm 4,9 km/h (1 Bft) O-NO 60 0 min 0,000 mm 1,9 UV-I 225 W/m 17,1 C 6,4 km/h (2 Bft)
21.07.2016 10:39 19,1 C 19,1 C 87 % 1014,7 hPa 0,0 mm 3,2 km/h (1 Bft) O-NO 63 0 min 0,000 mm 2,0 UV-I 223 W/m 16,9 C 6,4 km/h (2 Bft)
21.07.2016 10:40 19,1 C 19,1 C 87 % 1014,8 hPa 0,0 mm 1,7 km/h (1 Bft) NO 55 0 min 0,000 mm 2,0 UV-I 225 W/m 16,9 C 3,2 km/h (1 Bft)
21.07.2016 10:41 19,0 C 19,1 C 88 % 1014,7 hPa 0,0 mm 3,7 km/h (1 Bft) NO 38 0 min 0,000 mm 2,1 UV-I 232 W/m 17,0 C 6,4 km/h (2 Bft)
21.07.2016 10:42 19,0 C 19,1 C 87 % 1014,8 hPa 0,0 mm 2,6 km/h (1 Bft) N 10 0 min 0,000 mm 2,2 UV-I 250 W/m 16,8 C 4,8 km/h (1 Bft)
21.07.2016 10:43 19,0 C 19,0 C 87 % 1014,8 hPa 0,0 mm 3,2 km/h (1 Bft) NO 41 0 min 0,000 mm 2,3 UV-I 258 W/m 16,8 C 6,4 km/h (2 Bft)
21.07.2016 10:44 19,1 C 19,1 C 87 % 1014,8 hPa 0,0 mm 4,8 km/h (1 Bft) N-NO 30 0 min 0,000 mm 2,3 UV-I 265 W/m 16,9 C 6,4 km/h (2 Bft)
21.07.2016 10:45 19,0 C 19,1 C 87 % 1014,7 hPa 0,0 mm 3,6 km/h (1 Bft) NO 42 0 min 0,000 mm 2,3 UV-I 269 W/m 16,8 C 4,8 km/h (1 Bft)
21.07.2016 10:46 19,0 C 19,1 C 86 % 1014,7 hPa 0,0 mm 3,8 km/h (1 Bft) NO 44 0 min 0,000 mm 2,4 UV-I 272 W/m 16,6 C 4,8 km/h (1 Bft)
21.07.2016 10:47 18,9 C 19,1 C 87 % 1014,7 hPa 0,0 mm 4,2 km/h (1 Bft) O-NO 62 0 min 0,000 mm 2,4 UV-I 274 W/m 16,7 C 6,4 km/h (2 Bft)
21.07.2016 10:48 18,9 C 19,0 C 87 % 1014,7 hPa 0,0 mm 4,1 km/h (1 Bft) O-NO 58 0 min 0,000 mm 2,4 UV-I 272 W/m 16,7 C 6,4 km/h (2 Bft)
21.07.2016 10:49 18,9 C 18,9 C 88 % 1014,7 hPa 0,0 mm 3,1 km/h (1 Bft) O-NO 59 0 min 0,000 mm 2,4 UV-I 274 W/m 16,9 C 4,8 km/h (1 Bft)
21.07.2016 10:50 18,9 C 18,9 C 88 % 1014,7 hPa 0,0 mm 4,0 km/h (1 Bft) NO 42 0 min 0,000 mm 2,5 UV-I 283 W/m 16,9 C 4,8 km/h (1 Bft)
21.07.2016 10:51 18,9 C 18,9 C 88 % 1014,7 hPa 0,0 mm 3,6 km/h (1 Bft) NO 40 0 min 0,000 mm 2,6 UV-I 295 W/m 16,9 C 4,8 km/h (1 Bft)
21.07.2016 10:52 18,9 C 18,9 C 88 % 1014,7 hPa 0,0 mm 4,6 km/h (1 Bft) O-NO 61 0 min 0,000 mm 2,7 UV-I 309 W/m 16,9 C 6,4 km/h (2 Bft)
21.07.2016 10:53 18,9 C 18,9 C 87 % 1014,7 hPa 0,0 mm 3,8 km/h (1 Bft) NO 44 0 min 0,000 mm 2,9 UV-I 343 W/m 16,7 C 4,8 km/h (1 Bft)
21.07.2016 10:54 18,9 C 18,9 C 88 % 1014,7 hPa 0,0 mm 4,4 km/h (1 Bft) NO 34 0 min 0,000 mm 3,0 UV-I 394 W/m 16,9 C 6,4 km/h (2 Bft)
21.07.2016 10:55 18,9 C 18,9 C 88 % 1014,7 hPa 0,0 mm 4,2 km/h (1 Bft) N-NO 20 0 min 0,000 mm 3,3 UV-I 401 W/m 16,9 C 6,4 km/h (2 Bft)
21.07.2016 10:56 19,1 C 19,1 C 88 % 1014,6 hPa 0,0 mm 5,6 km/h (1 Bft) O-NO 57 1 min 0,000 mm 3,5 UV-I 425 W/m 17,1 C 6,4 km/h (2 Bft)
21.07.2016 10:57 19,1 C 19,1 C 87 % 1014,6 hPa 0,0 mm 4,1 km/h (1 Bft) N-NO 28 1 min 0,000 mm 3,6 UV-I 510 W/m 16,9 C 6,4 km/h (2 Bft)
21.07.2016 10:58 19,1 C 19,1 C 88 % 1014,6 hPa 0,0 mm 1,7 km/h (1 Bft) N-NO 27 1 min 0,000 mm 3,6 UV-I 417 W/m 17,1 C 4,8 km/h (1 Bft)
21.07.2016 10:59 19,1 C 19,2 C 87 % 1014,6 hPa 0,0 mm 5,3 km/h (1 Bft) O-NO 68 1 min 0,000 mm 3,9 UV-I 443 W/m 16,9 C 8,0 km/h (2 Bft)
21.07.2016 11:00 19,2 C 19,2 C 87 % 1014,6 hPa 0,0 mm 4,8 km/h (1 Bft) N-NO 19 1 min 0,178 mm 4,3 UV-I 587 W/m 17,0 C 8,0 km/h (2 Bft)
21.07.2016 11:01 19,3 C 19,3 C 88 % 1014,6 hPa 0,0 mm 5,6 km/h (1 Bft) N-NO 33 1 min 0,000 mm 4,4 UV-I 503 W/m 17,3 C 6,4 km/h (2 Bft)
21.07.2016 11:02 19,3 C 19,3 C 87 % 1014,6 hPa 0,0 mm 6,1 km/h (2 Bft) NO 56 1 min 0,000 mm 3,9 UV-I 478 W/m 17,1 C 9,7 km/h (2 Bft)
21.07.2016 11:03 19,4 C 19,4 C 87 % 1014,6 hPa 0,0 mm 5,2 km/h (1 Bft) N-NO 33 1 min 0,000 mm 4,9 UV-I 478 W/m 17,2 C 8,0 km/h (2 Bft)
21.07.2016 11:04 19,3 C 19,4 C 87 % 1014,5 hPa 0,0 mm 7,6 km/h (2 Bft) O-NO 73 1 min 0,000 mm 3,8 UV-I 478 W/m 17,1 C 12,9 km/h (3 Bft)
21.07.2016 11:05 19,3 C 19,3 C 86 % 1014,6 hPa 0,0 mm 6,5 km/h (2 Bft) O-NO 75 0 min 0,000 mm 3,0 UV-I 304 W/m 16,9 C 9,7 km/h (2 Bft)
21.07.2016 11:06 19,2 C 19,3 C 86 % 1014,6 hPa 0,0 mm 3,9 km/h (1 Bft) O-NO 73 0 min 0,000 mm 3,3 UV-I 369 W/m 16,8 C 6,4 km/h (2 Bft)
21.07.2016 11:07 19,2 C 19,2 C 86 % 1014,5 hPa 0,0 mm 5,4 km/h (1 Bft) NO 56 0 min 0,000 mm 3,4 UV-I 385 W/m 16,8 C 9,7 km/h (2 Bft)
21.07.2016 11:08 19,2 C 19,2 C 88 % 1014,5 hPa 0,0 mm 7,8 km/h (2 Bft) O-NO 67 0 min 0,000 mm 3,6 UV-I 399 W/m 17,2 C 11,3 km/h (2 Bft)
21.07.2016 11:09 19,3 C 19,3 C 87 % 1014,6 hPa 0,0 mm 5,2 km/h (1 Bft) O-SO 115 1 min 0,000 mm 3,9 UV-I 466 W/m 17,1 C 6,4 km/h (2 Bft)
21.07.2016 11:10 19,3 C 19,3 C 86 % 1014,6 hPa 0,0 mm 3,0 km/h (1 Bft) NO 50 1 min 0,000 mm 4,5 UV-I 533 W/m 16,9 C 6,4 km/h (2 Bft)
21.07.2016 11:11 19,4 C 19,4 C 86 % 1014,6 hPa 0,0 mm 7,3 km/h (2 Bft) O-NO 61 1 min 0,000 mm 4,5 UV-I 550 W/m 17,0 C 9,7 km/h (2 Bft)
21.07.2016 11:12 19,4 C 19,4 C 86 % 1014,6 hPa 0,0 mm 7,5 km/h (2 Bft) O-NO 67 0 min 0,000 mm 3,2 UV-I 345 W/m 17,0 C 9,7 km/h (2 Bft)
21.07.2016 11:13 19,4 C 19,4 C 86 % 1014,6 hPa 0,0 mm 6,4 km/h (2 Bft) O-NO 64 0 min 0,000 mm 3,1 UV-I 313 W/m 17,0 C 11,3 km/h (2 Bft)
21.07.2016 11:14 19,4 C 19,4 C 86 % 1014,6 hPa 0,0 mm 3,5 km/h (1 Bft) O-NO 63 0 min 0,000 mm 3,0 UV-I 304 W/m 17,0 C 4,8 km/h (1 Bft)
21.07.2016 11:15 19,2 C 19,4 C 86 % 1014,6 hPa 0,0 mm 3,4 km/h (1 Bft) NO 51 0 min 0,000 mm 3,1 UV-I 304 W/m 16,8 C 6,4 km/h (2 Bft)
21.07.2016 11:16 19,2 C 19,3 C 86 % 1014,6 hPa 0,0 mm 5,0 km/h (1 Bft) S-SO 157 0 min 0,000 mm 3,0 UV-I 304 W/m 16,8 C 8,0 km/h (2 Bft)
21.07.2016 11:17 19,2 C 19,3 C 86 % 1014,6 hPa 0,0 mm 4,0 km/h (1 Bft) O 82 0 min 0,000 mm 3,0 UV-I 283 W/m 16,8 C 6,4 km/h (2 Bft)
21.07.2016 11:18 19,2 C 19,2 C 86 % 1014,6 hPa 0,0 mm 5,6 km/h (1 Bft) O-NO 64 0 min 0,000 mm 3,0 UV-I 295 W/m 16,8 C 6,4 km/h (2 Bft)
21.07.2016 11:19 19,3 C 19,3 C 87 % 1014,6 hPa 0,0 mm 4,6 km/h (1 Bft) NO 42 0 min 0,000 mm 3,0 UV-I 267 W/m 17,1 C 6,4 km/h (2 Bft)
21.07.2016 11:20 19,3 C 19,3 C 87 % 1014,6 hPa 0,0 mm 5,2 km/h (1 Bft) O-NO 66 0 min 0,000 mm 3,5 UV-I 297 W/m 17,1 C 8,0 km/h (2 Bft)
21.07.2016 11:21 19,4 C 19,4 C 86 % 1014,6 hPa 0,0 mm 5,8 km/h (2 Bft) NO 50 0 min 0,000 mm 4,1 UV-I 373 W/m 17,0 C 8,0 km/h (2 Bft)
21.07.2016 11:22 19,5 C 19,5 C 87 % 1014,6 hPa 0,0 mm 4,2 km/h (1 Bft) NO 51 0 min 0,000 mm 4,1 UV-I 424 W/m 17,3 C 6,4 km/h (2 Bft)
21.07.2016 11:23 19,6 C 19,6 C 86 % 1014,6 hPa 0,0 mm 3,6 km/h (1 Bft) NO 40 0 min 0,000 mm 4,5 UV-I 418 W/m 17,2 C 6,4 km/h (2 Bft)
21.07.2016 11:24 19,7 C 19,7 C 86 % 1014,6 hPa 0,0 mm 2,9 km/h (1 Bft) O-NO 62 1 min 0,000 mm 4,3 UV-I 508 W/m 17,3 C 4,8 km/h (1 Bft)
21.07.2016 11:25 19,7 C 19,7 C 85 % 1014,6 hPa 0,0 mm 3,5 km/h (1 Bft) NO 51 1 min 0,000 mm 4,9 UV-I 497 W/m 17,1 C 4,8 km/h (1 Bft)
21.07.2016 11:26 19,7 C 19,7 C 86 % 1014,6 hPa 0,0 mm 3,4 km/h (1 Bft) N-NO 30 1 min 0,000 mm 4,6 UV-I 580 W/m 17,3 C 4,8 km/h (1 Bft)
21.07.2016 11:27 19,8 C 19,8 C 87 % 1014,6 hPa 0,0 mm 3,4 km/h (1 Bft) NO 45 1 min 0,000 mm 4,6 UV-I 580 W/m 17,6 C 6,4 km/h (2 Bft)
21.07.2016 11:28 19,9 C 19,9 C 86 % 1014,5 hPa 0,0 mm 3,6 km/h (1 Bft) O 80 1 min 0,000 mm 4,6 UV-I 452 W/m 17,5 C 6,4 km/h (2 Bft)
21.07.2016 11:29 19,9 C 19,9 C 84 % 1014,6 hPa 0,0 mm 2,6 km/h (1 Bft) O 80 1 min 0,000 mm 6,4 UV-I 933 W/m 17,1 C 4,8 km/h (1 Bft)
21.07.2016 11:30 20,1 C 20,1 C 87 % 1014,5 hPa 0,0 mm 4,9 km/h (1 Bft) N-NO 31 1 min 0,000 mm 6,0 UV-I 933 W/m 17,9 C 6,4 km/h (2 Bft)
21.07.2016 11:31 20,3 C 20,3 C 87 % 1014,5 hPa 0,0 mm 4,7 km/h (1 Bft) NO 55 1 min 0,000 mm 6,0 UV-I 933 W/m 18,1 C 6,4 km/h (2 Bft)
21.07.2016 11:32 20,4 C 20,4 C 83 % 1014,5 hPa 0,0 mm 4,6 km/h (1 Bft) O-NO 77 1 min 0,000 mm 4,8 UV-I 933 W/m 17,4 C 6,4 km/h (2 Bft)
21.07.2016 11:33 20,4 C 20,4 C 84 % 1014,5 hPa 0,0 mm 4,8 km/h (1 Bft) O-NO 61 0 min 0,000 mm 4,0 UV-I 441 W/m 17,6 C 4,8 km/h (1 Bft)
21.07.2016 11:34 20,3 C 20,4 C 82 % 1014,4 hPa 0,0 mm 4,5 km/h (1 Bft) O-NO 73 0 min 0,000 mm 4,2 UV-I 441 W/m 17,1 C 6,4 km/h (2 Bft)
21.07.2016 11:35 20,2 C 20,3 C 81 % 1014,4 hPa 0,0 mm 1,5 km/h (1 Bft) O-NO 73 0 min 0,000 mm 4,1 UV-I 441 W/m 16,8 C 4,8 km/h (1 Bft)
21.07.2016 11:36 20,1 C 20,2 C 82 % 1014,5 hPa 0,0 mm 0,5 km/h (0 Bft) O-NO 73 1 min 0,000 mm 5,1 UV-I 522 W/m 16,9 C 1,6 km/h (1 Bft)
21.07.2016 11:37 20,2 C 20,2 C 83 % 1014,5 hPa 0,0 mm 0,2 km/h (0 Bft) O-NO 73 1 min 0,000 mm 6,2 UV-I 450 W/m 17,2 C 1,6 km/h (1 Bft)
21.07.2016 11:38 20,2 C 20,2 C 83 % 1014,5 hPa 0,0 mm 2,7 km/h (1 Bft) N-NW 339 1 min 0,000 mm 6,7 UV-I 450 W/m 17,2 C 4,8 km/h (1 Bft)
21.07.2016 11:39 20,4 C 20,4 C 86 % 1014,5 hPa 0,0 mm 4,8 km/h (1 Bft) N 360 1 min 0,000 mm 5,4 UV-I 450 W/m 18,0 C 6,4 km/h (2 Bft)
21.07.2016 11:40 20,5 C 20,5 C 83 % 1014,6 hPa 0,0 mm 4,2 km/h (1 Bft) N-NW 340 1 min 0,000 mm 4,0 UV-I 450 W/m 17,5 C 6,4 km/h (2 Bft)
21.07.2016 11:41 20,6 C 20,6 C 83 % 1014,6 hPa 0,0 mm 4,0 km/h (1 Bft) N-NW 335 1 min 0,000 mm 4,6 UV-I 471 W/m 17,6 C 6,4 km/h (2 Bft)
21.07.2016 11:42 20,7 C 20,7 C 84 % 1014,6 hPa 0,0 mm 3,4 km/h (1 Bft) N 360 0 min 0,000 mm 4,2 UV-I 432 W/m 17,9 C 4,8 km/h (1 Bft)
21.07.2016 11:43 20,8 C 20,8 C 83 % 1014,6 hPa 0,0 mm 5,8 km/h (2 Bft) O-NO 64 0 min 0,000 mm 3,5 UV-I 353 W/m 17,8 C 8,0 km/h (2 Bft)
21.07.2016 11:44 20,7 C 20,8 C 81 % 1014,6 hPa 0,0 mm 4,2 km/h (1 Bft) NO 44 0 min 0,000 mm 4,2 UV-I 366 W/m 17,3 C 6,4 km/h (2 Bft)
21.07.2016 11:45 20,5 C 20,7 C 81 % 1014,6 hPa 0,0 mm 3,6 km/h (1 Bft) N-NO 29 0 min 0,000 mm 4,0 UV-I 364 W/m 17,1 C 6,4 km/h (2 Bft)
21.07.2016 11:46 20,4 C 20,5 C 81 % 1014,6 hPa 0,0 mm 4,0 km/h (1 Bft) N 360 0 min 0,000 mm 3,9 UV-I 439 W/m 17,0 C 8,0 km/h (2 Bft)
21.07.2016 11:47 20,3 C 20,4 C 84 % 1014,6 hPa 0,0 mm 5,5 km/h (1 Bft) N 355 1 min 0,000 mm 5,1 UV-I 489 W/m 17,5 C 8,0 km/h (2 Bft)
21.07.2016 11:48 20,4 C 20,4 C 84 % 1014,6 hPa 0,0 mm 4,4 km/h (1 Bft) N 5 1 min 0,000 mm 6,5 UV-I 489 W/m 17,6 C 6,4 km/h (2 Bft)
21.07.2016 11:49 20,7 C 20,7 C 83 % 1014,6 hPa 0,0 mm 4,6 km/h (1 Bft) N 5 1 min 0,000 mm 6,2 UV-I 863 W/m 17,7 C 6,4 km/h (2 Bft)
21.07.2016 11:50 20,7 C 20,7 C 81 % 1014,6 hPa 0,0 mm 4,6 km/h (1 Bft) N-NO 13 1 min 0,000 mm 6,7 UV-I 916 W/m 17,3 C 4,8 km/h (1 Bft)
21.07.2016 11:51 20,7 C 20,7 C 80 % 1014,5 hPa 0,0 mm 3,0 km/h (1 Bft) N 5 1 min 0,000 mm 5,9 UV-I 916 W/m 17,1 C 4,8 km/h (1 Bft)
21.07.2016 11:52 20,8 C 20,8 C 80 % 1014,6 hPa 0,0 mm 3,4 km/h (1 Bft) N 11 1 min 0,000 mm 4,3 UV-I 780 W/m 17,2 C 6,4 km/h (2 Bft)
21.07.2016 11:53 21,0 C 21,0 C 85 % 1014,6 hPa 0,0 mm 3,6 km/h (1 Bft) NO 47 1 min 0,000 mm 6,0 UV-I 780 W/m 18,4 C 4,8 km/h (1 Bft)
21.07.2016 11:54 21,1 C 21,1 C 81 % 1014,6 hPa 0,0 mm 3,0 km/h (1 Bft) NO 52 1 min 0,000 mm 6,5 UV-I 780 W/m 17,7 C 4,8 km/h (1 Bft)
21.07.2016 11:55 21,1 C 21,1 C 79 % 1014,6 hPa 0,0 mm 2,9 km/h (1 Bft) O-NO 61 1 min 0,000 mm 6,5 UV-I 879 W/m 17,3 C 4,8 km/h (1 Bft)
21.07.2016 11:56 21,1 C 21,1 C 81 % 1014,5 hPa 0,0 mm 2,5 km/h (1 Bft) N 5 1 min 0,000 mm 6,7 UV-I 810 W/m 17,7 C 4,8 km/h (1 Bft)
21.07.2016 11:57 21,1 C 21,1 C 81 % 1014,5 hPa 0,0 mm 4,1 km/h (1 Bft) NO 44 1 min 0,000 mm 6,6 UV-I 882 W/m 17,7 C 6,4 km/h (2 Bft)
21.07.2016 11:58 21,2 C 21,2 C 79 % 1014,5 hPa 0,0 mm 2,7 km/h (1 Bft) NO 49 1 min 0,000 mm 6,6 UV-I 860 W/m 17,4 C 4,8 km/h (1 Bft)
21.07.2016 11:59 21,3 C 21,3 C 83 % 1014,4 hPa 0,0 mm 4,2 km/h (1 Bft) O 86 1 min 0,000 mm 6,7 UV-I 861 W/m 18,3 C 6,4 km/h (2 Bft)
21.07.2016 12:00 21,3 C 21,3 C 81 % 1014,4 hPa 0,0 mm 2,4 km/h (1 Bft) O 86 1 min 0,000 mm 6,7 UV-I 867 W/m 17,9 C 3,2 km/h (1 Bft)
21.07.2016 12:01 21,2 C 21,3 C 79 % 1014,4 hPa 0,0 mm 1,6 km/h (1 Bft) O 92 1 min 0,330 mm 6,8 UV-I 877 W/m 17,4 C 3,2 km/h (1 Bft)
21.07.2016 12:02 21,2 C 21,3 C 79 % 1014,4 hPa 0,0 mm 2,7 km/h (1 Bft) NO 47 1 min 0,000 mm 6,9 UV-I 886 W/m 17,4 C 3,2 km/h (1 Bft)
21.07.2016 12:03 21,2 C 21,2 C 79 % 1014,3 hPa 0,0 mm 4,1 km/h (1 Bft) NO 43 1 min 0,000 mm 6,9 UV-I 896 W/m 17,4 C 6,4 km/h (2 Bft)
21.07.2016 12:04 21,4 C 21,4 C 80 % 1014,4 hPa 0,0 mm 4,3 km/h (1 Bft) NO 35 1 min 0,000 mm 7,1 UV-I 947 W/m 17,8 C 6,4 km/h (2 Bft)
21.07.2016 12:05 21,6 C 21,6 C 78 % 1014,3 hPa 0,0 mm 2,4 km/h (1 Bft) N-NO 16 1 min 0,000 mm 7,4 UV-I 891 W/m 17,6 C 4,8 km/h (1 Bft)
21.07.2016 12:06 21,7 C 21,7 C 79 % 1014,3 hPa 0,0 mm 2,0 km/h (1 Bft) N 360 1 min 0,000 mm 7,4 UV-I 891 W/m 17,9 C 4,8 km/h (1 Bft)
21.07.2016 12:07 21,7 C 21,7 C 76 % 1014,3 hPa 0,0 mm 2,7 km/h (1 Bft) O-NO 69 1 min 0,000 mm 6,7 UV-I 891 W/m 17,3 C 4,8 km/h (1 Bft)
21.07.2016 12:08 21,8 C 21,8 C 79 % 1014,3 hPa 0,0 mm 3,0 km/h (1 Bft) NO 55 1 min 0,000 mm 6,3 UV-I 891 W/m 18,0 C 4,8 km/h (1 Bft)
21.07.2016 12:09 21,7 C 21,8 C 76 % 1014,2 hPa 0,0 mm 3,3 km/h (1 Bft) O-NO 73 1 min 0,000 mm 5,7 UV-I 891 W/m 17,3 C 4,8 km/h (1 Bft)
21.07.2016 12:10 21,7 C 21,8 C 77 % 1014,2 hPa 0,0 mm 4,6 km/h (1 Bft) O-NO 63 1 min 0,000 mm 4,6 UV-I 891 W/m 17,5 C 6,4 km/h (2 Bft)
21.07.2016 12:11 21,6 C 21,7 C 78 % 1014,2 hPa 0,0 mm 1,9 km/h (1 Bft) N-NO 18 0 min 0,000 mm 4,1 UV-I 411 W/m 17,6 C 4,8 km/h (1 Bft)
21.07.2016 12:12 21,4 C 21,6 C 81 % 1014,2 hPa 0,0 mm 3,0 km/h (1 Bft) N-NO 32 0 min 0,000 mm 4,1 UV-I 408 W/m 18,0 C 4,8 km/h (1 Bft)
21.07.2016 12:13 21,3 C 21,4 C 78 % 1014,2 hPa 0,0 mm 3,3 km/h (1 Bft) NO 44 0 min 0,000 mm 4,1 UV-I 404 W/m 17,3 C 4,8 km/h (1 Bft)
21.07.2016 12:14 21,2 C 21,3 C 77 % 1014,2 hPa 0,0 mm 2,5 km/h (1 Bft) NO 53 0 min 0,000 mm 4,1 UV-I 406 W/m 17,0 C 3,2 km/h (1 Bft)
21.07.2016 12:15 21,2 C 21,2 C 80 % 1014,2 hPa 0,0 mm 3,5 km/h (1 Bft) N-NO 15 0 min 0,000 mm 4,9 UV-I 406 W/m 17,6 C 4,8 km/h (1 Bft)
21.07.2016 12:16 21,2 C 21,2 C 78 % 1014,2 hPa 0,0 mm 2,3 km/h (1 Bft) N 10 1 min 0,000 mm 5,2 UV-I 540 W/m 17,2 C 3,2 km/h (1 Bft)
21.07.2016 12:17 21,2 C 21,2 C 79 % 1014,2 hPa 0,0 mm 1,5 km/h (1 Bft) N 10 1 min 0,000 mm 5,0 UV-I 555 W/m 17,4 C 3,2 km/h (1 Bft)
21.07.2016 12:18 21,3 C 21,3 C 78 % 1014,1 hPa 0,0 mm 2,3 km/h (1 Bft) N 5 1 min 0,000 mm 4,9 UV-I 480 W/m 17,3 C 3,2 km/h (1 Bft)
21.07.2016 12:19 21,4 C 21,4 C 80 % 1014,1 hPa 0,0 mm 4,2 km/h (1 Bft) N-NW 339 1 min 0,000 mm 5,8 UV-I 552 W/m 17,8 C 4,8 km/h (1 Bft)
21.07.2016 12:20 21,6 C 21,6 C 79 % 1014,2 hPa 0,0 mm 4,6 km/h (1 Bft) NW 310 1 min 0,000 mm 5,4 UV-I 587 W/m 17,8 C 6,4 km/h (2 Bft)
21.07.2016 12:21 21,7 C 21,7 C 80 % 1014,2 hPa 0,0 mm 4,3 km/h (1 Bft) NW 304 1 min 0,000 mm 5,7 UV-I 587 W/m 18,1 C 4,8 km/h (1 Bft)
21.07.2016 12:22 21,8 C 21,8 C 80 % 1014,2 hPa 0,0 mm 2,6 km/h (1 Bft) N-NO 13 1 min 0,000 mm 7,1 UV-I 587 W/m 18,2 C 4,8 km/h (1 Bft)
21.07.2016 12:23 21,9 C 21,9 C 77 % 1014,2 hPa 0,0 mm 1,7 km/h (1 Bft) O-NO 61 1 min 0,000 mm 7,0 UV-I 877 W/m 17,7 C 3,2 km/h (1 Bft)
21.07.2016 12:24 22,0 C 22,0 C 77 % 1014,2 hPa 0,0 mm 2,7 km/h (1 Bft) NW 309 1 min 0,000 mm 7,0 UV-I 863 W/m 17,8 C 4,8 km/h (1 Bft)
21.07.2016 12:25 22,0 C 22,1 C 75 % 1014,3 hPa 0,0 mm 5,1 km/h (1 Bft) N 11 1 min 0,000 mm 7,0 UV-I 856 W/m 17,4 C 6,4 km/h (2 Bft)
21.07.2016 12:26 22,1 C 22,1 C 78 % 1014,3 hPa 0,0 mm 5,2 km/h (1 Bft) N-NO 13 1 min 0,000 mm 7,0 UV-I 851 W/m 18,1 C 8,0 km/h (2 Bft)
21.07.2016 12:27 22,1 C 22,1 C 75 % 1014,3 hPa 0,0 mm 2,5 km/h (1 Bft) O-NO 59 1 min 0,000 mm 6,9 UV-I 849 W/m 17,5 C 3,2 km/h (1 Bft)
21.07.2016 12:28 22,0 C 22,1 C 77 % 1014,3 hPa 0,0 mm 0,7 km/h (0 Bft) O-NO 59 1 min 0,000 mm 7,0 UV-I 853 W/m 17,8 C 1,6 km/h (1 Bft)
21.07.2016 12:29 22,0 C 22,0 C 75 % 1014,3 hPa 0,0 mm 4,1 km/h (1 Bft) NO 48 1 min 0,000 mm 7,0 UV-I 860 W/m 17,4 C 6,4 km/h (2 Bft)
21.07.2016 12:30 22,2 C 22,2 C 80 % 1014,3 hPa 0,0 mm 2,0 km/h (1 Bft) O 88 1 min 0,000 mm 7,2 UV-I 802 W/m 18,6 C 4,8 km/h (1 Bft)
21.07.2016 12:31 22,1 C 22,2 C 81 % 1014,2 hPa 0,0 mm 1,0 km/h (0 Bft) O-NO 66 1 min 0,000 mm 4,9 UV-I 802 W/m 18,7 C 3,2 km/h (1 Bft)
21.07.2016 12:32 22,1 C 22,1 C 74 % 1014,2 hPa 0,0 mm 2,2 km/h (1 Bft) NW 316 1 min 0,000 mm 6,7 UV-I 853 W/m 17,2 C 3,2 km/h (1 Bft)
21.07.2016 12:33 22,0 C 22,1 C 76 % 1014,2 hPa 0,0 mm 2,2 km/h (1 Bft) O-NO 75 1 min 0,000 mm 6,9 UV-I 844 W/m 17,6 C 6,4 km/h (2 Bft)
21.07.2016 12:34 22,1 C 22,1 C 77 % 1014,2 hPa 0,0 mm 5,8 km/h (2 Bft) SO 128 1 min 0,000 mm 6,9 UV-I 844 W/m 17,9 C 9,7 km/h (2 Bft)
21.07.2016 12:35 21,9 C 22,1 C 74 % 1014,1 hPa 0,0 mm 3,8 km/h (1 Bft) O-NO 64 1 min 0,000 mm 7,0 UV-I 847 W/m 17,0 C 6,4 km/h (2 Bft)
21.07.2016 12:36 21,9 C 21,9 C 72 % 1014,1 hPa 0,0 mm 3,8 km/h (1 Bft) O-SO 106 1 min 0,000 mm 6,9 UV-I 842 W/m 16,6 C 6,4 km/h (2 Bft)
21.07.2016 12:37 21,8 C 21,9 C 69 % 1014,1 hPa 0,0 mm 1,8 km/h (1 Bft) S-SO 168 1 min 0,000 mm 7,0 UV-I 844 W/m 15,9 C 4,8 km/h (1 Bft)
21.07.2016 12:38 21,8 C 21,8 C 70 % 1014,1 hPa 0,0 mm 1,7 km/h (1 Bft) S 174 1 min 0,000 mm 7,0 UV-I 847 W/m 16,1 C 3,2 km/h (1 Bft)
21.07.2016 12:39 22,1 C 22,1 C 76 % 1014,1 hPa 0,0 mm 1,1 km/h (1 Bft) SO 139 1 min 0,000 mm 7,1 UV-I 867 W/m 17,7 C 1,6 km/h (1 Bft)
21.07.2016 12:40 22,3 C 22,3 C 74 % 1014,1 hPa 0,0 mm 2,1 km/h (1 Bft) O-NO 59 1 min 0,000 mm 7,3 UV-I 884 W/m 17,4 C 3,2 km/h (1 Bft)
21.07.2016 12:41 22,3 C 22,3 C 73 % 1014,1 hPa 0,0 mm 1,8 km/h (1 Bft) NO 40 1 min 0,000 mm 7,4 UV-I 905 W/m 17,2 C 3,2 km/h (1 Bft)
21.07.2016 12:42 22,4 C 22,4 C 69 % 1014,1 hPa 0,0 mm 2,7 km/h (1 Bft) O 81 1 min 0,000 mm 5,8 UV-I 905 W/m 16,4 C 6,4 km/h (2 Bft)
21.07.2016 12:43 22,4 C 22,4 C 70 % 1014,1 hPa 0,0 mm 2,7 km/h (1 Bft) O 80 1 min 0,000 mm 5,6 UV-I 905 W/m 16,7 C 6,4 km/h (2 Bft)
21.07.2016 12:44 22,3 C 22,4 C 73 % 1014,1 hPa 0,0 mm 3,2 km/h (1 Bft) S-SO 162 1 min 0,000 mm 6,2 UV-I 905 W/m 17,2 C 6,4 km/h (2 Bft)
21.07.2016 12:45 22,3 C 22,3 C 70 % 1014,1 hPa 0,0 mm 3,4 km/h (1 Bft) S-SO 159 1 min 0,000 mm 7,2 UV-I 860 W/m 16,6 C 8,0 km/h (2 Bft)
21.07.2016 12:46 22,3 C 22,3 C 72 % 1014,0 hPa 0,0 mm 1,6 km/h (1 Bft) S-SO 159 1 min 0,000 mm 7,0 UV-I 849 W/m 17,0 C 3,2 km/h (1 Bft)
21.07.2016 12:47 22,3 C 22,3 C 72 % 1014,0 hPa 0,0 mm 2,5 km/h (1 Bft) S 190 1 min 0,000 mm 7,0 UV-I 844 W/m 17,0 C 4,8 km/h (1 Bft)
21.07.2016 12:48 22,3 C 22,3 C 74 % 1014,0 hPa 0,0 mm 0,8 km/h (0 Bft) S 190 1 min 0,000 mm 7,0 UV-I 844 W/m 17,4 C 3,2 km/h (1 Bft)
21.07.2016 12:49 22,3 C 22,3 C 76 % 1014,0 hPa 0,0 mm 2,0 km/h (1 Bft) W-NW 292 1 min 0,000 mm 7,0 UV-I 846 W/m 17,9 C 3,2 km/h (1 Bft)
21.07.2016 12:50 22,5 C 22,5 C 76 % 1014,0 hPa 0,0 mm 2,8 km/h (1 Bft) NO 47 1 min 0,000 mm 7,1 UV-I 846 W/m 18,0 C 4,8 km/h (1 Bft)
21.07.2016 12:51 22,7 C 22,7 C 71 % 1014,0 hPa 0,0 mm 4,5 km/h (1 Bft) O-NO 68 1 min 0,000 mm 7,1 UV-I 846 W/m 17,2 C 6,4 km/h (2 Bft)
21.07.2016 12:52 22,8 C 22,8 C 70 % 1014,0 hPa 0,0 mm 1,9 km/h (1 Bft) O-NO 67 1 min 0,000 mm 7,1 UV-I 847 W/m 17,0 C 4,8 km/h (1 Bft)
21.07.2016 12:53 22,7 C 22,8 C 69 % 1013,9 hPa 0,0 mm 1,3 km/h (1 Bft) O-NO 67 1 min 0,000 mm 7,1 UV-I 847 W/m 16,7 C 3,2 km/h (1 Bft)
21.07.2016 12:54 22,6 C 22,7 C 71 % 1013,9 hPa 0,0 mm 1,5 km/h (1 Bft) N 360 1 min 0,000 mm 7,1 UV-I 849 W/m 17,1 C 3,2 km/h (1 Bft)
21.07.2016 12:55 22,7 C 22,7 C 67 % 1013,9 hPa 0,0 mm 2,8 km/h (1 Bft) NW 323 1 min 0,000 mm 7,1 UV-I 858 W/m 16,2 C 3,2 km/h (1 Bft)
21.07.2016 12:56 22,8 C 22,8 C 71 % 1013,9 hPa 0,0 mm 5,0 km/h (1 Bft) NO 37 1 min 0,000 mm 7,2 UV-I 865 W/m 17,3 C 8,0 km/h (2 Bft)
21.07.2016 12:57 22,8 C 22,8 C 69 % 1013,8 hPa 0,0 mm 6,3 km/h (2 Bft) SO 124 1 min 0,000 mm 7,2 UV-I 900 W/m 16,8 C 9,7 km/h (2 Bft)
21.07.2016 12:58 22,8 C 22,8 C 68 % 1013,8 hPa 0,0 mm 3,4 km/h (1 Bft) S-SO 157 1 min 0,000 mm 7,4 UV-I 891 W/m 16,6 C 6,4 km/h (2 Bft)
21.07.2016 12:59 22,8 C 22,8 C 65 % 1013,8 hPa 0,0 mm 2,3 km/h (1 Bft) S-SO 163 1 min 0,000 mm 6,7 UV-I 793 W/m 15,9 C 3,2 km/h (1 Bft)
21.07.2016 13:00 22,8 C 22,8 C 68 % 1013,7 hPa 0,0 mm 2,8 km/h (1 Bft) SW 231 1 min 0,000 mm 5,4 UV-I 793 W/m 16,6 C 4,8 km/h (1 Bft)
21.07.2016 13:01 22,8 C 22,8 C 66 % 1013,7 hPa 0,0 mm 2,5 km/h (1 Bft) SW 231 1 min 0,457 mm 7,5 UV-I 793 W/m 16,1 C 3,2 km/h (1 Bft)
21.07.2016 13:02 22,9 C 22,9 C 70 % 1013,7 hPa 0,0 mm 0,6 km/h (0 Bft) SW 231 1 min 0,001 mm 6,1 UV-I 793 W/m 17,1 C 1,6 km/h (1 Bft)
21.07.2016 13:03 23,1 C 23,1 C 71 % 1013,8 hPa 0,0 mm 1,8 km/h (1 Bft) NO 37 1 min 0,000 mm 7,5 UV-I 793 W/m 17,5 C 4,8 km/h (1 Bft)
21.07.2016 13:04 23,2 C 23,2 C 64 % 1013,8 hPa 0,0 mm 2,1 km/h (1 Bft) N-NO 25 1 min 0,000 mm 7,4 UV-I 918 W/m 16,0 C 3,2 km/h (1 Bft)
21.07.2016 13:05 23,3 C 23,3 C 64 % 1013,8 hPa 0,0 mm 3,3 km/h (1 Bft) O 83 1 min 0,000 mm 7,4 UV-I 912 W/m 16,1 C 4,8 km/h (1 Bft)
21.07.2016 13:06 23,2 C 23,3 C 64 % 1013,9 hPa 0,0 mm 2,4 km/h (1 Bft) O 90 1 min 0,000 mm 7,4 UV-I 921 W/m 16,0 C 4,8 km/h (1 Bft)
21.07.2016 13:07 23,1 C 23,2 C 62 % 1013,9 hPa 0,0 mm 1,3 km/h (1 Bft) O 90 1 min 0,000 mm 5,5 UV-I 838 W/m 15,4 C 3,2 km/h (1 Bft)
21.07.2016 13:08 23,1 C 23,1 C 64 % 1013,8 hPa 0,0 mm 0,1 km/h (0 Bft) O 90 1 min 0,000 mm 7,6 UV-I 838 W/m 15,9 C 1,6 km/h (1 Bft)
21.07.2016 13:09 23,1 C 23,1 C 65 % 1013,9 hPa 0,0 mm 0,6 km/h (0 Bft) O 86 1 min 0,000 mm 7,0 UV-I 838 W/m 16,2 C 3,2 km/h (1 Bft)
21.07.2016 13:10 23,1 C 23,1 C 67 % 1013,8 hPa 0,0 mm 2,2 km/h (1 Bft) N-NO 20 1 min 0,000 mm 5,5 UV-I 838 W/m 16,6 C 3,2 km/h (1 Bft)
21.07.2016 13:11 23,3 C 23,3 C 67 % 1013,8 hPa 0,0 mm 2,8 km/h (1 Bft) N-NO 21 1 min 0,000 mm 7,1 UV-I 599 W/m 16,8 C 4,8 km/h (1 Bft)
21.07.2016 13:12 23,4 C 23,4 C 67 % 1013,8 hPa 0,0 mm 1,2 km/h (1 Bft) N 360 1 min 0,000 mm 7,9 UV-I 599 W/m 16,9 C 3,2 km/h (1 Bft)
21.07.2016 13:13 23,6 C 23,6 C 69 % 1013,8 hPa 0,0 mm 1,4 km/h (1 Bft) O-SO 111 1 min 0,000 mm 8,3 UV-I 599 W/m 17,6 C 3,2 km/h (1 Bft)
21.07.2016 13:14 23,6 C 23,6 C 63 % 1013,8 hPa 0,0 mm 0,9 km/h (0 Bft) O-SO 111 1 min 0,000 mm 6,3 UV-I 599 W/m 16,1 C 3,2 km/h (1 Bft)
21.07.2016 13:15 23,7 C 23,7 C 70 % 1013,7 hPa 0,0 mm 1,9 km/h (1 Bft) N 355 1 min 0,000 mm 7,5 UV-I 599 W/m 17,9 C 3,2 km/h (1 Bft)
21.07.2016 13:16 23,8 C 23,8 C 66 % 1013,7 hPa 0,0 mm 1,7 km/h (1 Bft) N 355 1 min 0,000 mm 6,1 UV-I 599 W/m 17,1 C 3,2 km/h (1 Bft)
21.07.2016 13:17 23,8 C 23,8 C 63 % 1013,7 hPa 0,0 mm 0,8 km/h (0 Bft) NW 325 1 min 0,000 mm 4,4 UV-I 599 W/m 16,3 C 3,2 km/h (1 Bft)
21.07.2016 13:18 23,7 C 23,8 C 68 % 1013,6 hPa 0,0 mm 2,1 km/h (1 Bft) NO 55 1 min 0,000 mm 5,3 UV-I 599 W/m 17,4 C 4,8 km/h (1 Bft)
21.07.2016 13:19 23,7 C 23,7 C 67 % 1013,6 hPa 0,0 mm 2,8 km/h (1 Bft) O-NO 64 1 min 0,000 mm 6,4 UV-I 599 W/m 17,2 C 4,8 km/h (1 Bft)
21.07.2016 13:20 23,7 C 23,7 C 65 % 1013,6 hPa 0,0 mm 0,5 km/h (0 Bft) O-NO 64 1 min 0,000 mm 7,7 UV-I 951 W/m 16,7 C 1,6 km/h (1 Bft)
21.07.2016 13:21 23,8 C 23,8 C 72 % 1013,6 hPa 0,0 mm 2,8 km/h (1 Bft) SW 219 1 min 0,000 mm 7,5 UV-I 926 W/m 18,4 C 3,2 km/h (1 Bft)
21.07.2016 13:22 23,9 C 23,9 C 68 % 1013,6 hPa 0,0 mm 2,7 km/h (1 Bft) W 261 1 min 0,000 mm 7,4 UV-I 926 W/m 17,6 C 4,8 km/h (1 Bft)
21.07.2016 13:23 24,0 C 24,0 C 65 % 1013,7 hPa 0,0 mm 3,4 km/h (1 Bft) W 260 1 min 0,000 mm 7,4 UV-I 896 W/m 17,0 C 4,8 km/h (1 Bft)
21.07.2016 13:24 24,1 C 24,1 C 66 % 1013,7 hPa 0,0 mm 6,6 km/h (2 Bft) W-NW 288 1 min 0,000 mm 7,3 UV-I 886 W/m 17,3 C 9,7 km/h (2 Bft)
21.07.2016 13:25 24,3 C 24,3 C 65 % 1013,6 hPa 0,0 mm 6,2 km/h (2 Bft) W 279 1 min 0,000 mm 7,3 UV-I 877 W/m 17,3 C 11,3 km/h (2 Bft)
21.07.2016 13:26 24,4 C 24,4 C 65 % 1013,7 hPa 0,0 mm 6,3 km/h (2 Bft) NW 313 1 min 0,000 mm 7,3 UV-I 872 W/m 17,4 C 9,7 km/h (2 Bft)
21.07.2016 13:27 24,4 C 24,4 C 61 % 1013,7 hPa 0,0 mm 6,0 km/h (2 Bft) NW 319 1 min 0,000 mm 7,1 UV-I 856 W/m 16,4 C 9,7 km/h (2 Bft)
21.07.2016 13:28 24,4 C 24,4 C 60 % 1013,6 hPa 0,0 mm 5,4 km/h (1 Bft) NW 309 1 min 0,000 mm 6,9 UV-I 893 W/m 16,1 C 11,3 km/h (2 Bft)
21.07.2016 13:29 24,4 C 24,4 C 63 % 1013,7 hPa 0,0 mm 5,0 km/h (1 Bft) NW 304 1 min 0,000 mm 6,7 UV-I 893 W/m 16,9 C 6,4 km/h (2 Bft)
21.07.2016 13:30 24,4 C 24,4 C 61 % 1013,7 hPa 0,0 mm 10,1 km/h (2 Bft) W 275 1 min 0,000 mm 6,7 UV-I 893 W/m 16,4 C 14,5 km/h (3 Bft)
21.07.2016 13:31 24,4 C 24,4 C 60 % 1013,7 hPa 0,0 mm 8,3 km/h (2 Bft) W 281 1 min 0,000 mm 7,2 UV-I 893 W/m 16,1 C 14,5 km/h (3 Bft)
21.07.2016 13:32 24,5 C 24,5 C 62 % 1013,7 hPa 0,0 mm 9,0 km/h (2 Bft) NW 310 1 min 0,000 mm 7,5 UV-I 947 W/m 16,7 C 14,5 km/h (3 Bft)
21.07.2016 13:33 24,5 C 24,5 C 61 % 1013,7 hPa 0,0 mm 4,9 km/h (1 Bft) W-NW 283 1 min 0,000 mm 6,5 UV-I 858 W/m 16,5 C 11,3 km/h (2 Bft)
21.07.2016 13:34 24,6 C 24,6 C 61 % 1013,6 hPa 0,0 mm 12,5 km/h (3 Bft) W-SW 248 1 min 0,000 mm 8,0 UV-I 858 W/m 16,6 C 17,7 km/h (3 Bft)
21.07.2016 13:35 24,7 C 24,7 C 60 % 1013,7 hPa 0,0 mm 11,3 km/h (2 Bft) W 261 1 min 0,000 mm 6,3 UV-I 858 W/m 16,4 C 17,7 km/h (3 Bft)
21.07.2016 13:36 24,6 C 24,7 C 59 % 1013,6 hPa 0,0 mm 10,5 km/h (2 Bft) W 269 1 min 0,000 mm 7,6 UV-I 967 W/m 16,0 C 14,5 km/h (3 Bft)
21.07.2016 13:37 24,6 C 24,6 C 62 % 1013,6 hPa 0,0 mm 8,5 km/h (2 Bft) W-NW 286 1 min 0,000 mm 7,3 UV-I 967 W/m 16,8 C 11,3 km/h (2 Bft)
21.07.2016 13:38 24,6 C 24,6 C 62 % 1013,6 hPa 0,0 mm 4,6 km/h (1 Bft) W 261 1 min 0,000 mm 5,8 UV-I 967 W/m 16,8 C 12,9 km/h (3 Bft)
21.07.2016 13:39 24,5 C 24,6 C 59 % 1013,6 hPa 0,0 mm 1,5 km/h (1 Bft) W 261 1 min 0,000 mm 7,6 UV-I 967 W/m 15,9 C 3,2 km/h (1 Bft)
21.07.2016 13:40 24,5 C 24,6 C 61 % 1013,5 hPa 0,0 mm 6,4 km/h (2 Bft) NW 305 1 min 0,000 mm 7,7 UV-I 967 W/m 16,5 C 11,3 km/h (2 Bft)
21.07.2016 13:41 24,6 C 24,6 C 62 % 1013,5 hPa 0,0 mm 8,8 km/h (2 Bft) W 259 1 min 0,000 mm 7,3 UV-I 666 W/m 16,8 C 12,9 km/h (3 Bft)
21.07.2016 13:42 24,6 C 24,6 C 62 % 1013,4 hPa 0,0 mm 6,8 km/h (2 Bft) W 265 1 min 0,000 mm 7,3 UV-I 666 W/m 16,8 C 9,7 km/h (2 Bft)
21.07.2016 13:43 24,6 C 24,6 C 62 % 1013,5 hPa 0,0 mm 9,6 km/h (2 Bft) W-NW 289 1 min 0,000 mm 7,2 UV-I 854 W/m 16,8 C 16,1 km/h (3 Bft)
21.07.2016 13:44 24,7 C 24,7 C 63 % 1013,4 hPa 0,0 mm 4,9 km/h (1 Bft) W 273 1 min 0,000 mm 7,2 UV-I 853 W/m 17,2 C 8,0 km/h (2 Bft)
21.07.2016 13:45 24,7 C 24,7 C 61 % 1013,4 hPa 0,0 mm 7,7 km/h (2 Bft) W-NW 298 1 min 0,000 mm 7,1 UV-I 847 W/m 16,7 C 16,1 km/h (3 Bft)
21.07.2016 13:46 24,7 C 24,7 C 62 % 1013,3 hPa 0,0 mm 7,3 km/h (2 Bft) W-NW 286 1 min 0,000 mm 7,1 UV-I 847 W/m 16,9 C 12,9 km/h (3 Bft)
21.07.2016 13:47 24,7 C 24,7 C 60 % 1013,4 hPa 0,0 mm 9,9 km/h (2 Bft) W-NW 286 1 min 0,000 mm 7,1 UV-I 846 W/m 16,4 C 12,9 km/h (3 Bft)
21.07.2016 13:48 24,7 C 24,7 C 60 % 1013,4 hPa 0,0 mm 6,1 km/h (2 Bft) W 271 1 min 0,000 mm 7,1 UV-I 847 W/m 16,4 C 11,3 km/h (2 Bft)
21.07.2016 13:49 24,6 C 24,7 C 60 % 1013,3 hPa 0,0 mm 5,2 km/h (1 Bft) W 269 1 min 0,000 mm 7,1 UV-I 844 W/m 16,3 C 9,7 km/h (2 Bft)
21.07.2016 13:50 24,7 C 24,7 C 63 % 1013,3 hPa 0,0 mm 6,4 km/h (2 Bft) W-SW 254 1 min 0,000 mm 7,1 UV-I 842 W/m 17,2 C 11,3 km/h (2 Bft)
21.07.2016 13:51 24,8 C 24,8 C 69 % 1013,3 hPa 0,0 mm 7,3 km/h (2 Bft) W 273 1 min 0,000 mm 7,1 UV-I 842 W/m 18,7 C 12,9 km/h (3 Bft)
21.07.2016 13:52 24,9 C 24,9 C 64 % 1013,3 hPa 0,0 mm 9,2 km/h (2 Bft) W-NW 292 1 min 0,000 mm 7,1 UV-I 844 W/m 17,6 C 14,5 km/h (3 Bft)
21.07.2016 13:53 25,1 C 25,1 C 63 % 1013,3 hPa 0,0 mm 7,0 km/h (2 Bft) NW 310 1 min 0,000 mm 7,1 UV-I 844 W/m 17,5 C 12,9 km/h (3 Bft)
21.07.2016 13:54 25,1 C 25,1 C 59 % 1013,3 hPa 0,0 mm 5,1 km/h (1 Bft) NW 313 1 min 0,000 mm 7,0 UV-I 842 W/m 16,5 C 6,4 km/h (2 Bft)
21.07.2016 13:55 24,9 C 25,1 C 61 % 1013,3 hPa 0,0 mm 6,3 km/h (2 Bft) NW 315 1 min 0,000 mm 7,0 UV-I 842 W/m 16,8 C 11,3 km/h (2 Bft)
21.07.2016 13:56 25,1 C 25,1 C 66 % 1013,3 hPa 0,0 mm 6,3 km/h (2 Bft) W-NW 296 1 min 0,000 mm 7,1 UV-I 844 W/m 18,3 C 9,7 km/h (2 Bft)
21.07.2016 13:57 25,0 C 25,1 C 62 % 1013,3 hPa 0,0 mm 7,4 km/h (2 Bft) W 279 1 min 0,000 mm 7,1 UV-I 847 W/m 17,2 C 11,3 km/h (2 Bft)
21.07.2016 13:58 25,0 C 25,0 C 59 % 1013,3 hPa 0,0 mm 6,4 km/h (2 Bft) W 271 1 min 0,000 mm 7,1 UV-I 854 W/m 16,4 C 11,3 km/h (2 Bft)
21.07.2016 13:59 25,0 C 25,0 C 62 % 1013,3 hPa 0,0 mm 7,7 km/h (2 Bft) W-NW 292 1 min 0,000 mm 7,1 UV-I 863 W/m 17,2 C 11,3 km/h (2 Bft)
21.07.2016 14:00 25,0 C 25,0 C 63 % 1013,3 hPa 0,0 mm 10,3 km/h (2 Bft) W 263 1 min 0,533 mm 7,2 UV-I 874 W/m 17,5 C 12,9 km/h (3 Bft)
21.07.2016 14:01 24,9 C 25,0 C 60 % 1013,4 hPa 0,0 mm 6,6 km/h (2 Bft) W 274 1 min 0,000 mm 7,2 UV-I 902 W/m 16,6 C 11,3 km/h (2 Bft)
21.07.2016 14:02 24,8 C 24,9 C 61 % 1013,3 hPa 0,0 mm 4,1 km/h (1 Bft) W-NW 294 1 min 0,000 mm 6,9 UV-I 882 W/m 16,8 C 6,4 km/h (2 Bft)
21.07.2016 14:03 24,8 C 24,8 C 63 % 1013,3 hPa 0,0 mm 5,8 km/h (2 Bft) W 263 1 min 0,000 mm 6,4 UV-I 784 W/m 17,3 C 11,3 km/h (2 Bft)
21.07.2016 14:04 24,9 C 24,9 C 63 % 1013,3 hPa 0,0 mm 10,9 km/h (2 Bft) NW 305 1 min 0,000 mm 5,6 UV-I 784 W/m 17,4 C 14,5 km/h (3 Bft)
21.07.2016 14:05 24,9 C 24,9 C 60 % 1013,3 hPa 0,0 mm 8,7 km/h (2 Bft) W-NW 290 1 min 0,000 mm 6,1 UV-I 640 W/m 16,6 C 12,9 km/h (3 Bft)
21.07.2016 14:06 24,9 C 24,9 C 61 % 1013,3 hPa 0,0 mm 5,2 km/h (1 Bft) W 276 1 min 0,000 mm 6,1 UV-I 729 W/m 16,8 C 6,4 km/h (2 Bft)
21.07.2016 14:07 24,8 C 24,9 C 61 % 1013,3 hPa 0,0 mm 4,3 km/h (1 Bft) NW 306 1 min 0,000 mm 6,5 UV-I 650 W/m 16,8 C 8,0 km/h (2 Bft)
21.07.2016 14:08 24,7 C 24,8 C 61 % 1013,2 hPa 0,0 mm 4,2 km/h (1 Bft) NW 321 1 min 0,000 mm 6,1 UV-I 659 W/m 16,7 C 8,0 km/h (2 Bft)
21.07.2016 14:09 24,7 C 24,7 C 60 % 1013,2 hPa 0,0 mm 1,8 km/h (1 Bft) W-NW 295 1 min 0,000 mm 6,9 UV-I 659 W/m 16,4 C 4,8 km/h (1 Bft)
21.07.2016 14:10 24,8 C 24,8 C 63 % 1013,2 hPa 0,0 mm 5,0 km/h (1 Bft) W 259 1 min 0,000 mm 7,4 UV-I 949 W/m 17,3 C 11,3 km/h (2 Bft)
21.07.2016 14:11 24,9 C 24,9 C 64 % 1013,2 hPa 0,0 mm 6,2 km/h (2 Bft) W-NW 297 1 min 0,000 mm 7,4 UV-I 944 W/m 17,6 C 11,3 km/h (2 Bft)
21.07.2016 14:12 24,9 C 24,9 C 64 % 1013,3 hPa 0,0 mm 6,7 km/h (2 Bft) W-SW 255 1 min 0,000 mm 6,7 UV-I 828 W/m 17,6 C 11,3 km/h (2 Bft)
21.07.2016 14:13 25,1 C 25,1 C 62 % 1013,2 hPa 0,0 mm 9,9 km/h (2 Bft) W 275 1 min 0,000 mm 7,3 UV-I 853 W/m 17,3 C 12,9 km/h (3 Bft)
21.07.2016 14:14 25,1 C 25,2 C 61 % 1013,2 hPa 0,0 mm 7,4 km/h (2 Bft) NW 316 1 min 0,000 mm 7,5 UV-I 874 W/m 17,0 C 12,9 km/h (3 Bft)
21.07.2016 14:15 25,2 C 25,2 C 63 % 1013,2 hPa 0,0 mm 6,6 km/h (2 Bft) W-NW 302 1 min 0,000 mm 6,6 UV-I 877 W/m 17,6 C 12,9 km/h (3 Bft)
21.07.2016 14:16 25,2 C 25,2 C 60 % 1013,3 hPa 0,0 mm 8,0 km/h (2 Bft) W 263 1 min 0,000 mm 6,5 UV-I 881 W/m 16,9 C 14,5 km/h (3 Bft)
21.07.2016 14:17 25,1 C 25,2 C 60 % 1013,3 hPa 0,0 mm 4,6 km/h (1 Bft) W-NW 299 1 min 0,000 mm 6,6 UV-I 847 W/m 16,8 C 6,4 km/h (2 Bft)
21.07.2016 14:18 25,1 C 25,1 C 60 % 1013,2 hPa 0,0 mm 11,0 km/h (2 Bft) NW 313 1 min 0,000 mm 6,0 UV-I 847 W/m 16,8 C 14,5 km/h (3 Bft)
21.07.2016 14:19 25,0 C 25,1 C 61 % 1013,2 hPa 0,0 mm 5,2 km/h (1 Bft) W-NW 300 1 min 0,000 mm 4,8 UV-I 896 W/m 16,9 C 12,9 km/h (3 Bft)
21.07.2016 14:20 25,0 C 25,0 C 64 % 1013,2 hPa 0,0 mm 7,1 km/h (2 Bft) N-NW 343 1 min 0,000 mm 6,4 UV-I 995 W/m 17,7 C 11,3 km/h (2 Bft)
21.07.2016 14:21 25,1 C 25,1 C 62 % 1013,2 hPa 0,0 mm 6,8 km/h (2 Bft) W 265 1 min 0,000 mm 6,0 UV-I 995 W/m 17,3 C 12,9 km/h (3 Bft)
21.07.2016 14:22 25,1 C 25,1 C 61 % 1013,2 hPa 0,0 mm 7,9 km/h (2 Bft) W-SW 245 1 min 0,000 mm 7,6 UV-I 995 W/m 17,0 C 12,9 km/h (3 Bft)
21.07.2016 14:23 25,0 C 25,1 C 62 % 1013,2 hPa 0,0 mm 6,6 km/h (2 Bft) W 271 1 min 0,000 mm 7,5 UV-I 1005 W/m 17,2 C 11,3 km/h (2 Bft)
21.07.2016 14:24 25,1 C 25,1 C 60 % 1013,1 hPa 0,0 mm 13,6 km/h (3 Bft) W-NW 298 1 min 0,000 mm 6,0 UV-I 1005 W/m 16,8 C 16,1 km/h (3 Bft)
21.07.2016 14:25 25,0 C 25,1 C 63 % 1013,1 hPa 0,0 mm 9,7 km/h (2 Bft) W 276 0 min 0,000 mm 5,5 UV-I 403 W/m 17,5 C 14,5 km/h (3 Bft)
21.07.2016 14:26 24,9 C 25,0 C 58 % 1013,1 hPa 0,0 mm 7,7 km/h (2 Bft) W-SW 244 0 min 0,000 mm 7,1 UV-I 403 W/m 16,1 C 11,3 km/h (2 Bft)
21.07.2016 14:27 24,9 C 24,9 C 62 % 1013,1 hPa 0,0 mm 9,3 km/h (2 Bft) W-SW 248 1 min 0,000 mm 7,0 UV-I 882 W/m 17,1 C 14,5 km/h (3 Bft)
21.07.2016 14:28 24,9 C 24,9 C 60 % 1013,1 hPa 0,0 mm 9,9 km/h (2 Bft) W 262 1 min 0,000 mm 6,9 UV-I 861 W/m 16,6 C 12,9 km/h (3 Bft)
21.07.2016 14:29 24,9 C 24,9 C 62 % 1013,1 hPa 0,0 mm 8,1 km/h (2 Bft) W-SW 257 1 min 0,000 mm 6,8 UV-I 849 W/m 17,1 C 14,5 km/h (3 Bft)
21.07.2016 14:30 25,0 C 25,0 C 61 % 1013,1 hPa 0,0 mm 5,1 km/h (1 Bft) W 277 1 min 0,000 mm 6,9 UV-I 882 W/m 16,9 C 9,7 km/h (2 Bft)
21.07.2016 14:31 25,1 C 25,1 C 66 % 1013,1 hPa 0,0 mm 5,0 km/h (1 Bft) W-NW 294 1 min 0,000 mm 4,5 UV-I 888 W/m 18,3 C 6,4 km/h (2 Bft)
21.07.2016 14:32 25,3 C 25,3 C 63 % 1013,1 hPa 0,0 mm 7,0 km/h (2 Bft) W-NW 288 1 min 0,000 mm 5,6 UV-I 888 W/m 17,7 C 11,3 km/h (2 Bft)
21.07.2016 14:33 25,3 C 25,3 C 61 % 1013,1 hPa 0,0 mm 2,3 km/h (1 Bft) W-NW 301 1 min 0,000 mm 4,3 UV-I 473 W/m 17,2 C 4,8 km/h (1 Bft)
21.07.2016 14:34 25,2 C 25,3 C 59 % 1013,0 hPa 0,0 mm 2,1 km/h (1 Bft) W-SW 249 1 min 0,000 mm 7,1 UV-I 473 W/m 16,6 C 4,8 km/h (1 Bft)
21.07.2016 14:35 25,1 C 25,2 C 60 % 1013,1 hPa 0,0 mm 4,0 km/h (1 Bft) W-SW 240 1 min 0,000 mm 5,2 UV-I 473 W/m 16,8 C 6,4 km/h (2 Bft)
21.07.2016 14:36 24,9 C 25,1 C 61 % 1013,0 hPa 0,0 mm 4,2 km/h (1 Bft) W 268 0 min 0,000 mm 4,4 UV-I 387 W/m 16,8 C 6,4 km/h (2 Bft)
21.07.2016 14:37 25,0 C 25,0 C 62 % 1013,1 hPa 0,0 mm 5,8 km/h (2 Bft) W 266 1 min 0,000 mm 4,1 UV-I 475 W/m 17,2 C 8,0 km/h (2 Bft)
21.07.2016 14:38 24,9 C 25,0 C 62 % 1013,1 hPa 0,0 mm 5,1 km/h (1 Bft) W-SW 252 0 min 0,000 mm 4,3 UV-I 417 W/m 17,1 C 8,0 km/h (2 Bft)
21.07.2016 14:39 24,9 C 24,9 C 63 % 1013,1 hPa 0,0 mm 5,4 km/h (1 Bft) W-SW 240 0 min 0,000 mm 5,0 UV-I 424 W/m 17,4 C 9,7 km/h (2 Bft)
21.07.2016 14:40 25,0 C 25,0 C 64 % 1013,1 hPa 0,0 mm 4,8 km/h (1 Bft) SW 224 0 min 0,000 mm 5,9 UV-I 424 W/m 17,7 C 6,4 km/h (2 Bft)
21.07.2016 14:41 25,0 C 25,1 C 61 % 1013,1 hPa 0,0 mm 9,9 km/h (2 Bft) W-SW 254 0 min 0,000 mm 4,4 UV-I 424 W/m 16,9 C 12,9 km/h (3 Bft)
21.07.2016 14:42 24,9 C 25,0 C 62 % 1013,1 hPa 0,0 mm 8,2 km/h (2 Bft) W 260 0 min 0,000 mm 4,0 UV-I 424 W/m 17,1 C 12,9 km/h (3 Bft)
21.07.2016 14:43 24,9 C 24,9 C 61 % 1013,2 hPa 0,0 mm 3,6 km/h (1 Bft) W-NW 298 0 min 0,000 mm 5,4 UV-I 381 W/m 16,8 C 4,8 km/h (1 Bft)
21.07.2016 14:44 24,9 C 24,9 C 65 % 1013,1 hPa 0,0 mm 6,2 km/h (2 Bft) NW 306 0 min 0,000 mm 4,2 UV-I 383 W/m 17,9 C 8,0 km/h (2 Bft)
21.07.2016 14:45 24,9 C 24,9 C 61 % 1013,1 hPa 0,0 mm 6,4 km/h (2 Bft) W 281 0 min 0,000 mm 4,2 UV-I 404 W/m 16,8 C 12,9 km/h (3 Bft)
21.07.2016 14:46 24,9 C 24,9 C 63 % 1013,1 hPa 0,0 mm 6,6 km/h (2 Bft) W-NW 283 0 min 0,000 mm 4,9 UV-I 424 W/m 17,4 C 9,7 km/h (2 Bft)
21.07.2016 14:47 24,9 C 24,9 C 63 % 1013,2 hPa 0,0 mm 6,5 km/h (2 Bft) W-SW 242 0 min 0,000 mm 3,7 UV-I 397 W/m 17,4 C 12,9 km/h (3 Bft)
21.07.2016 14:48 25,1 C 25,1 C 64 % 1013,2 hPa 0,0 mm 8,2 km/h (2 Bft) W-SW 246 0 min 0,000 mm 5,9 UV-I 376 W/m 17,8 C 11,3 km/h (2 Bft)
21.07.2016 14:49 25,1 C 25,1 C 66 % 1013,1 hPa 0,0 mm 7,6 km/h (2 Bft) W-SW 238 0 min 0,000 mm 4,8 UV-I 411 W/m 18,3 C 14,5 km/h (3 Bft)
21.07.2016 14:50 25,1 C 25,1 C 63 % 1013,1 hPa 0,0 mm 11,7 km/h (2 Bft) W-SW 250 0 min 0,000 mm 3,4 UV-I 369 W/m 17,5 C 17,7 km/h (3 Bft)
21.07.2016 14:51 25,1 C 25,1 C 60 % 1013,1 hPa 0,0 mm 6,6 km/h (2 Bft) W-SW 253 0 min 0,000 mm 6,3 UV-I 411 W/m 16,8 C 12,9 km/h (3 Bft)
21.07.2016 14:52 25,0 C 25,1 C 61 % 1013,1 hPa 0,0 mm 9,9 km/h (2 Bft) W 269 0 min 0,000 mm 5,4 UV-I 411 W/m 16,9 C 12,9 km/h (3 Bft)
21.07.2016 14:53 25,0 C 25,0 C 62 % 1013,1 hPa 0,0 mm 4,9 km/h (1 Bft) O 96 0 min 0,000 mm 6,6 UV-I 411 W/m 17,2 C 6,4 km/h (2 Bft)
21.07.2016 14:54 25,1 C 25,1 C 63 % 1013,1 hPa 0,0 mm 7,2 km/h (2 Bft) SW 234 1 min 0,000 mm 6,7 UV-I 740 W/m 17,5 C 14,5 km/h (3 Bft)
21.07.2016 14:55 25,2 C 25,2 C 61 % 1013,1 hPa 0,0 mm 10,6 km/h (2 Bft) W-NW 284 1 min 0,000 mm 4,5 UV-I 740 W/m 17,1 C 17,7 km/h (3 Bft)
21.07.2016 14:56 25,2 C 25,2 C 63 % 1013,1 hPa 0,0 mm 9,7 km/h (2 Bft) W 267 1 min 0,000 mm 6,6 UV-I 740 W/m 17,6 C 14,5 km/h (3 Bft)
21.07.2016 14:57 25,2 C 25,2 C 64 % 1013,1 hPa 0,0 mm 9,8 km/h (2 Bft) W-NW 288 1 min 0,000 mm 3,2 UV-I 740 W/m 17,9 C 12,9 km/h (3 Bft)
21.07.2016 14:58 25,2 C 25,2 C 63 % 1013,1 hPa 0,0 mm 7,8 km/h (2 Bft) W 277 0 min 0,000 mm 3,1 UV-I 325 W/m 17,6 C 11,3 km/h (2 Bft)
21.07.2016 14:59 25,1 C 25,2 C 63 % 1013,1 hPa 0,0 mm 9,8 km/h (2 Bft) W 281 0 min 0,000 mm 3,1 UV-I 323 W/m 17,5 C 14,5 km/h (3 Bft)
21.07.2016 15:00 25,1 C 25,1 C 64 % 1013,1 hPa 0,0 mm 11,3 km/h (2 Bft) W 280 0 min 0,000 mm 6,5 UV-I 323 W/m 17,8 C 16,1 km/h (3 Bft)
21.07.2016 15:01 25,1 C 25,1 C 61 % 1013,1 hPa 0,0 mm 9,2 km/h (2 Bft) W-SW 244 0 min 0,457 mm 6,3 UV-I 323 W/m 17,0 C 12,9 km/h (3 Bft)
21.07.2016 15:02 25,1 C 25,1 C 64 % 1013,0 hPa 0,0 mm 5,4 km/h (1 Bft) W-NW 284 1 min 0,000 mm 5,8 UV-I 686 W/m 17,8 C 11,3 km/h (2 Bft)
21.07.2016 15:03 25,2 C 25,2 C 62 % 1013,0 hPa 0,0 mm 2,9 km/h (1 Bft) W-NW 284 1 min 0,000 mm 4,6 UV-I 686 W/m 17,4 C 4,8 km/h (1 Bft)
21.07.2016 15:04 25,1 C 25,2 C 63 % 1013,0 hPa 0,0 mm 6,6 km/h (2 Bft) W 280 0 min 0,000 mm 3,1 UV-I 325 W/m 17,5 C 11,3 km/h (2 Bft)
21.07.2016 15:05 25,1 C 25,1 C 62 % 1013,0 hPa 0,0 mm 5,2 km/h (1 Bft) NW 311 0 min 0,000 mm 4,1 UV-I 355 W/m 17,3 C 9,7 km/h (2 Bft)
21.07.2016 15:06 25,1 C 25,1 C 63 % 1013,0 hPa 0,0 mm 5,0 km/h (1 Bft) W-SW 254 0 min 0,000 mm 5,5 UV-I 355 W/m 17,5 C 9,7 km/h (2 Bft)
21.07.2016 15:07 25,1 C 25,1 C 65 % 1013,0 hPa 0,0 mm 5,0 km/h (1 Bft) W-SW 253 0 min 0,000 mm 3,4 UV-I 355 W/m 18,0 C 11,3 km/h (2 Bft)
21.07.2016 15:08 25,0 C 25,1 C 62 % 1013,0 hPa 0,0 mm 6,0 km/h (2 Bft) W-SW 257 0 min 0,000 mm 3,3 UV-I 355 W/m 17,2 C 9,7 km/h (2 Bft)
21.07.2016 15:09 25,0 C 25,0 C 62 % 1013,0 hPa 0,0 mm 6,2 km/h (2 Bft) W-NW 290 0 min 0,000 mm 6,1 UV-I 355 W/m 17,2 C 9,7 km/h (2 Bft)
21.07.2016 15:10 25,0 C 25,0 C 64 % 1013,1 hPa 0,0 mm 8,4 km/h (2 Bft) W 277 0 min 0,000 mm 5,4 UV-I 355 W/m 17,7 C 11,3 km/h (2 Bft)
21.07.2016 15:11 25,1 C 25,1 C 65 % 1013,0 hPa 0,0 mm 6,8 km/h (2 Bft) W-NW 291 1 min 0,000 mm 6,5 UV-I 462 W/m 18,0 C 11,3 km/h (2 Bft)
21.07.2016 15:12 25,1 C 25,1 C 64 % 1013,0 hPa 0,0 mm 7,8 km/h (2 Bft) W 278 1 min 0,000 mm 3,7 UV-I 462 W/m 17,8 C 12,9 km/h (3 Bft)
21.07.2016 15:13 25,2 C 25,2 C 64 % 1013,0 hPa 0,0 mm 7,7 km/h (2 Bft) W-NW 289 1 min 0,000 mm 3,4 UV-I 462 W/m 17,9 C 14,5 km/h (3 Bft)
21.07.2016 15:14 25,2 C 25,2 C 62 % 1013,0 hPa 0,0 mm 7,7 km/h (2 Bft) W-SW 242 0 min 0,000 mm 3,4 UV-I 338 W/m 17,4 C 11,3 km/h (2 Bft)
21.07.2016 15:15 25,1 C 25,2 C 63 % 1013,0 hPa 0,0 mm 5,9 km/h (2 Bft) W-NW 298 0 min 0,000 mm 3,3 UV-I 334 W/m 17,5 C 9,7 km/h (2 Bft)
21.07.2016 15:16 24,9 C 25,1 C 62 % 1013,0 hPa 0,0 mm 7,8 km/h (2 Bft) W-NW 292 0 min 0,000 mm 3,1 UV-I 320 W/m 17,1 C 16,1 km/h (3 Bft)
21.07.2016 15:17 24,9 C 25,0 C 62 % 1013,0 hPa 0,0 mm 5,9 km/h (2 Bft) W-NW 300 0 min 0,000 mm 3,0 UV-I 297 W/m 17,1 C 9,7 km/h (2 Bft)
21.07.2016 15:18 24,9 C 24,9 C 64 % 1013,0 hPa 0,0 mm 3,4 km/h (1 Bft) W 265 0 min 0,000 mm 2,9 UV-I 302 W/m 17,6 C 4,8 km/h (1 Bft)
21.07.2016 15:19 24,8 C 24,9 C 64 % 1013,0 hPa 0,0 mm 2,1 km/h (1 Bft) W-NW 283 0 min 0,000 mm 3,0 UV-I 308 W/m 17,5 C 3,2 km/h (1 Bft)
21.07.2016 15:20 24,8 C 24,8 C 62 % 1013,0 hPa 0,0 mm 4,4 km/h (1 Bft) W-NW 296 0 min 0,000 mm 3,0 UV-I 309 W/m 17,0 C 6,4 km/h (2 Bft)
21.07.2016 15:21 24,7 C 24,8 C 64 % 1013,0 hPa 0,0 mm 4,0 km/h (1 Bft) W-NW 285 0 min 0,000 mm 3,0 UV-I 311 W/m 17,4 C 6,4 km/h (2 Bft)
21.07.2016 15:22 24,8 C 24,8 C 66 % 1012,9 hPa 0,0 mm 3,9 km/h (1 Bft) W-NW 290 0 min 0,000 mm 3,0 UV-I 322 W/m 18,0 C 4,8 km/h (1 Bft)
21.07.2016 15:23 24,8 C 24,8 C 63 % 1013,0 hPa 0,0 mm 2,1 km/h (1 Bft) W-NW 292 0 min 0,000 mm 3,1 UV-I 353 W/m 17,3 C 3,2 km/h (1 Bft)
21.07.2016 15:24 24,8 C 24,8 C 67 % 1013,0 hPa 0,0 mm 4,1 km/h (1 Bft) W 265 0 min 0,000 mm 3,3 UV-I 373 W/m 18,2 C 9,7 km/h (2 Bft)
21.07.2016 15:25 24,8 C 24,8 C 64 % 1013,0 hPa 0,0 mm 7,2 km/h (2 Bft) W-NW 294 0 min 0,000 mm 3,7 UV-I 373 W/m 17,5 C 11,3 km/h (2 Bft)
21.07.2016 15:26 24,9 C 24,9 C 63 % 1013,0 hPa 0,0 mm 4,5 km/h (1 Bft) W-NW 288 0 min 0,000 mm 4,3 UV-I 373 W/m 17,4 C 6,4 km/h (2 Bft)
21.07.2016 15:27 24,9 C 24,9 C 63 % 1013,0 hPa 0,0 mm 5,4 km/h (1 Bft) N-NW 347 1 min 0,000 mm 4,8 UV-I 587 W/m 17,4 C 8,0 km/h (2 Bft)
21.07.2016 15:28 25,1 C 25,1 C 63 % 1013,0 hPa 0,0 mm 8,0 km/h (2 Bft) W-NW 296 1 min 0,000 mm 4,1 UV-I 541 W/m 17,5 C 11,3 km/h (2 Bft)
21.07.2016 15:29 25,1 C 25,1 C 61 % 1013,0 hPa 0,0 mm 6,6 km/h (2 Bft) W-NW 296 1 min 0,000 mm 3,3 UV-I 541 W/m 17,0 C 11,3 km/h (2 Bft)
21.07.2016 15:30 25,2 C 25,2 C 60 % 1013,0 hPa 0,0 mm 6,9 km/h (2 Bft) NW 320 0 min 0,000 mm 2,7 UV-I 288 W/m 16,9 C 11,3 km/h (2 Bft)
21.07.2016 15:31 25,1 C 25,2 C 63 % 1013,0 hPa 0,0 mm 7,5 km/h (2 Bft) W-NW 299 0 min 0,000 mm 2,5 UV-I 269 W/m 17,5 C 12,9 km/h (3 Bft)
21.07.2016 15:32 25,1 C 25,1 C 63 % 1013,0 hPa 0,0 mm 6,1 km/h (2 Bft) W-NW 284 0 min 0,000 mm 2,5 UV-I 258 W/m 17,5 C 9,7 km/h (2 Bft)
21.07.2016 15:33 25,1 C 25,1 C 61 % 1013,0 hPa 0,0 mm 5,4 km/h (1 Bft) W-NW 287 0 min 0,000 mm 2,4 UV-I 251 W/m 17,0 C 8,0 km/h (2 Bft)
21.07.2016 15:34 25,0 C 25,1 C 64 % 1013,0 hPa 0,0 mm 5,2 km/h (1 Bft) W 270 0 min 0,000 mm 2,3 UV-I 253 W/m 17,7 C 6,4 km/h (2 Bft)
21.07.2016 15:35 24,9 C 25,0 C 63 % 1013,0 hPa 0,0 mm 4,0 km/h (1 Bft) W 277 0 min 0,000 mm 2,3 UV-I 244 W/m 17,4 C 6,4 km/h (2 Bft)
21.07.2016 15:36 24,9 C 24,9 C 61 % 1013,0 hPa 0,0 mm 5,9 km/h (2 Bft) W-NW 288 0 min 0,000 mm 2,3 UV-I 244 W/m 16,8 C 8,0 km/h (2 Bft)
21.07.2016 15:37 24,9 C 24,9 C 63 % 1012,9 hPa 0,0 mm 6,1 km/h (2 Bft) NW 307 0 min 0,000 mm 2,1 UV-I 227 W/m 17,4 C 8,0 km/h (2 Bft)
21.07.2016 15:38 24,8 C 24,9 C 62 % 1013,0 hPa 0,0 mm 6,2 km/h (2 Bft) W-NW 287 0 min 0,000 mm 2,8 UV-I 255 W/m 17,0 C 9,7 km/h (2 Bft)
21.07.2016 15:39 24,8 C 24,8 C 62 % 1013,0 hPa 0,0 mm 12,2 km/h (2 Bft) NW 306 0 min 0,000 mm 2,2 UV-I 320 W/m 17,0 C 20,9 km/h (4 Bft)
21.07.2016 15:40 24,8 C 24,8 C 61 % 1013,1 hPa 0,0 mm 12,3 km/h (3 Bft) SW 236 0 min 0,000 mm 2,2 UV-I 320 W/m 16,8 C 20,9 km/h (4 Bft)
21.07.2016 15:41 24,8 C 24,8 C 60 % 1013,1 hPa 0,0 mm 7,4 km/h (2 Bft) W-NW 294 0 min 0,000 mm 2,3 UV-I 251 W/m 16,5 C 12,9 km/h (3 Bft)
21.07.2016 15:42 24,7 C 24,8 C 59 % 1013,1 hPa 0,0 mm 8,0 km/h (2 Bft) W-NW 284 0 min 0,000 mm 2,1 UV-I 244 W/m 16,1 C 12,9 km/h (3 Bft)
21.07.2016 15:43 24,7 C 24,7 C 60 % 1013,1 hPa 0,0 mm 10,6 km/h (2 Bft) W-NW 285 0 min 0,000 mm 2,1 UV-I 239 W/m 16,4 C 14,5 km/h (3 Bft)
21.07.2016 15:44 24,6 C 24,7 C 61 % 1013,1 hPa 0,0 mm 9,6 km/h (2 Bft) NW 321 0 min 0,000 mm 2,1 UV-I 239 W/m 16,6 C 14,5 km/h (3 Bft)
21.07.2016 15:45 24,6 C 24,6 C 59 % 1013,1 hPa 0,0 mm 5,3 km/h (1 Bft) NW 310 0 min 0,000 mm 2,3 UV-I 239 W/m 16,0 C 12,9 km/h (3 Bft)
21.07.2016 15:46 24,5 C 24,6 C 60 % 1013,1 hPa 0,0 mm 11,0 km/h (2 Bft) W-NW 299 0 min 0,000 mm 2,5 UV-I 308 W/m 16,2 C 14,5 km/h (3 Bft)
21.07.2016 15:47 24,5 C 24,5 C 60 % 1013,1 hPa 0,0 mm 8,5 km/h (2 Bft) NW 304 0 min 0,000 mm 2,6 UV-I 323 W/m 16,2 C 16,1 km/h (3 Bft)
21.07.2016 15:48 24,5 C 24,5 C 60 % 1013,0 hPa 0,0 mm 7,8 km/h (2 Bft) W 270 0 min 0,000 mm 2,9 UV-I 366 W/m 16,2 C 12,9 km/h (3 Bft)
21.07.2016 15:49 24,5 C 24,5 C 62 % 1013,0 hPa 0,0 mm 10,8 km/h (2 Bft) W 272 0 min 0,000 mm 2,9 UV-I 366 W/m 16,7 C 14,5 km/h (3 Bft)
21.07.2016 15:50 24,6 C 24,6 C 59 % 1013,1 hPa 0,0 mm 12,6 km/h (3 Bft) W-NW 294 0 min 0,000 mm 2,9 UV-I 366 W/m 16,0 C 19,3 km/h (3 Bft)
21.07.2016 15:51 24,6 C 24,6 C 59 % 1013,0 hPa 0,0 mm 6,6 km/h (2 Bft) NW 319 0 min 0,000 mm 4,3 UV-I 366 W/m 16,0 C 11,3 km/h (2 Bft)
21.07.2016 15:52 24,7 C 24,7 C 59 % 1013,0 hPa 0,0 mm 8,6 km/h (2 Bft) W 277 1 min 0,000 mm 4,3 UV-I 599 W/m 16,1 C 12,9 km/h (3 Bft)
21.07.2016 15:53 24,8 C 24,8 C 61 % 1012,9 hPa 0,0 mm 10,3 km/h (2 Bft) NW 310 1 min 0,000 mm 3,4 UV-I 599 W/m 16,8 C 12,9 km/h (3 Bft)
21.07.2016 15:54 24,8 C 24,8 C 61 % 1012,9 hPa 0,0 mm 8,6 km/h (2 Bft) W 269 0 min 0,000 mm 3,5 UV-I 399 W/m 16,8 C 14,5 km/h (3 Bft)
21.07.2016 15:55 24,8 C 24,8 C 59 % 1012,9 hPa 0,0 mm 8,2 km/h (2 Bft) NW 318 0 min 0,000 mm 2,9 UV-I 327 W/m 16,2 C 12,9 km/h (3 Bft)
21.07.2016 15:56 24,9 C 24,9 C 58 % 1012,9 hPa 0,0 mm 5,7 km/h (1 Bft) W-NW 298 0 min 0,000 mm 3,8 UV-I 327 W/m 16,1 C 8,0 km/h (2 Bft)
21.07.2016 15:57 24,9 C 24,9 C 61 % 1013,0 hPa 0,0 mm 3,6 km/h (1 Bft) W 268 1 min 0,000 mm 4,0 UV-I 606 W/m 16,8 C 6,4 km/h (2 Bft)
21.07.2016 15:58 24,9 C 24,9 C 60 % 1012,9 hPa 0,0 mm 5,5 km/h (1 Bft) W 273 1 min 0,000 mm 4,1 UV-I 744 W/m 16,6 C 6,4 km/h (2 Bft)
21.07.2016 15:59 25,1 C 25,1 C 62 % 1012,9 hPa 0,0 mm 6,7 km/h (2 Bft) W 278 1 min 0,000 mm 5,2 UV-I 789 W/m 17,3 C 14,5 km/h (3 Bft)
21.07.2016 16:00 25,1 C 25,1 C 56 % 1012,9 hPa 0,0 mm 9,4 km/h (2 Bft) W 277 1 min 0,000 mm 4,0 UV-I 826 W/m 15,7 C 12,9 km/h (3 Bft)
21.07.2016 16:01 25,2 C 25,2 C 59 % 1012,9 hPa 0,0 mm 8,6 km/h (2 Bft) W-NW 296 1 min 0,305 mm 3,3 UV-I 826 W/m 16,6 C 12,9 km/h (3 Bft)
21.07.2016 16:02 25,2 C 25,2 C 60 % 1012,9 hPa 0,0 mm 5,6 km/h (1 Bft) W-NW 286 0 min 0,000 mm 3,2 UV-I 336 W/m 16,9 C 8,0 km/h (2 Bft)
21.07.2016 16:03 25,2 C 25,2 C 61 % 1012,9 hPa 0,0 mm 8,6 km/h (2 Bft) NW 315 0 min 0,000 mm 4,2 UV-I 388 W/m 17,1 C 12,9 km/h (3 Bft)
21.07.2016 16:04 25,2 C 25,2 C 59 % 1013,0 hPa 0,0 mm 9,8 km/h (2 Bft) W 277 0 min 0,000 mm 5,5 UV-I 388 W/m 16,6 C 14,5 km/h (3 Bft)
21.07.2016 16:05 25,2 C 25,2 C 56 % 1013,0 hPa 0,0 mm 7,7 km/h (2 Bft) W 279 1 min 0,000 mm 5,8 UV-I 884 W/m 15,8 C 12,9 km/h (3 Bft)
21.07.2016 16:06 25,3 C 25,3 C 57 % 1012,9 hPa 0,0 mm 10,3 km/h (2 Bft) W-NW 303 1 min 0,000 mm 5,8 UV-I 877 W/m 16,2 C 14,5 km/h (3 Bft)
21.07.2016 16:07 25,3 C 25,3 C 57 % 1013,0 hPa 0,0 mm 12,0 km/h (2 Bft) W-SW 257 1 min 0,000 mm 5,7 UV-I 854 W/m 16,2 C 20,9 km/h (4 Bft)
21.07.2016 16:08 25,4 C 25,4 C 57 % 1012,9 hPa 0,0 mm 11,2 km/h (2 Bft) W 273 1 min 0,000 mm 5,3 UV-I 854 W/m 16,2 C 17,7 km/h (3 Bft)
21.07.2016 16:09 25,4 C 25,4 C 57 % 1012,9 hPa 0,0 mm 7,1 km/h (2 Bft) W 270 1 min 0,000 mm 5,2 UV-I 854 W/m 16,2 C 12,9 km/h (3 Bft)
21.07.2016 16:10 25,5 C 25,5 C 59 % 1012,9 hPa 0,0 mm 11,1 km/h (2 Bft) NW 317 1 min 0,000 mm 4,8 UV-I 775 W/m 16,9 C 14,5 km/h (3 Bft)
21.07.2016 16:11 25,6 C 25,6 C 61 % 1012,9 hPa 0,0 mm 11,4 km/h (2 Bft) N 355 1 min 0,000 mm 3,0 UV-I 775 W/m 17,5 C 16,1 km/h (3 Bft)
21.07.2016 16:12 25,6 C 25,6 C 59 % 1012,9 hPa 0,0 mm 15,6 km/h (3 Bft) W 273 1 min 0,000 mm 3,0 UV-I 775 W/m 17,0 C 19,3 km/h (3 Bft)
21.07.2016 16:13 25,5 C 25,6 C 58 % 1012,9 hPa 0,0 mm 11,3 km/h (2 Bft) W-NW 284 1 min 0,000 mm 5,0 UV-I 747 W/m 16,6 C 16,1 km/h (3 Bft)
21.07.2016 16:14 25,4 C 25,5 C 58 % 1012,9 hPa 0,0 mm 4,7 km/h (1 Bft) NW 305 1 min 0,000 mm 4,9 UV-I 729 W/m 16,5 C 9,7 km/h (2 Bft)
21.07.2016 16:15 25,3 C 25,4 C 58 % 1012,9 hPa 0,0 mm 5,7 km/h (1 Bft) NW 306 1 min 0,000 mm 4,9 UV-I 742 W/m 16,4 C 12,9 km/h (3 Bft)
21.07.2016 16:16 25,3 C 25,3 C 58 % 1012,9 hPa 0,0 mm 11,7 km/h (2 Bft) NW 315 1 min 0,000 mm 4,9 UV-I 742 W/m 16,4 C 16,1 km/h (3 Bft)
21.07.2016 16:17 25,3 C 25,3 C 60 % 1012,9 hPa 0,0 mm 10,9 km/h (2 Bft) W-NW 286 1 min 0,000 mm 2,5 UV-I 742 W/m 17,0 C 17,7 km/h (3 Bft)
21.07.2016 16:18 25,2 C 25,3 C 58 % 1012,9 hPa 0,0 mm 13,7 km/h (3 Bft) NW 308 0 min 0,000 mm 2,4 UV-I 199 W/m 16,3 C 20,9 km/h (4 Bft)
21.07.2016 16:19 25,1 C 25,2 C 59 % 1012,9 hPa 0,0 mm 9,1 km/h (2 Bft) W-NW 283 0 min 0,000 mm 2,4 UV-I 183 W/m 16,5 C 12,9 km/h (3 Bft)
21.07.2016 16:20 24,9 C 25,1 C 59 % 1013,0 hPa 0,0 mm 9,9 km/h (2 Bft) W 279 0 min 0,000 mm 2,5 UV-I 216 W/m 16,3 C 16,1 km/h (3 Bft)
21.07.2016 16:21 24,8 C 24,9 C 59 % 1012,9 hPa 0,0 mm 9,9 km/h (2 Bft) W-NW 288 0 min 0,000 mm 2,4 UV-I 227 W/m 16,2 C 17,7 km/h (3 Bft)
21.07.2016 16:22 24,6 C 24,8 C 59 % 1013,0 hPa 0,0 mm 5,6 km/h (1 Bft) W-NW 285 0 min 0,000 mm 2,4 UV-I 218 W/m 16,0 C 11,3 km/h (2 Bft)
21.07.2016 16:23 24,5 C 24,6 C 61 % 1013,0 hPa 0,0 mm 8,5 km/h (2 Bft) NW 316 0 min 0,000 mm 2,2 UV-I 221 W/m 16,5 C 12,9 km/h (3 Bft)
21.07.2016 16:24 24,4 C 24,5 C 60 % 1013,0 hPa 0,0 mm 7,4 km/h (2 Bft) NW 310 0 min 0,000 mm 2,2 UV-I 213 W/m 16,1 C 12,9 km/h (3 Bft)
21.07.2016 16:25 24,3 C 24,4 C 62 % 1013,0 hPa 0,0 mm 4,2 km/h (1 Bft) NW 309 0 min 0,000 mm 2,3 UV-I 246 W/m 16,5 C 6,4 km/h (2 Bft)
21.07.2016 16:26 24,3 C 24,3 C 62 % 1013,0 hPa 0,0 mm 4,1 km/h (1 Bft) NW 323 0 min 0,000 mm 2,5 UV-I 262 W/m 16,5 C 6,4 km/h (2 Bft)
21.07.2016 16:27 24,3 C 24,3 C 61 % 1013,0 hPa 0,0 mm 6,2 km/h (2 Bft) N-NW 337 0 min 0,000 mm 2,7 UV-I 309 W/m 16,3 C 8,0 km/h (2 Bft)
21.07.2016 16:28 24,3 C 24,3 C 65 % 1013,0 hPa 0,0 mm 3,7 km/h (1 Bft) NW 322 0 min 0,000 mm 2,7 UV-I 297 W/m 17,3 C 4,8 km/h (1 Bft)
21.07.2016 16:29 24,4 C 24,4 C 65 % 1013,0 hPa 0,0 mm 8,1 km/h (2 Bft) W 279 0 min 0,000 mm 2,8 UV-I 299 W/m 17,4 C 14,5 km/h (3 Bft)
21.07.2016 16:30 24,6 C 24,6 C 65 % 1013,1 hPa 0,0 mm 7,9 km/h (2 Bft) NW 308 0 min 0,000 mm 2,8 UV-I 302 W/m 17,6 C 12,9 km/h (3 Bft)
21.07.2016 16:31 24,7 C 24,7 C 62 % 1013,1 hPa 0,0 mm 7,3 km/h (2 Bft) NW 314 0 min 0,000 mm 2,8 UV-I 290 W/m 16,9 C 11,3 km/h (2 Bft)
21.07.2016 16:32 24,7 C 24,7 C 63 % 1013,1 hPa 0,0 mm 6,3 km/h (2 Bft) W-NW 300 0 min 0,000 mm 2,8 UV-I 285 W/m 17,2 C 11,3 km/h (2 Bft)
21.07.2016 16:33 24,8 C 24,8 C 63 % 1013,1 hPa 0,0 mm 6,0 km/h (2 Bft) NW 306 0 min 0,000 mm 2,7 UV-I 281 W/m 17,3 C 8,0 km/h (2 Bft)
21.07.2016 16:34 24,9 C 24,9 C 61 % 1013,0 hPa 0,0 mm 12,1 km/h (2 Bft) N-NW 336 0 min 0,000 mm 2,6 UV-I 267 W/m 16,8 C 19,3 km/h (3 Bft)
21.07.2016 16:35 24,9 C 24,9 C 62 % 1013,0 hPa 0,0 mm 7,5 km/h (2 Bft) N 360 0 min 0,000 mm 2,6 UV-I 260 W/m 17,1 C 14,5 km/h (3 Bft)
21.07.2016 16:36 24,9 C 24,9 C 61 % 1013,0 hPa 0,0 mm 5,6 km/h (1 Bft) W-NW 290 0 min 0,000 mm 2,6 UV-I 258 W/m 16,8 C 9,7 km/h (2 Bft)
21.07.2016 16:37 24,9 C 24,9 C 60 % 1013,0 hPa 0,0 mm 7,4 km/h (2 Bft) W-NW 301 0 min 0,000 mm 2,5 UV-I 250 W/m 16,6 C 11,3 km/h (2 Bft)
21.07.2016 16:38 24,9 C 24,9 C 61 % 1013,0 hPa 0,0 mm 7,2 km/h (2 Bft) NW 321 0 min 0,000 mm 2,4 UV-I 227 W/m 16,8 C 14,5 km/h (3 Bft)
21.07.2016 16:39 24,9 C 24,9 C 62 % 1013,0 hPa 0,0 mm 10,5 km/h (2 Bft) N-NW 342 0 min 0,000 mm 2,4 UV-I 220 W/m 17,1 C 16,1 km/h (3 Bft)
21.07.2016 16:40 24,8 C 24,9 C 61 % 1013,0 hPa 0,0 mm 9,3 km/h (2 Bft) W-NW 298 0 min 0,000 mm 2,3 UV-I 207 W/m 16,8 C 11,3 km/h (2 Bft)
21.07.2016 16:41 24,8 C 24,8 C 62 % 1013,0 hPa 0,0 mm 12,1 km/h (2 Bft) W-NW 298 0 min 0,000 mm 2,2 UV-I 204 W/m 17,0 C 19,3 km/h (3 Bft)
21.07.2016 16:42 24,8 C 24,8 C 63 % 1013,0 hPa 0,0 mm 11,4 km/h (2 Bft) NW 321 0 min 0,000 mm 2,2 UV-I 200 W/m 17,3 C 19,3 km/h (3 Bft)
21.07.2016 16:43 24,7 C 24,8 C 61 % 1013,1 hPa 0,0 mm 9,3 km/h (2 Bft) NW 317 0 min 0,000 mm 2,2 UV-I 199 W/m 16,7 C 14,5 km/h (3 Bft)
21.07.2016 16:44 24,6 C 24,7 C 62 % 1013,0 hPa 0,0 mm 9,6 km/h (2 Bft) W-NW 283 0 min 0,000 mm 2,2 UV-I 195 W/m 16,8 C 12,9 km/h (3 Bft)
21.07.2016 16:45 24,6 C 24,6 C 61 % 1013,0 hPa 0,0 mm 5,3 km/h (1 Bft) NW 306 0 min 0,000 mm 2,2 UV-I 190 W/m 16,6 C 11,3 km/h (2 Bft)
21.07.2016 16:46 24,5 C 24,6 C 63 % 1013,0 hPa 0,0 mm 5,7 km/h (1 Bft) W-NW 294 0 min 0,000 mm 2,1 UV-I 188 W/m 17,0 C 8,0 km/h (2 Bft)
21.07.2016 16:47 24,6 C 24,6 C 64 % 1013,0 hPa 0,0 mm 7,9 km/h (2 Bft) W-NW 290 0 min 0,000 mm 2,1 UV-I 188 W/m 17,3 C 12,9 km/h (3 Bft)
21.07.2016 16:48 24,5 C 24,6 C 63 % 1013,0 hPa 0,0 mm 5,9 km/h (2 Bft) W-NW 290 0 min 0,000 mm 2,1 UV-I 186 W/m 17,0 C 11,3 km/h (2 Bft)
21.07.2016 16:49 24,4 C 24,5 C 62 % 1013,0 hPa 0,0 mm 8,6 km/h (2 Bft) W-NW 298 0 min 0,000 mm 2,1 UV-I 186 W/m 16,6 C 12,9 km/h (3 Bft)
21.07.2016 16:50 24,4 C 24,4 C 61 % 1013,0 hPa 0,0 mm 11,3 km/h (2 Bft) W 271 0 min 0,000 mm 2,0 UV-I 185 W/m 16,4 C 17,7 km/h (3 Bft)
21.07.2016 16:51 24,3 C 24,4 C 61 % 1013,0 hPa 0,0 mm 11,5 km/h (2 Bft) W 275 0 min 0,000 mm 2,0 UV-I 181 W/m 16,3 C 16,1 km/h (3 Bft)
21.07.2016 16:52 24,2 C 24,3 C 62 % 1013,1 hPa 0,0 mm 6,8 km/h (2 Bft) W 265 0 min 0,000 mm 2,0 UV-I 178 W/m 16,4 C 11,3 km/h (2 Bft)
21.07.2016 16:53 24,2 C 24,2 C 61 % 1013,0 hPa 0,0 mm 17,5 km/h (3 Bft) W 279 0 min 0,000 mm 2,0 UV-I 174 W/m 16,2 C 24,1 km/h (4 Bft)
21.07.2016 16:54 24,1 C 24,2 C 60 % 1013,0 hPa 0,0 mm 10,0 km/h (2 Bft) W-NW 302 0 min 0,000 mm 1,9 UV-I 169 W/m 15,8 C 16,1 km/h (3 Bft)
21.07.2016 16:55 24,1 C 24,1 C 60 % 1013,0 hPa 0,0 mm 4,7 km/h (1 Bft) W 271 0 min 0,000 mm 1,9 UV-I 167 W/m 15,8 C 9,7 km/h (2 Bft)
21.07.2016 16:56 23,9 C 24,1 C 62 % 1013,0 hPa 0,0 mm 7,6 km/h (2 Bft) W-NW 285 0 min 0,000 mm 1,9 UV-I 165 W/m 16,2 C 12,9 km/h (3 Bft)
21.07.2016 16:57 23,9 C 23,9 C 61 % 1012,9 hPa 0,0 mm 6,8 km/h (2 Bft) W 276 0 min 0,000 mm 1,9 UV-I 162 W/m 15,9 C 11,3 km/h (2 Bft)
21.07.2016 16:58 23,8 C 23,9 C 62 % 1012,9 hPa 0,0 mm 6,1 km/h (2 Bft) W-NW 288 0 min 0,000 mm 1,9 UV-I 137 W/m 16,1 C 11,3 km/h (2 Bft)
21.07.2016 16:59 23,8 C 23,9 C 62 % 1012,9 hPa 0,0 mm 8,7 km/h (2 Bft) W 271 0 min 0,000 mm 1,9 UV-I 135 W/m 16,1 C 16,1 km/h (3 Bft)
21.07.2016 17:00 23,8 C 23,8 C 63 % 1012,9 hPa 0,0 mm 8,6 km/h (2 Bft) SW 221 0 min 0,000 mm 1,9 UV-I 134 W/m 16,3 C 12,9 km/h (3 Bft)
21.07.2016 17:01 23,8 C 23,8 C 62 % 1013,0 hPa 0,0 mm 12,3 km/h (3 Bft) W-NW 286 0 min 0,254 mm 1,9 UV-I 160 W/m 16,1 C 17,7 km/h (3 Bft)
21.07.2016 17:02 23,8 C 23,8 C 63 % 1013,0 hPa 0,0 mm 9,6 km/h (2 Bft) W 270 0 min 0,000 mm 1,9 UV-I 160 W/m 16,3 C 12,9 km/h (3 Bft)
21.07.2016 17:03 23,7 C 23,8 C 64 % 1013,0 hPa 0,0 mm 5,7 km/h (1 Bft) W-NW 282 0 min 0,000 mm 1,9 UV-I 162 W/m 16,5 C 11,3 km/h (2 Bft)
21.07.2016 17:04 23,7 C 23,8 C 64 % 1013,0 hPa 0,0 mm 5,7 km/h (1 Bft) W-NW 294 0 min 0,000 mm 1,9 UV-I 162 W/m 16,5 C 9,7 km/h (2 Bft)
21.07.2016 17:05 23,8 C 23,8 C 65 % 1013,0 hPa 0,0 mm 6,2 km/h (2 Bft) W-SW 248 0 min 0,000 mm 1,9 UV-I 167 W/m 16,8 C 11,3 km/h (2 Bft)
21.07.2016 17:06 23,8 C 23,8 C 67 % 1012,9 hPa 0,0 mm 7,6 km/h (2 Bft) W 269 0 min 0,000 mm 2,0 UV-I 176 W/m 17,3 C 14,5 km/h (3 Bft)
21.07.2016 17:07 23,9 C 23,9 C 67 % 1012,9 hPa 0,0 mm 5,8 km/h (2 Bft) W-SW 241 0 min 0,000 mm 2,1 UV-I 186 W/m 17,4 C 11,3 km/h (2 Bft)
21.07.2016 17:08 23,9 C 23,9 C 65 % 1012,9 hPa 0,0 mm 7,6 km/h (2 Bft) W 272 0 min 0,000 mm 2,1 UV-I 192 W/m 16,9 C 11,3 km/h (2 Bft)
21.07.2016 17:09 24,1 C 24,1 C 66 % 1012,8 hPa 0,0 mm 6,0 km/h (2 Bft) W-SW 243 0 min 0,000 mm 2,2 UV-I 190 W/m 17,3 C 9,7 km/h (2 Bft)
21.07.2016 17:10 24,2 C 24,2 C 64 % 1012,8 hPa 0,0 mm 8,1 km/h (2 Bft) W-SW 246 0 min 0,000 mm 2,2 UV-I 190 W/m 16,9 C 14,5 km/h (3 Bft)
21.07.2016 17:11 24,2 C 24,2 C 64 % 1012,8 hPa 0,0 mm 12,9 km/h (3 Bft) W 275 0 min 0,000 mm 2,1 UV-I 199 W/m 16,9 C 17,7 km/h (3 Bft)
21.07.2016 17:12 24,2 C 24,3 C 64 % 1012,8 hPa 0,0 mm 5,7 km/h (1 Bft) W 263 0 min 0,000 mm 2,1 UV-I 190 W/m 16,9 C 11,3 km/h (2 Bft)
21.07.2016 17:13 24,3 C 24,3 C 64 % 1012,7 hPa 0,0 mm 6,9 km/h (2 Bft) W-SW 256 0 min 0,000 mm 2,1 UV-I 181 W/m 17,0 C 12,9 km/h (3 Bft)
21.07.2016 17:14 24,4 C 24,4 C 62 % 1012,8 hPa 0,0 mm 9,2 km/h (2 Bft) S-SO 150 0 min 0,000 mm 2,1 UV-I 174 W/m 16,6 C 14,5 km/h (3 Bft)
21.07.2016 17:15 24,5 C 24,5 C 62 % 1012,7 hPa 0,0 mm 7,1 km/h (2 Bft) W-SW 250 0 min 0,000 mm 2,1 UV-I 167 W/m 16,7 C 11,3 km/h (2 Bft)
21.07.2016 17:16 24,5 C 24,5 C 64 % 1012,8 hPa 0,0 mm 9,5 km/h (2 Bft) W 263 0 min 0,000 mm 2,0 UV-I 163 W/m 17,2 C 14,5 km/h (3 Bft)
21.07.2016 17:17 24,5 C 24,6 C 62 % 1012,8 hPa 0,0 mm 11,0 km/h (2 Bft) W 276 0 min 0,000 mm 2,0 UV-I 162 W/m 16,7 C 19,3 km/h (3 Bft)
21.07.2016 17:18 24,6 C 24,6 C 62 % 1012,7 hPa 0,0 mm 10,9 km/h (2 Bft) W-NW 289 0 min 0,000 mm 2,0 UV-I 160 W/m 16,8 C 19,3 km/h (3 Bft)
21.07.2016 17:19 24,6 C 24,6 C 63 % 1012,8 hPa 0,0 mm 10,5 km/h (2 Bft) W-NW 282 0 min 0,000 mm 2,0 UV-I 162 W/m 17,1 C 14,5 km/h (3 Bft)
21.07.2016 17:20 24,6 C 24,6 C 62 % 1012,8 hPa 0,0 mm 11,7 km/h (2 Bft) W-NW 289 0 min 0,000 mm 2,0 UV-I 149 W/m 16,8 C 19,3 km/h (3 Bft)
21.07.2016 17:21 24,6 C 24,6 C 63 % 1012,7 hPa 0,0 mm 12,2 km/h (2 Bft) W-SW 257 0 min 0,000 mm 1,9 UV-I 149 W/m 17,1 C 19,3 km/h (3 Bft)
21.07.2016 17:22 24,7 C 24,7 C 63 % 1012,7 hPa 0,0 mm 9,5 km/h (2 Bft) W-SW 244 0 min 0,000 mm 1,9 UV-I 146 W/m 17,2 C 16,1 km/h (3 Bft)
21.07.2016 17:23 24,7 C 24,7 C 64 % 1012,8 hPa 0,0 mm 10,9 km/h (2 Bft) SW 219 0 min 0,000 mm 1,9 UV-I 141 W/m 17,4 C 20,9 km/h (4 Bft)
21.07.2016 17:24 24,7 C 24,7 C 61 % 1012,8 hPa 0,0 mm 10,0 km/h (2 Bft) S 187 0 min 0,000 mm 1,9 UV-I 137 W/m 16,7 C 19,3 km/h (3 Bft)
21.07.2016 17:25 24,6 C 24,7 C 61 % 1012,7 hPa 0,0 mm 10,4 km/h (2 Bft) W 265 0 min 0,000 mm 1,8 UV-I 134 W/m 16,6 C 16,1 km/h (3 Bft)
21.07.2016 17:26 24,5 C 24,6 C 61 % 1012,7 hPa 0,0 mm 8,0 km/h (2 Bft) W-SW 238 0 min 0,000 mm 1,8 UV-I 132 W/m 16,5 C 11,3 km/h (2 Bft)
21.07.2016 17:27 24,5 C 24,5 C 62 % 1012,7 hPa 0,0 mm 8,8 km/h (2 Bft) W-NW 294 0 min 0,000 mm 1,8 UV-I 120 W/m 16,7 C 12,9 km/h (3 Bft)
21.07.2016 17:28 24,4 C 24,5 C 62 % 1012,6 hPa 0,0 mm 5,4 km/h (1 Bft) W-SW 254 0 min 0,000 mm 1,7 UV-I 118 W/m 16,6 C 9,7 km/h (2 Bft)
21.07.2016 17:29 24,4 C 24,4 C 63 % 1012,6 hPa 0,0 mm 5,2 km/h (1 Bft) W-SW 252 0 min 0,000 mm 1,7 UV-I 123 W/m 16,9 C 9,7 km/h (2 Bft)
21.07.2016 17:30 24,4 C 24,4 C 63 % 1012,6 hPa 0,0 mm 6,8 km/h (2 Bft) W-SW 255 0 min 0,000 mm 1,8 UV-I 121 W/m 16,9 C 11,3 km/h (2 Bft)
21.07.2016 17:31 24,4 C 24,4 C 65 % 1012,6 hPa 0,0 mm 7,2 km/h (2 Bft) W-NW 288 0 min 0,000 mm 1,7 UV-I 123 W/m 17,4 C 11,3 km/h (2 Bft)
21.07.2016 17:32 24,5 C 24,5 C 64 % 1012,6 hPa 0,0 mm 6,9 km/h (2 Bft) W-NW 291 0 min 0,000 mm 1,7 UV-I 125 W/m 17,2 C 9,7 km/h (2 Bft)
21.07.2016 17:33 24,6 C 24,6 C 65 % 1012,6 hPa 0,0 mm 7,4 km/h (2 Bft) W-NW 286 0 min 0,000 mm 1,8 UV-I 123 W/m 17,6 C 12,9 km/h (3 Bft)
21.07.2016 17:34 24,6 C 24,6 C 64 % 1012,6 hPa 0,0 mm 9,3 km/h (2 Bft) W-NW 288 0 min 0,000 mm 1,8 UV-I 123 W/m 17,3 C 14,5 km/h (3 Bft)
21.07.2016 17:35 24,6 C 24,6 C 61 % 1012,6 hPa 0,0 mm 15,5 km/h (3 Bft) W 278 0 min 0,000 mm 1,7 UV-I 135 W/m 16,6 C 20,9 km/h (4 Bft)
21.07.2016 17:36 24,6 C 24,6 C 61 % 1012,6 hPa 0,0 mm 9,3 km/h (2 Bft) W-SW 248 0 min 0,000 mm 1,7 UV-I 118 W/m 16,6 C 16,1 km/h (3 Bft)
21.07.2016 17:37 24,6 C 24,6 C 62 % 1012,6 hPa 0,0 mm 12,1 km/h (2 Bft) W-NW 292 0 min 0,000 mm 1,7 UV-I 121 W/m 16,8 C 16,1 km/h (3 Bft)
21.07.2016 17:38 24,6 C 24,6 C 63 % 1012,6 hPa 0,0 mm 15,7 km/h (3 Bft) W-SW 253 0 min 0,000 mm 1,7 UV-I 125 W/m 17,1 C 20,9 km/h (4 Bft)
21.07.2016 17:39 24,6 C 24,6 C 61 % 1012,6 hPa 0,0 mm 14,3 km/h (3 Bft) W-SW 248 0 min 0,000 mm 1,7 UV-I 130 W/m 16,6 C 20,9 km/h (4 Bft)
21.07.2016 17:40 24,6 C 24,6 C 60 % 1012,6 hPa 0,0 mm 9,9 km/h (2 Bft) W 273 0 min 0,000 mm 1,7 UV-I 130 W/m 16,3 C 14,5 km/h (3 Bft)
21.07.2016 17:41 24,6 C 24,6 C 60 % 1012,6 hPa 0,0 mm 10,0 km/h (2 Bft) W-NW 301 0 min 0,000 mm 1,7 UV-I 127 W/m 16,3 C 16,1 km/h (3 Bft)
21.07.2016 17:42 24,6 C 24,6 C 62 % 1012,6 hPa 0,0 mm 7,6 km/h (2 Bft) W 264 0 min 0,000 mm 1,7 UV-I 121 W/m 16,8 C 11,3 km/h (2 Bft)
21.07.2016 17:43 24,6 C 24,6 C 63 % 1012,6 hPa 0,0 mm 6,2 km/h (2 Bft) W 277 0 min 0,000 mm 1,7 UV-I 120 W/m 17,1 C 9,7 km/h (2 Bft)
21.07.2016 17:44 24,6 C 24,6 C 61 % 1012,5 hPa 0,0 mm 9,7 km/h (2 Bft) W-SW 255 0 min 0,000 mm 1,7 UV-I 118 W/m 16,6 C 12,9 km/h (3 Bft)
21.07.2016 17:45 24,6 C 24,7 C 61 % 1012,5 hPa 0,0 mm 7,6 km/h (2 Bft) W 281 0 min 0,000 mm 1,7 UV-I 116 W/m 16,6 C 14,5 km/h (3 Bft)
21.07.2016 17:46 24,7 C 24,7 C 62 % 1012,5 hPa 0,0 mm 11,6 km/h (2 Bft) W-NW 292 0 min 0,000 mm 1,7 UV-I 113 W/m 16,9 C 16,1 km/h (3 Bft)
21.07.2016 17:47 24,7 C 24,7 C 60 % 1012,5 hPa 0,0 mm 11,5 km/h (2 Bft) NW 308 0 min 0,000 mm 1,6 UV-I 107 W/m 16,4 C 14,5 km/h (3 Bft)
21.07.2016 17:48 24,6 C 24,7 C 60 % 1012,5 hPa 0,0 mm 12,5 km/h (3 Bft) W-SW 246 0 min 0,000 mm 1,6 UV-I 109 W/m 16,3 C 20,9 km/h (4 Bft)
21.07.2016 17:49 24,6 C 24,6 C 60 % 1012,4 hPa 0,0 mm 11,0 km/h (2 Bft) W-NW 290 0 min 0,000 mm 1,6 UV-I 107 W/m 16,3 C 17,7 km/h (3 Bft)
21.07.2016 17:50 24,6 C 24,6 C 61 % 1012,5 hPa 0,0 mm 16,4 km/h (3 Bft) W 275 0 min 0,000 mm 1,6 UV-I 104 W/m 16,6 C 20,9 km/h (4 Bft)
21.07.2016 17:51 24,6 C 24,6 C 62 % 1012,4 hPa 0,0 mm 10,4 km/h (2 Bft) W-NW 292 0 min 0,000 mm 1,6 UV-I 107 W/m 16,8 C 16,1 km/h (3 Bft)
21.07.2016 17:52 24,6 C 24,6 C 62 % 1012,4 hPa 0,0 mm 9,8 km/h (2 Bft) W 268 0 min 0,000 mm 1,6 UV-I 105 W/m 16,8 C 12,9 km/h (3 Bft)
21.07.2016 17:53 24,6 C 24,6 C 63 % 1012,5 hPa 0,0 mm 9,2 km/h (2 Bft) W-NW 284 0 min 0,000 mm 1,6 UV-I 100 W/m 17,1 C 12,9 km/h (3 Bft)
21.07.2016 17:54 24,6 C 24,6 C 65 % 1012,5 hPa 0,0 mm 7,6 km/h (2 Bft) W 263 0 min 0,000 mm 1,5 UV-I 102 W/m 17,6 C 11,3 km/h (2 Bft)
21.07.2016 17:55 24,6 C 24,6 C 63 % 1012,5 hPa 0,0 mm 8,2 km/h (2 Bft) W-NW 288 0 min 0,000 mm 1,5 UV-I 95 W/m 17,1 C 16,1 km/h (3 Bft)
21.07.2016 17:56 24,7 C 24,7 C 63 % 1012,5 hPa 0,0 mm 12,5 km/h (3 Bft) W-NW 295 0 min 0,000 mm 1,5 UV-I 91 W/m 17,2 C 17,7 km/h (3 Bft)
21.07.2016 17:57 24,7 C 24,7 C 63 % 1012,5 hPa 0,0 mm 6,4 km/h (2 Bft) W-NW 303 0 min 0,000 mm 1,5 UV-I 90 W/m 17,2 C 9,7 km/h (2 Bft)
21.07.2016 17:58 24,7 C 24,7 C 62 % 1012,5 hPa 0,0 mm 7,1 km/h (2 Bft) W 277 0 min 0,000 mm 1,5 UV-I 88 W/m 16,9 C 12,9 km/h (3 Bft)
21.07.2016 17:59 24,7 C 24,7 C 63 % 1012,4 hPa 0,0 mm 10,9 km/h (2 Bft) W 265 0 min 0,000 mm 1,4 UV-I 86 W/m 17,2 C 17,7 km/h (3 Bft)
21.07.2016 18:00 24,7 C 24,7 C 62 % 1012,4 hPa 0,0 mm 9,7 km/h (2 Bft) W-NW 282 0 min 0,000 mm 1,4 UV-I 88 W/m 16,9 C 14,5 km/h (3 Bft)
21.07.2016 18:01 24,7 C 24,7 C 64 % 1012,5 hPa 0,0 mm 6,2 km/h (2 Bft) W-NW 283 0 min 0,152 mm 1,4 UV-I 90 W/m 17,4 C 11,3 km/h (2 Bft)
21.07.2016 18:02 24,7 C 24,7 C 64 % 1012,6 hPa 0,0 mm 11,5 km/h (2 Bft) W-SW 258 0 min 0,000 mm 1,4 UV-I 90 W/m 17,4 C 16,1 km/h (3 Bft)
21.07.2016 18:03 24,7 C 24,7 C 63 % 1012,5 hPa 0,0 mm 9,2 km/h (2 Bft) NW 309 0 min 0,000 mm 1,4 UV-I 86 W/m 17,2 C 14,5 km/h (3 Bft)
21.07.2016 18:04 24,7 C 24,7 C 62 % 1012,6 hPa 0,0 mm 8,6 km/h (2 Bft) NW 310 0 min 0,000 mm 1,4 UV-I 77 W/m 16,9 C 14,5 km/h (3 Bft)
21.07.2016 18:05 24,6 C 24,7 C 61 % 1012,6 hPa 0,0 mm 12,8 km/h (3 Bft) NW 304 0 min 0,000 mm 1,4 UV-I 79 W/m 16,6 C 19,3 km/h (3 Bft)
21.07.2016 18:06 24,6 C 24,6 C 62 % 1012,6 hPa 0,0 mm 14,4 km/h (3 Bft) W-NW 298 0 min 0,000 mm 1,4 UV-I 88 W/m 16,8 C 22,5 km/h (4 Bft)
21.07.2016 18:07 24,5 C 24,6 C 61 % 1012,6 hPa 0,0 mm 13,7 km/h (3 Bft) W-NW 290 0 min 0,000 mm 1,4 UV-I 81 W/m 16,5 C 19,3 km/h (3 Bft)
21.07.2016 18:08 24,5 C 24,5 C 62 % 1012,6 hPa 0,0 mm 8,6 km/h (2 Bft) W-SW 256 0 min 0,000 mm 1,3 UV-I 79 W/m 16,7 C 19,3 km/h (3 Bft)
21.07.2016 18:09 24,4 C 24,5 C 64 % 1012,6 hPa 0,0 mm 10,8 km/h (2 Bft) W 265 0 min 0,000 mm 1,3 UV-I 79 W/m 17,1 C 19,3 km/h (3 Bft)
21.07.2016 18:10 24,4 C 24,4 C 61 % 1012,6 hPa 0,0 mm 9,5 km/h (2 Bft) W-SW 254 0 min 0,000 mm 1,3 UV-I 79 W/m 16,4 C 16,1 km/h (3 Bft)
21.07.2016 18:11 24,4 C 24,4 C 63 % 1012,7 hPa 0,0 mm 12,9 km/h (3 Bft) W 267 0 min 0,000 mm 1,3 UV-I 81 W/m 16,9 C 17,7 km/h (3 Bft)
21.07.2016 18:12 24,4 C 24,4 C 63 % 1012,7 hPa 0,0 mm 8,9 km/h (2 Bft) W-NW 299 0 min 0,000 mm 1,3 UV-I 81 W/m 16,9 C 12,9 km/h (3 Bft)
21.07.2016 18:13 24,5 C 24,5 C 62 % 1012,6 hPa 0,0 mm 10,9 km/h (2 Bft) W 259 0 min 0,000 mm 1,3 UV-I 81 W/m 16,7 C 14,5 km/h (3 Bft)
21.07.2016 18:14 24,5 C 24,5 C 63 % 1012,7 hPa 0,0 mm 9,2 km/h (2 Bft) N 360 0 min 0,000 mm 1,3 UV-I 83 W/m 17,0 C 14,5 km/h (3 Bft)
21.07.2016 18:15 24,5 C 24,5 C 63 % 1012,7 hPa 0,0 mm 4,8 km/h (1 Bft) W 275 0 min 0,000 mm 1,3 UV-I 77 W/m 17,0 C 9,7 km/h (2 Bft)
21.07.2016 18:16 24,5 C 24,5 C 62 % 1012,7 hPa 0,0 mm 6,2 km/h (2 Bft) W-NW 302 0 min 0,000 mm 1,3 UV-I 79 W/m 16,7 C 12,9 km/h (3 Bft)
21.07.2016 18:17 24,4 C 24,5 C 63 % 1012,7 hPa 0,0 mm 4,3 km/h (1 Bft) W-NW 287 0 min 0,000 mm 1,3 UV-I 74 W/m 16,9 C 6,4 km/h (2 Bft)
21.07.2016 18:18 24,4 C 24,4 C 64 % 1012,8 hPa 0,0 mm 7,1 km/h (2 Bft) NW 305 0 min 0,000 mm 1,3 UV-I 72 W/m 17,1 C 9,7 km/h (2 Bft)
21.07.2016 18:19 24,4 C 24,4 C 63 % 1012,7 hPa 0,0 mm 6,8 km/h (2 Bft) W-NW 283 0 min 0,000 mm 1,3 UV-I 72 W/m 16,9 C 12,9 km/h (3 Bft)
21.07.2016 18:20 24,4 C 24,4 C 64 % 1012,8 hPa 0,0 mm 14,9 km/h (3 Bft) W 267 0 min 0,000 mm 1,3 UV-I 74 W/m 17,1 C 22,5 km/h (4 Bft)
21.07.2016 18:21 24,4 C 24,4 C 62 % 1012,8 hPa 0,0 mm 12,3 km/h (3 Bft) W 275 0 min 0,000 mm 1,3 UV-I 74 W/m 16,6 C 16,1 km/h (3 Bft)
21.07.2016 18:22 24,4 C 24,4 C 61 % 1012,8 hPa 0,0 mm 11,7 km/h (2 Bft) W 269 0 min 0,000 mm 1,3 UV-I 76 W/m 16,4 C 22,5 km/h (4 Bft)
21.07.2016 18:23 24,4 C 24,4 C 60 % 1012,9 hPa 0,0 mm 11,2 km/h (2 Bft) NW 308 0 min 0,000 mm 1,2 UV-I 76 W/m 16,1 C 24,1 km/h (4 Bft)
21.07.2016 18:24 24,4 C 24,4 C 62 % 1012,8 hPa 0,0 mm 10,2 km/h (2 Bft) SW 236 0 min 0,000 mm 1,2 UV-I 76 W/m 16,6 C 14,5 km/h (3 Bft)
21.07.2016 18:25 24,4 C 24,4 C 62 % 1012,8 hPa 0,0 mm 6,9 km/h (2 Bft) W-SW 249 0 min 0,000 mm 1,2 UV-I 76 W/m 16,6 C 11,3 km/h (2 Bft)
21.07.2016 18:26 24,4 C 24,4 C 62 % 1012,8 hPa 0,0 mm 9,1 km/h (2 Bft) NW 314 0 min 0,000 mm 1,2 UV-I 79 W/m 16,6 C 12,9 km/h (3 Bft)
21.07.2016 18:27 24,4 C 24,4 C 61 % 1012,9 hPa 0,0 mm 7,6 km/h (2 Bft) W-NW 285 0 min 0,000 mm 1,2 UV-I 79 W/m 16,4 C 12,9 km/h (3 Bft)
21.07.2016 18:28 24,4 C 24,4 C 60 % 1012,8 hPa 0,0 mm 10,6 km/h (2 Bft) W-NW 288 0 min 0,000 mm 1,2 UV-I 77 W/m 16,1 C 19,3 km/h (3 Bft)
21.07.2016 18:29 24,4 C 24,4 C 61 % 1012,8 hPa 0,0 mm 13,6 km/h (3 Bft) W-NW 284 0 min 0,000 mm 1,2 UV-I 72 W/m 16,4 C 17,7 km/h (3 Bft)
21.07.2016 18:30 24,3 C 24,4 C 61 % 1012,9 hPa 0,0 mm 15,9 km/h (3 Bft) NW 318 0 min 0,000 mm 1,2 UV-I 70 W/m 16,3 C 24,1 km/h (4 Bft)
21.07.2016 18:31 24,3 C 24,3 C 60 % 1012,9 hPa 0,0 mm 10,9 km/h (2 Bft) W-SW 244 0 min 0,000 mm 1,2 UV-I 70 W/m 16,0 C 14,5 km/h (3 Bft)
21.07.2016 18:32 24,3 C 24,3 C 61 % 1012,9 hPa 0,0 mm 8,4 km/h (2 Bft) W 274 0 min 0,000 mm 1,1 UV-I 69 W/m 16,3 C 16,1 km/h (3 Bft)
21.07.2016 18:33 24,3 C 24,3 C 61 % 1012,9 hPa 0,0 mm 11,1 km/h (2 Bft) W-SW 238 0 min 0,000 mm 1,1 UV-I 69 W/m 16,3 C 14,5 km/h (3 Bft)
21.07.2016 18:34 24,2 C 24,3 C 61 % 1012,9 hPa 0,0 mm 7,1 km/h (2 Bft) W-SW 247 0 min 0,000 mm 1,1 UV-I 69 W/m 16,2 C 11,3 km/h (2 Bft)
21.07.2016 18:35 24,2 C 24,3 C 63 % 1012,9 hPa 0,0 mm 7,8 km/h (2 Bft) NW 313 0 min 0,000 mm 1,1 UV-I 69 W/m 16,7 C 12,9 km/h (3 Bft)
21.07.2016 18:36 24,3 C 24,3 C 62 % 1012,9 hPa 0,0 mm 8,5 km/h (2 Bft) W-SW 258 0 min 0,000 mm 1,1 UV-I 67 W/m 16,5 C 16,1 km/h (3 Bft)
21.07.2016 18:37 24,2 C 24,3 C 62 % 1012,9 hPa 0,0 mm 12,5 km/h (3 Bft) N-NW 330 0 min 0,000 mm 1,1 UV-I 67 W/m 16,4 C 19,3 km/h (3 Bft)
21.07.2016 18:38 24,2 C 24,2 C 60 % 1012,8 hPa 0,0 mm 12,1 km/h (2 Bft) W 261 0 min 0,000 mm 1,1 UV-I 67 W/m 15,9 C 17,7 km/h (3 Bft)
21.07.2016 18:39 24,2 C 24,2 C 61 % 1012,8 hPa 0,0 mm 7,4 km/h (2 Bft) W-NW 287 0 min 0,000 mm 1,1 UV-I 67 W/m 16,2 C 12,9 km/h (3 Bft)
21.07.2016 18:40 24,2 C 24,2 C 61 % 1012,9 hPa 0,0 mm 10,1 km/h (2 Bft) W-SW 256 0 min 0,000 mm 1,1 UV-I 67 W/m 16,2 C 14,5 km/h (3 Bft)
21.07.2016 18:41 24,2 C 24,2 C 61 % 1012,9 hPa 0,0 mm 9,5 km/h (2 Bft) W 269 0 min 0,000 mm 1,1 UV-I 67 W/m 16,2 C 17,7 km/h (3 Bft)
21.07.2016 18:42 24,2 C 24,2 C 63 % 1012,9 hPa 0,0 mm 10,9 km/h (2 Bft) W 268 0 min 0,000 mm 1,1 UV-I 69 W/m 16,7 C 20,9 km/h (4 Bft)
21.07.2016 18:43 24,1 C 24,2 C 62 % 1012,9 hPa 0,0 mm 10,5 km/h (2 Bft) W-NW 293 0 min 0,000 mm 1,0 UV-I 67 W/m 16,4 C 16,1 km/h (3 Bft)
21.07.2016 18:44 24,2 C 24,2 C 63 % 1013,0 hPa 0,0 mm 9,1 km/h (2 Bft) SW 236 0 min 0,000 mm 1,0 UV-I 67 W/m 16,7 C 17,7 km/h (3 Bft)
21.07.2016 18:45 24,1 C 24,2 C 62 % 1013,0 hPa 0,0 mm 10,4 km/h (2 Bft) W-NW 287 0 min 0,000 mm 1,0 UV-I 67 W/m 16,4 C 14,5 km/h (3 Bft)
21.07.2016 18:46 24,1 C 24,1 C 63 % 1013,0 hPa 0,0 mm 7,2 km/h (2 Bft) W-NW 298 0 min 0,000 mm 1,0 UV-I 69 W/m 16,6 C 14,5 km/h (3 Bft)
21.07.2016 18:47 24,1 C 24,1 C 62 % 1013,0 hPa 0,0 mm 10,0 km/h (2 Bft) W-NW 294 0 min 0,000 mm 1,0 UV-I 67 W/m 16,4 C 16,1 km/h (3 Bft)
21.07.2016 18:48 24,1 C 24,1 C 62 % 1013,0 hPa 0,0 mm 11,9 km/h (2 Bft) W 261 0 min 0,000 mm 1,0 UV-I 67 W/m 16,4 C 17,7 km/h (3 Bft)
21.07.2016 18:49 24,0 C 24,1 C 61 % 1013,0 hPa 0,0 mm 8,8 km/h (2 Bft) W-NW 293 0 min 0,000 mm 1,0 UV-I 65 W/m 16,0 C 11,3 km/h (2 Bft)
21.07.2016 18:50 24,1 C 24,1 C 62 % 1013,1 hPa 0,0 mm 8,7 km/h (2 Bft) NW 319 0 min 0,000 mm 1,0 UV-I 65 W/m 16,4 C 14,5 km/h (3 Bft)
21.07.2016 18:51 24,0 C 24,1 C 63 % 1013,0 hPa 0,0 mm 8,2 km/h (2 Bft) W 281 0 min 0,000 mm 1,0 UV-I 65 W/m 16,5 C 14,5 km/h (3 Bft)
21.07.2016 18:52 24,0 C 24,0 C 63 % 1013,0 hPa 0,0 mm 8,1 km/h (2 Bft) W 274 0 min 0,000 mm 1,0 UV-I 65 W/m 16,5 C 12,9 km/h (3 Bft)
21.07.2016 18:53 23,9 C 24,0 C 62 % 1012,9 hPa 0,0 mm 6,5 km/h (2 Bft) W 271 0 min 0,000 mm 0,9 UV-I 65 W/m 16,2 C 11,3 km/h (2 Bft)
21.07.2016 18:54 23,9 C 24,0 C 63 % 1013,0 hPa 0,0 mm 10,9 km/h (2 Bft) W 265 0 min 0,000 mm 0,9 UV-I 63 W/m 16,4 C 17,7 km/h (3 Bft)
21.07.2016 18:55 23,9 C 23,9 C 63 % 1013,0 hPa 0,0 mm 11,9 km/h (2 Bft) W-NW 292 0 min 0,000 mm 0,9 UV-I 63 W/m 16,4 C 17,7 km/h (3 Bft)
21.07.2016 18:56 23,9 C 23,9 C 63 % 1013,0 hPa 0,0 mm 11,7 km/h (2 Bft) W 263 0 min 0,000 mm 0,9 UV-I 63 W/m 16,4 C 17,7 km/h (3 Bft)
21.07.2016 18:57 23,9 C 23,9 C 63 % 1013,0 hPa 0,0 mm 11,1 km/h (2 Bft) W-SW 254 0 min 0,000 mm 0,9 UV-I 63 W/m 16,4 C 16,1 km/h (3 Bft)
21.07.2016 18:58 23,9 C 23,9 C 64 % 1013,1 hPa 0,0 mm 9,4 km/h (2 Bft) W-NW 287 0 min 0,000 mm 0,9 UV-I 63 W/m 16,7 C 16,1 km/h (3 Bft)
21.07.2016 18:59 23,9 C 23,9 C 64 % 1013,1 hPa 0,0 mm 9,5 km/h (2 Bft) W 262 0 min 0,000 mm 0,9 UV-I 65 W/m 16,7 C 16,1 km/h (3 Bft)
21.07.2016 19:00 23,9 C 23,9 C 63 % 1013,1 hPa 0,0 mm 6,7 km/h (2 Bft) W-NW 292 0 min 0,000 mm 0,9 UV-I 56 W/m 16,4 C 12,9 km/h (3 Bft)
21.07.2016 19:01 23,8 C 23,9 C 63 % 1013,1 hPa 0,0 mm 6,9 km/h (2 Bft) W 271 0 min 0,102 mm 0,9 UV-I 65 W/m 16,3 C 17,7 km/h (3 Bft)
21.07.2016 19:02 23,8 C 23,8 C 64 % 1013,1 hPa 0,0 mm 8,5 km/h (2 Bft) W-NW 282 0 min 0,000 mm 0,8 UV-I 70 W/m 16,6 C 12,9 km/h (3 Bft)
21.07.2016 19:03 23,8 C 23,8 C 63 % 1013,1 hPa 0,0 mm 14,8 km/h (3 Bft) W 275 0 min 0,000 mm 0,8 UV-I 69 W/m 16,3 C 24,1 km/h (4 Bft)
21.07.2016 19:04 23,8 C 23,8 C 63 % 1013,1 hPa 0,0 mm 12,1 km/h (2 Bft) NW 312 0 min 0,000 mm 0,8 UV-I 62 W/m 16,3 C 19,3 km/h (3 Bft)
21.07.2016 19:05 23,8 C 23,8 C 64 % 1013,1 hPa 0,0 mm 6,3 km/h (2 Bft) W-SW 248 0 min 0,000 mm 0,8 UV-I 58 W/m 16,6 C 12,9 km/h (3 Bft)
21.07.2016 19:06 23,7 C 23,8 C 63 % 1013,2 hPa 0,0 mm 14,6 km/h (3 Bft) W-NW 286 0 min 0,000 mm 0,8 UV-I 63 W/m 16,2 C 19,3 km/h (3 Bft)
21.07.2016 19:07 23,7 C 23,7 C 63 % 1013,1 hPa 0,0 mm 10,6 km/h (2 Bft) NW 320 0 min 0,000 mm 0,8 UV-I 70 W/m 16,2 C 16,1 km/h (3 Bft)
21.07.2016 19:08 23,7 C 23,7 C 63 % 1013,1 hPa 0,0 mm 9,2 km/h (2 Bft) W-SW 258 0 min 0,000 mm 0,8 UV-I 65 W/m 16,2 C 12,9 km/h (3 Bft)
21.07.2016 19:09 23,7 C 23,7 C 63 % 1013,2 hPa 0,0 mm 9,6 km/h (2 Bft) W 271 0 min 0,000 mm 0,0 UV-I 54 W/m 16,2 C 16,1 km/h (3 Bft)
21.07.2016 19:10 23,7 C 23,7 C 64 % 1013,1 hPa 0,0 mm 8,3 km/h (2 Bft) W-NW 287 0 min 0,000 mm 0,8 UV-I 72 W/m 16,5 C 12,9 km/h (3 Bft)
21.07.2016 19:11 23,7 C 23,7 C 64 % 1013,1 hPa 0,0 mm 6,3 km/h (2 Bft) W 263 0 min 0,000 mm 0,8 UV-I 84 W/m 16,5 C 8,0 km/h (2 Bft)
21.07.2016 19:12 23,6 C 23,7 C 64 % 1013,2 hPa 0,0 mm 12,3 km/h (3 Bft) W-NW 292 0 min 0,000 mm 0,8 UV-I 111 W/m 16,4 C 17,7 km/h (3 Bft)
21.07.2016 19:13 23,6 C 23,7 C 64 % 1013,2 hPa 0,0 mm 9,2 km/h (2 Bft) NW 308 0 min 0,000 mm 0,7 UV-I 88 W/m 16,4 C 12,9 km/h (3 Bft)
21.07.2016 19:14 23,7 C 23,7 C 64 % 1013,2 hPa 0,0 mm 12,0 km/h (2 Bft) W-NW 294 0 min 0,000 mm 0,7 UV-I 84 W/m 16,5 C 14,5 km/h (3 Bft)
21.07.2016 19:15 23,6 C 23,7 C 65 % 1013,2 hPa 0,0 mm 8,1 km/h (2 Bft) NW 305 0 min 0,000 mm 0,7 UV-I 76 W/m 16,6 C 11,3 km/h (2 Bft)
21.07.2016 19:16 23,7 C 23,7 C 65 % 1013,3 hPa 0,0 mm 10,1 km/h (2 Bft) W-NW 298 0 min 0,000 mm 0,7 UV-I 69 W/m 16,7 C 14,5 km/h (3 Bft)
21.07.2016 19:17 23,6 C 23,7 C 64 % 1013,2 hPa 0,0 mm 16,0 km/h (3 Bft) NW 311 0 min 0,000 mm 0,7 UV-I 67 W/m 16,4 C 22,5 km/h (4 Bft)
21.07.2016 19:18 23,6 C 23,6 C 65 % 1013,3 hPa 0,0 mm 11,8 km/h (2 Bft) W 279 0 min 0,000 mm 0,7 UV-I 69 W/m 16,6 C 19,3 km/h (3 Bft)
21.07.2016 19:19 23,6 C 23,6 C 65 % 1013,3 hPa 0,0 mm 8,5 km/h (2 Bft) W-NW 284 0 min 0,000 mm 0,7 UV-I 67 W/m 16,6 C 11,3 km/h (2 Bft)
21.07.2016 19:20 23,5 C 23,6 C 66 % 1013,2 hPa 0,0 mm 10,9 km/h (2 Bft) W 271 0 min 0,000 mm 0,7 UV-I 67 W/m 16,8 C 17,7 km/h (3 Bft)
21.07.2016 19:21 23,4 C 23,5 C 65 % 1013,3 hPa 0,0 mm 5,9 km/h (2 Bft) W-NW 288 0 min 0,000 mm 0,7 UV-I 67 W/m 16,4 C 8,0 km/h (2 Bft)
21.07.2016 19:22 23,4 C 23,5 C 66 % 1013,3 hPa 0,0 mm 6,2 km/h (2 Bft) W-NW 282 0 min 0,000 mm 0,7 UV-I 69 W/m 16,7 C 6,4 km/h (2 Bft)
21.07.2016 19:23 23,4 C 23,4 C 65 % 1013,3 hPa 0,0 mm 9,8 km/h (2 Bft) W-NW 303 0 min 0,000 mm 0,7 UV-I 70 W/m 16,4 C 11,3 km/h (2 Bft)
21.07.2016 19:24 23,4 C 23,4 C 66 % 1013,3 hPa 0,0 mm 12,5 km/h (3 Bft) W-NW 291 0 min 0,000 mm 0,6 UV-I 79 W/m 16,7 C 14,5 km/h (3 Bft)
21.07.2016 19:25 23,4 C 23,4 C 65 % 1013,3 hPa 0,0 mm 5,8 km/h (2 Bft) W 261 0 min 0,000 mm 0,6 UV-I 58 W/m 16,4 C 9,7 km/h (2 Bft)
21.07.2016 19:26 23,4 C 23,4 C 63 % 1013,3 hPa 0,0 mm 12,5 km/h (3 Bft) W-NW 282 0 min 0,000 mm 0,6 UV-I 90 W/m 15,9 C 17,7 km/h (3 Bft)
21.07.2016 19:27 23,4 C 23,4 C 62 % 1013,4 hPa 0,0 mm 10,2 km/h (2 Bft) W 273 0 min 0,000 mm 0,6 UV-I 60 W/m 15,7 C 14,5 km/h (3 Bft)
21.07.2016 19:28 23,4 C 23,4 C 63 % 1013,4 hPa 0,0 mm 13,1 km/h (3 Bft) W 265 0 min 0,000 mm 0,6 UV-I 63 W/m 15,9 C 19,3 km/h (3 Bft)
21.07.2016 19:29 23,5 C 23,5 C 64 % 1013,3 hPa 0,0 mm 10,0 km/h (2 Bft) W-NW 283 0 min 0,000 mm 0,6 UV-I 77 W/m 16,3 C 11,3 km/h (2 Bft)
21.07.2016 19:30 23,5 C 23,5 C 62 % 1013,4 hPa 0,0 mm 8,2 km/h (2 Bft) W-NW 282 0 min 0,000 mm 0,6 UV-I 114 W/m 15,8 C 14,5 km/h (3 Bft)
21.07.2016 19:31 23,5 C 23,5 C 63 % 1013,4 hPa 0,0 mm 11,5 km/h (2 Bft) W-NW 295 1 min 0,000 mm 0,6 UV-I 139 W/m 16,0 C 19,3 km/h (3 Bft)
21.07.2016 19:32 23,4 C 23,5 C 64 % 1013,4 hPa 0,0 mm 9,0 km/h (2 Bft) W 269 1 min 0,000 mm 0,6 UV-I 125 W/m 16,2 C 11,3 km/h (2 Bft)
21.07.2016 19:33 23,5 C 23,5 C 62 % 1013,4 hPa 0,0 mm 7,9 km/h (2 Bft) W 279 1 min 0,000 mm 0,6 UV-I 130 W/m 15,8 C 14,5 km/h (3 Bft)
21.07.2016 19:34 23,5 C 23,6 C 62 % 1013,4 hPa 0,0 mm 12,9 km/h (3 Bft) NW 306 1 min 0,000 mm 0,6 UV-I 134 W/m 15,8 C 19,3 km/h (3 Bft)
21.07.2016 19:35 23,6 C 23,6 C 63 % 1013,4 hPa 0,0 mm 8,4 km/h (2 Bft) W 279 1 min 0,000 mm 0,6 UV-I 134 W/m 16,1 C 12,9 km/h (3 Bft)
21.07.2016 19:36 23,6 C 23,6 C 62 % 1013,4 hPa 0,0 mm 10,5 km/h (2 Bft) W-NW 296 1 min 0,000 mm 0,6 UV-I 132 W/m 15,9 C 14,5 km/h (3 Bft)
21.07.2016 19:37 23,6 C 23,6 C 63 % 1013,5 hPa 0,0 mm 7,4 km/h (2 Bft) W-NW 284 1 min 0,000 mm 0,6 UV-I 130 W/m 16,1 C 14,5 km/h (3 Bft)
21.07.2016 19:38 23,6 C 23,6 C 61 % 1013,4 hPa 0,0 mm 10,2 km/h (2 Bft) W-SW 255 1 min 0,000 mm 0,6 UV-I 127 W/m 15,6 C 14,5 km/h (3 Bft)
21.07.2016 19:39 23,5 C 23,6 C 62 % 1013,5 hPa 0,0 mm 12,1 km/h (2 Bft) W 267 0 min 0,000 mm 0,6 UV-I 90 W/m 15,8 C 16,1 km/h (3 Bft)
21.07.2016 19:40 23,5 C 23,5 C 62 % 1013,5 hPa 0,0 mm 8,4 km/h (2 Bft) W-SW 257 0 min 0,000 mm 0,0 UV-I 44 W/m 15,8 C 14,5 km/h (3 Bft)
21.07.2016 19:41 23,4 C 23,5 C 62 % 1013,5 hPa 0,0 mm 5,3 km/h (1 Bft) W-NW 301 0 min 0,000 mm 0,0 UV-I 51 W/m 15,7 C 9,7 km/h (2 Bft)
21.07.2016 19:42 23,4 C 23,4 C 62 % 1013,5 hPa 0,0 mm 7,2 km/h (2 Bft) NW 319 0 min 0,000 mm 0,0 UV-I 51 W/m 15,7 C 8,0 km/h (2 Bft)
21.07.2016 19:43 23,3 C 23,4 C 61 % 1013,5 hPa 0,0 mm 12,2 km/h (2 Bft) W 276 0 min 0,000 mm 0,0 UV-I 46 W/m 15,3 C 19,3 km/h (3 Bft)
21.07.2016 19:44 23,3 C 23,3 C 62 % 1013,5 hPa 0,0 mm 15,3 km/h (3 Bft) W-SW 246 0 min 0,000 mm 0,0 UV-I 44 W/m 15,6 C 22,5 km/h (4 Bft)
21.07.2016 19:45 23,2 C 23,3 C 62 % 1013,6 hPa 0,0 mm 10,5 km/h (2 Bft) W 267 0 min 0,000 mm 0,0 UV-I 42 W/m 15,5 C 16,1 km/h (3 Bft)
21.07.2016 19:46 23,2 C 23,2 C 61 % 1013,6 hPa 0,0 mm 9,2 km/h (2 Bft) W 278 0 min 0,000 mm 0,0 UV-I 53 W/m 15,3 C 12,9 km/h (3 Bft)
21.07.2016 19:47 23,1 C 23,2 C 62 % 1013,7 hPa 0,0 mm 3,4 km/h (1 Bft) W-NW 292 0 min 0,000 mm 0,0 UV-I 62 W/m 15,4 C 4,8 km/h (1 Bft)
21.07.2016 19:48 23,1 C 23,1 C 62 % 1013,7 hPa 0,0 mm 4,8 km/h (1 Bft) W 276 0 min 0,000 mm 0,5 UV-I 62 W/m 15,4 C 6,4 km/h (2 Bft)
21.07.2016 19:49 22,9 C 23,1 C 63 % 1013,7 hPa 0,0 mm 3,8 km/h (1 Bft) W-NW 290 0 min 0,000 mm 0,5 UV-I 67 W/m 15,5 C 4,8 km/h (1 Bft)
21.07.2016 19:50 22,9 C 22,9 C 64 % 1013,7 hPa 0,0 mm 5,5 km/h (1 Bft) NW 304 0 min 0,000 mm 0,0 UV-I 49 W/m 15,7 C 12,9 km/h (3 Bft)
21.07.2016 19:51 22,8 C 22,9 C 66 % 1013,8 hPa 0,0 mm 7,3 km/h (2 Bft) N 355 0 min 0,000 mm 0,0 UV-I 47 W/m 16,1 C 9,7 km/h (2 Bft)
21.07.2016 19:52 22,7 C 22,8 C 67 % 1013,8 hPa 0,0 mm 5,4 km/h (1 Bft) NW 323 0 min 0,000 mm 0,0 UV-I 40 W/m 16,2 C 8,0 km/h (2 Bft)
21.07.2016 19:53 22,7 C 22,7 C 68 % 1013,8 hPa 0,0 mm 7,6 km/h (2 Bft) NW 312 0 min 0,000 mm 0,0 UV-I 44 W/m 16,5 C 11,3 km/h (2 Bft)
21.07.2016 19:54 22,6 C 22,7 C 69 % 1013,8 hPa 0,0 mm 9,3 km/h (2 Bft) NW 315 0 min 0,000 mm 0,0 UV-I 51 W/m 16,6 C 11,3 km/h (2 Bft)
21.07.2016 19:55 22,5 C 22,6 C 70 % 1013,8 hPa 0,0 mm 8,7 km/h (2 Bft) W-NW 293 0 min 0,000 mm 0,0 UV-I 49 W/m 16,7 C 16,1 km/h (3 Bft)
21.07.2016 19:56 22,4 C 22,5 C 72 % 1013,9 hPa 0,0 mm 4,8 km/h (1 Bft) NW 324 0 min 0,000 mm 0,0 UV-I 49 W/m 17,1 C 4,8 km/h (1 Bft)
21.07.2016 19:57 22,3 C 22,4 C 72 % 1013,9 hPa 0,0 mm 5,7 km/h (1 Bft) NW 321 0 min 0,000 mm 0,0 UV-I 39 W/m 17,0 C 6,4 km/h (2 Bft)
21.07.2016 19:58 22,3 C 22,4 C 72 % 1013,9 hPa 0,0 mm 4,6 km/h (1 Bft) W-NW 299 0 min 0,000 mm 0,0 UV-I 39 W/m 17,0 C 6,4 km/h (2 Bft)
21.07.2016 19:59 22,2 C 22,3 C 72 % 1013,9 hPa 0,0 mm 4,2 km/h (1 Bft) W-NW 290 0 min 0,000 mm 0,0 UV-I 35 W/m 16,9 C 6,4 km/h (2 Bft)
21.07.2016 20:00 22,2 C 22,2 C 73 % 1014,0 hPa 0,0 mm 3,6 km/h (1 Bft) W-NW 294 0 min 0,000 mm 0,0 UV-I 33 W/m 17,1 C 6,4 km/h (2 Bft)
21.07.2016 20:01 22,1 C 22,2 C 74 % 1014,0 hPa 0,0 mm 5,4 km/h (1 Bft) N-NW 331 0 min 0,102 mm 0,0 UV-I 37 W/m 17,2 C 8,0 km/h (2 Bft)
21.07.2016 20:02 22,1 C 22,1 C 74 % 1013,9 hPa 0,0 mm 4,1 km/h (1 Bft) W-NW 301 0 min 0,000 mm 0,0 UV-I 35 W/m 17,2 C 8,0 km/h (2 Bft)
21.07.2016 20:03 22,0 C 22,1 C 74 % 1013,9 hPa 0,0 mm 4,3 km/h (1 Bft) NW 309 0 min 0,000 mm 0,0 UV-I 33 W/m 17,1 C 6,4 km/h (2 Bft)
21.07.2016 20:04 22,0 C 22,0 C 74 % 1014,0 hPa 0,0 mm 2,8 km/h (1 Bft) W 271 0 min 0,000 mm 0,0 UV-I 40 W/m 17,1 C 4,8 km/h (1 Bft)
21.07.2016 20:05 21,9 C 22,0 C 74 % 1013,9 hPa 0,0 mm 2,0 km/h (1 Bft) W-NW 292 0 min 0,000 mm 0,0 UV-I 37 W/m 17,0 C 3,2 km/h (1 Bft)
21.07.2016 20:06 21,9 C 21,9 C 75 % 1013,9 hPa 0,0 mm 0,7 km/h (0 Bft) W-NW 296 0 min 0,000 mm 0,0 UV-I 37 W/m 17,3 C 1,6 km/h (1 Bft)
21.07.2016 20:07 21,8 C 21,9 C 75 % 1013,9 hPa 0,0 mm 0,4 km/h (0 Bft) W-NW 296 0 min 0,000 mm 0,0 UV-I 33 W/m 17,2 C 1,6 km/h (1 Bft)
21.07.2016 20:08 21,8 C 21,8 C 75 % 1013,9 hPa 0,0 mm 0,7 km/h (0 Bft) W-NW 296 0 min 0,000 mm 0,0 UV-I 35 W/m 17,2 C 1,6 km/h (1 Bft)
21.07.2016 20:09 21,8 C 21,8 C 76 % 1013,9 hPa 0,0 mm 2,4 km/h (1 Bft) NW 309 0 min 0,000 mm 0,0 UV-I 33 W/m 17,4 C 4,8 km/h (1 Bft)
21.07.2016 20:10 21,7 C 21,8 C 76 % 1014,0 hPa 0,0 mm 2,3 km/h (1 Bft) NW 321 0 min 0,000 mm 0,0 UV-I 28 W/m 17,3 C 4,8 km/h (1 Bft)
21.07.2016 20:11 21,7 C 21,7 C 76 % 1014,0 hPa 0,0 mm 6,1 km/h (2 Bft) W-NW 300 0 min 0,000 mm 0,0 UV-I 26 W/m 17,3 C 11,3 km/h (2 Bft)
21.07.2016 20:12 21,6 C 21,7 C 76 % 1014,0 hPa 0,0 mm 6,4 km/h (2 Bft) N-NW 344 0 min 0,000 mm 0,0 UV-I 25 W/m 17,2 C 8,0 km/h (2 Bft)
21.07.2016 20:13 21,6 C 21,6 C 76 % 1014,1 hPa 0,0 mm 4,2 km/h (1 Bft) W-NW 289 0 min 0,000 mm 0,0 UV-I 25 W/m 17,2 C 8,0 km/h (2 Bft)
21.07.2016 20:14 21,6 C 21,6 C 76 % 1014,1 hPa 0,0 mm 3,4 km/h (1 Bft) NW 315 0 min 0,000 mm 0,0 UV-I 23 W/m 17,2 C 6,4 km/h (2 Bft)
21.07.2016 20:15 21,6 C 21,6 C 76 % 1014,2 hPa 0,0 mm 5,0 km/h (1 Bft) NW 313 0 min 0,000 mm 0,0 UV-I 23 W/m 17,2 C 8,0 km/h (2 Bft)
21.07.2016 20:16 21,6 C 21,6 C 76 % 1014,2 hPa 0,0 mm 2,5 km/h (1 Bft) N-NW 342 0 min 0,000 mm 0,0 UV-I 21 W/m 17,2 C 4,8 km/h (1 Bft)
21.07.2016 20:17 21,6 C 21,6 C 76 % 1014,2 hPa 0,0 mm 1,4 km/h (1 Bft) N-NW 342 0 min 0,000 mm 0,0 UV-I 19 W/m 17,2 C 1,6 km/h (1 Bft)
21.07.2016 20:18 21,5 C 21,6 C 76 % 1014,2 hPa 0,0 mm 3,8 km/h (1 Bft) NW 310 0 min 0,000 mm 0,0 UV-I 19 W/m 17,1 C 6,4 km/h (2 Bft)
21.07.2016 20:19 21,4 C 21,5 C 76 % 1014,2 hPa 0,0 mm 3,6 km/h (1 Bft) N-NW 339 0 min 0,000 mm 0,0 UV-I 19 W/m 17,0 C 4,8 km/h (1 Bft)
21.07.2016 20:20 21,4 C 21,4 C 77 % 1014,2 hPa 0,0 mm 3,7 km/h (1 Bft) N-NW 329 0 min 0,000 mm 0,0 UV-I 18 W/m 17,2 C 4,8 km/h (1 Bft)
21.07.2016 20:21 21,3 C 21,4 C 77 % 1014,2 hPa 0,0 mm 2,6 km/h (1 Bft) NW 315 0 min 0,000 mm 0,0 UV-I 18 W/m 17,1 C 4,8 km/h (1 Bft)
21.07.2016 20:22 21,3 C 21,3 C 77 % 1014,2 hPa 0,0 mm 0,4 km/h (0 Bft) NW 315 0 min 0,000 mm 0,0 UV-I 16 W/m 17,1 C 1,6 km/h (1 Bft)
21.07.2016 20:23 21,2 C 21,3 C 77 % 1014,2 hPa 0,0 mm 0,2 km/h (0 Bft) NW 315 0 min 0,000 mm 0,0 UV-I 16 W/m 17,0 C 1,6 km/h (1 Bft)
21.07.2016 20:24 21,1 C 21,2 C 78 % 1014,2 hPa 0,0 mm 0,0 km/h (0 Bft) NW 315 0 min 0,000 mm 0,0 UV-I 16 W/m 17,1 C 0,0 km/h (0 Bft)
21.07.2016 20:25 21,1 C 21,1 C 78 % 1014,2 hPa 0,0 mm 2,7 km/h (1 Bft) NO 49 0 min 0,000 mm 0,0 UV-I 14 W/m 17,1 C 4,8 km/h (1 Bft)
21.07.2016 20:26 21,0 C 21,1 C 78 % 1014,2 hPa 0,0 mm 3,4 km/h (1 Bft) N 10 0 min 0,000 mm 0,0 UV-I 14 W/m 17,0 C 4,8 km/h (1 Bft)
21.07.2016 20:27 21,0 C 21,0 C 78 % 1014,1 hPa 0,0 mm 2,9 km/h (1 Bft) N 5 0 min 0,000 mm 0,0 UV-I 14 W/m 17,0 C 4,8 km/h (1 Bft)
21.07.2016 20:28 21,0 C 21,0 C 78 % 1014,1 hPa 0,0 mm 0,8 km/h (0 Bft) N 5 0 min 0,000 mm 0,0 UV-I 12 W/m 17,0 C 1,6 km/h (1 Bft)
21.07.2016 20:29 20,9 C 21,0 C 78 % 1014,2 hPa 0,0 mm 3,4 km/h (1 Bft) NO 53 0 min 0,000 mm 0,0 UV-I 12 W/m 16,9 C 6,4 km/h (2 Bft)
21.07.2016 20:30 20,9 C 21,0 C 78 % 1014,2 hPa 0,0 mm 4,1 km/h (1 Bft) N-NO 27 0 min 0,000 mm 0,0 UV-I 12 W/m 16,9 C 6,4 km/h (2 Bft)
21.07.2016 20:31 20,9 C 20,9 C 78 % 1014,1 hPa 0,0 mm 2,9 km/h (1 Bft) N-NO 29 0 min 0,000 mm 0,0 UV-I 12 W/m 16,9 C 4,8 km/h (1 Bft)
21.07.2016 20:32 20,9 C 20,9 C 78 % 1014,2 hPa 0,0 mm 2,3 km/h (1 Bft) N-NO 28 0 min 0,000 mm 0,0 UV-I 12 W/m 16,9 C 3,2 km/h (1 Bft)
21.07.2016 20:33 20,9 C 20,9 C 78 % 1014,2 hPa 0,0 mm 0,7 km/h (0 Bft) NO 42 0 min 0,000 mm 0,0 UV-I 12 W/m 16,9 C 3,2 km/h (1 Bft)
21.07.2016 20:34 20,8 C 20,9 C 79 % 1014,2 hPa 0,0 mm 4,8 km/h (1 Bft) O-NO 64 0 min 0,000 mm 0,0 UV-I 12 W/m 17,0 C 6,4 km/h (2 Bft)
21.07.2016 20:35 20,8 C 20,8 C 79 % 1014,1 hPa 0,0 mm 3,7 km/h (1 Bft) NO 50 0 min 0,000 mm 0,0 UV-I 12 W/m 17,0 C 6,4 km/h (2 Bft)
21.07.2016 20:36 20,8 C 20,8 C 79 % 1014,2 hPa 0,0 mm 1,2 km/h (1 Bft) NO 50 0 min 0,000 mm 0,0 UV-I 11 W/m 17,0 C 3,2 km/h (1 Bft)
21.07.2016 20:37 20,8 C 20,8 C 79 % 1014,2 hPa 0,0 mm 2,4 km/h (1 Bft) N-NO 31 0 min 0,000 mm 0,0 UV-I 11 W/m 17,0 C 4,8 km/h (1 Bft)
21.07.2016 20:38 20,8 C 20,8 C 79 % 1014,2 hPa 0,0 mm 1,0 km/h (0 Bft) N-NO 31 0 min 0,000 mm 0,0 UV-I 11 W/m 17,0 C 1,6 km/h (1 Bft)
21.07.2016 20:39 20,8 C 20,8 C 79 % 1014,3 hPa 0,0 mm 0,9 km/h (0 Bft) N-NO 30 0 min 0,000 mm 0,0 UV-I 9 W/m 17,0 C 3,2 km/h (1 Bft)
21.07.2016 20:40 20,8 C 20,8 C 79 % 1014,3 hPa 0,0 mm 2,7 km/h (1 Bft) N-NW 343 0 min 0,000 mm 0,0 UV-I 9 W/m 17,0 C 4,8 km/h (1 Bft)
21.07.2016 20:41 20,8 C 20,8 C 79 % 1014,3 hPa 0,0 mm 0,9 km/h (0 Bft) N-NW 343 0 min 0,000 mm 0,0 UV-I 9 W/m 17,0 C 1,6 km/h (1 Bft)
21.07.2016 20:42 20,8 C 20,8 C 79 % 1014,3 hPa 0,0 mm 1,5 km/h (1 Bft) N-NW 338 0 min 0,000 mm 0,0 UV-I 9 W/m 17,0 C 3,2 km/h (1 Bft)
21.07.2016 20:43 20,8 C 20,8 C 79 % 1014,3 hPa 0,0 mm 0,7 km/h (0 Bft) N-NW 338 0 min 0,000 mm 0,0 UV-I 9 W/m 17,0 C 1,6 km/h (1 Bft)
21.07.2016 20:44 20,8 C 20,9 C 79 % 1014,3 hPa 0,0 mm 1,7 km/h (1 Bft) N-NW 338 0 min 0,000 mm 0,0 UV-I 9 W/m 17,0 C 3,2 km/h (1 Bft)
21.07.2016 20:45 20,8 C 20,8 C 79 % 1014,4 hPa 0,0 mm 2,3 km/h (1 Bft) NW 323 0 min 0,000 mm 0,0 UV-I 11 W/m 17,0 C 3,2 km/h (1 Bft)
21.07.2016 20:46 20,8 C 20,8 C 79 % 1014,4 hPa 0,0 mm 2,6 km/h (1 Bft) NW 323 0 min 0,000 mm 0,0 UV-I 12 W/m 17,0 C 3,2 km/h (1 Bft)
21.07.2016 20:47 20,8 C 20,8 C 79 % 1014,3 hPa 0,0 mm 3,2 km/h (1 Bft) N-NW 336 0 min 0,000 mm 0,0 UV-I 14 W/m 17,0 C 4,8 km/h (1 Bft)
21.07.2016 20:48 20,8 C 20,8 C 79 % 1014,3 hPa 0,0 mm 2,4 km/h (1 Bft) N-NW 336 1 min 0,000 mm 0,0 UV-I 16 W/m 17,0 C 3,2 km/h (1 Bft)
21.07.2016 20:49 20,8 C 20,8 C 79 % 1014,3 hPa 0,0 mm 0,9 km/h (0 Bft) N-NW 336 1 min 0,000 mm 0,0 UV-I 16 W/m 17,0 C 3,2 km/h (1 Bft)
21.07.2016 20:50 20,8 C 20,8 C 79 % 1014,3 hPa 0,0 mm 0,1 km/h (0 Bft) N-NW 336 1 min 0,000 mm 0,0 UV-I 16 W/m 17,0 C 1,6 km/h (1 Bft)
21.07.2016 20:51 20,8 C 20,8 C 79 % 1014,3 hPa 0,0 mm 0,0 km/h (0 Bft) N-NW 336 1 min 0,000 mm 0,0 UV-I 16 W/m 17,0 C 0,0 km/h (0 Bft)
21.07.2016 20:52 20,8 C 20,8 C 79 % 1014,3 hPa 0,0 mm 0,0 km/h (0 Bft) N-NW 336 1 min 0,000 mm 0,0 UV-I 16 W/m 17,0 C 0,0 km/h (0 Bft)
21.07.2016 20:53 20,8 C 20,8 C 80 % 1014,3 hPa 0,0 mm 0,5 km/h (0 Bft) N-NW 336 0 min 0,000 mm 0,0 UV-I 14 W/m 17,2 C 1,6 km/h (1 Bft)
21.07.2016 20:54 20,7 C 20,8 C 80 % 1014,3 hPa 0,0 mm 1,1 km/h (1 Bft) N-NW 336 0 min 0,000 mm 0,0 UV-I 14 W/m 17,1 C 1,6 km/h (1 Bft)
21.07.2016 20:55 20,7 C 20,7 C 80 % 1014,3 hPa 0,0 mm 0,1 km/h (0 Bft) N-NW 336 0 min 0,000 mm 0,0 UV-I 12 W/m 17,1 C 1,6 km/h (1 Bft)
21.07.2016 20:56 20,6 C 20,7 C 80 % 1014,3 hPa 0,0 mm 0,0 km/h (0 Bft) N-NW 336 0 min 0,000 mm 0,0 UV-I 11 W/m 17,0 C 0,0 km/h (0 Bft)
21.07.2016 20:57 20,6 C 20,6 C 80 % 1014,3 hPa 0,0 mm 0,0 km/h (0 Bft) N-NW 336 0 min 0,000 mm 0,0 UV-I 9 W/m 17,0 C 0,0 km/h (0 Bft)
21.07.2016 20:58 20,6 C 20,6 C 80 % 1014,3 hPa 0,0 mm 0,0 km/h (0 Bft) N-NW 336 0 min 0,000 mm 0,0 UV-I 7 W/m 17,0 C 0,0 km/h (0 Bft)
21.07.2016 20:59 20,6 C 20,6 C 81 % 1014,3 hPa 0,0 mm 0,0 km/h (0 Bft) N-NW 336 0 min 0,000 mm 0,0 UV-I 5 W/m 17,2 C 0,0 km/h (0 Bft)
21.07.2016 21:00 20,6 C 20,6 C 81 % 1014,3 hPa 0,0 mm 0,0 km/h (0 Bft) N-NW 336 0 min 0,000 mm 0,0 UV-I 5 W/m 17,2 C 0,0 km/h (0 Bft)
21.07.2016 21:01 20,5 C 20,6 C 81 % 1014,3 hPa 0,0 mm 0,0 km/h (0 Bft) N-NW 336 0 min 0,025 mm 0,0 UV-I 5 W/m 17,1 C 0,0 km/h (0 Bft)
21.07.2016 21:02 20,4 C 20,5 C 81 % 1014,3 hPa 0,0 mm 0,5 km/h (0 Bft) N-NW 336 0 min 0,000 mm 0,0 UV-I 0 W/m 17,0 C 1,6 km/h (1 Bft)
21.07.2016 21:03 20,4 C 20,4 C 81 % 1014,3 hPa 0,0 mm 1,5 km/h (1 Bft) N-NW 336 0 min 0,000 mm 0,0 UV-I 0 W/m 17,0 C 3,2 km/h (1 Bft)
21.07.2016 21:04 20,4 C 20,4 C 81 % 1014,3 hPa 0,0 mm 2,7 km/h (1 Bft) W-NW 297 0 min 0,000 mm 0,0 UV-I 0 W/m 17,0 C 3,2 km/h (1 Bft)
21.07.2016 21:05 20,4 C 20,4 C 81 % 1014,4 hPa 0,0 mm 2,7 km/h (1 Bft) W-NW 296 0 min 0,000 mm 0,0 UV-I 0 W/m 17,0 C 3,2 km/h (1 Bft)
21.07.2016 21:06 20,3 C 20,4 C 82 % 1014,5 hPa 0,0 mm 3,9 km/h (1 Bft) W-NW 288 0 min 0,000 mm 0,0 UV-I 0 W/m 17,1 C 6,4 km/h (2 Bft)
21.07.2016 21:07 20,3 C 20,3 C 82 % 1014,5 hPa 0,0 mm 4,1 km/h (1 Bft) W 271 0 min 0,000 mm 0,0 UV-I 0 W/m 17,1 C 6,4 km/h (2 Bft)
21.07.2016 21:08 20,3 C 20,3 C 82 % 1014,6 hPa 0,0 mm 5,2 km/h (1 Bft) NW 305 0 min 0,000 mm 0,0 UV-I 0 W/m 17,1 C 6,4 km/h (2 Bft)
21.07.2016 21:09 20,3 C 20,3 C 82 % 1014,6 hPa 0,0 mm 4,7 km/h (1 Bft) W 269 0 min 0,000 mm 0,0 UV-I 0 W/m 17,1 C 6,4 km/h (2 Bft)
21.07.2016 21:10 20,2 C 20,3 C 83 % 1014,6 hPa 0,0 mm 6,7 km/h (2 Bft) NW 304 0 min 0,000 mm 0,0 UV-I 0 W/m 17,2 C 12,9 km/h (3 Bft)
21.07.2016 21:11 20,2 C 20,2 C 83 % 1014,7 hPa 0,0 mm 4,9 km/h (1 Bft) W-NW 294 0 min 0,000 mm 0,0 UV-I 0 W/m 17,2 C 8,0 km/h (2 Bft)
21.07.2016 21:12 20,2 C 20,2 C 83 % 1014,7 hPa 0,0 mm 5,4 km/h (1 Bft) W 281 0 min 0,000 mm 0,0 UV-I 0 W/m 17,2 C 12,9 km/h (3 Bft)
21.07.2016 21:13 20,1 C 20,2 C 84 % 1014,7 hPa 0,0 mm 1,1 km/h (1 Bft) W-SW 254 0 min 0,000 mm 0,0 UV-I 0 W/m 17,3 C 3,2 km/h (1 Bft)
21.07.2016 21:14 20,1 C 20,1 C 83 % 1014,6 hPa 0,0 mm 0,3 km/h (0 Bft) W-SW 252 0 min 0,000 mm 0,0 UV-I 0 W/m 17,1 C 1,6 km/h (1 Bft)
21.07.2016 21:15 20,1 C 20,1 C 84 % 1014,6 hPa 0,0 mm 1,1 km/h (1 Bft) W 275 0 min 0,000 mm 0,0 UV-I 0 W/m 17,3 C 3,2 km/h (1 Bft)
21.07.2016 21:16 20,0 C 20,1 C 84 % 1014,7 hPa 0,0 mm 2,4 km/h (1 Bft) NW 311 0 min 0,000 mm 0,0 UV-I 0 W/m 17,2 C 3,2 km/h (1 Bft)
21.07.2016 21:17 19,9 C 20,0 C 84 % 1014,7 hPa 0,0 mm 0,7 km/h (0 Bft) NW 311 0 min 0,000 mm 0,0 UV-I 0 W/m 17,1 C 1,6 km/h (1 Bft)
21.07.2016 21:18 19,9 C 19,9 C 84 % 1014,8 hPa 0,0 mm 1,2 km/h (1 Bft) NW 311 0 min 0,000 mm 0,0 UV-I 0 W/m 17,1 C 1,6 km/h (1 Bft)
21.07.2016 21:19 19,9 C 19,9 C 84 % 1014,8 hPa 0,0 mm 1,3 km/h (1 Bft) NW 311 0 min 0,000 mm 0,0 UV-I 0 W/m 17,1 C 1,6 km/h (1 Bft)
21.07.2016 21:20 19,9 C 19,9 C 84 % 1014,7 hPa 0,0 mm 0,7 km/h (0 Bft) NW 311 0 min 0,000 mm 0,0 UV-I 0 W/m 17,1 C 1,6 km/h (1 Bft)
21.07.2016 21:21 19,8 C 19,9 C 85 % 1014,7 hPa 0,0 mm 1,9 km/h (1 Bft) NW 311 0 min 0,000 mm 0,0 UV-I 0 W/m 17,2 C 3,2 km/h (1 Bft)
21.07.2016 21:22 19,8 C 19,8 C 85 % 1014,7 hPa 0,0 mm 1,1 km/h (1 Bft) NW 311 0 min 0,000 mm 0,0 UV-I 0 W/m 17,2 C 1,6 km/h (1 Bft)
21.07.2016 21:23 19,8 C 19,8 C 85 % 1014,7 hPa 0,0 mm 0,6 km/h (0 Bft) NW 311 0 min 0,000 mm 0,0 UV-I 0 W/m 17,2 C 1,6 km/h (1 Bft)
21.07.2016 21:24 19,7 C 19,8 C 85 % 1014,8 hPa 0,0 mm 1,7 km/h (1 Bft) NW 311 0 min 0,000 mm 0,0 UV-I 0 W/m 17,1 C 3,2 km/h (1 Bft)
21.07.2016 21:25 19,6 C 19,7 C 85 % 1014,7 hPa 0,0 mm 1,6 km/h (1 Bft) NW 311 0 min 0,000 mm 0,0 UV-I 0 W/m 17,0 C 3,2 km/h (1 Bft)
21.07.2016 21:26 19,5 C 19,6 C 86 % 1014,7 hPa 0,0 mm 1,7 km/h (1 Bft) NW 311 0 min 0,000 mm 0,0 UV-I 0 W/m 17,1 C 3,2 km/h (1 Bft)
21.07.2016 21:27 19,4 C 19,5 C 86 % 1014,7 hPa 0,0 mm 1,4 km/h (1 Bft) NW 311 0 min 0,000 mm 0,0 UV-I 0 W/m 17,0 C 1,6 km/h (1 Bft)
21.07.2016 21:28 19,3 C 19,4 C 86 % 1014,7 hPa 0,0 mm 1,5 km/h (1 Bft) NW 311 0 min 0,000 mm 0,0 UV-I 0 W/m 16,9 C 3,2 km/h (1 Bft)
21.07.2016 21:29 19,3 C 19,3 C 86 % 1014,8 hPa 0,0 mm 2,1 km/h (1 Bft) NW 311 0 min 0,000 mm 0,0 UV-I 0 W/m 16,9 C 3,2 km/h (1 Bft)
21.07.2016 21:30 19,3 C 19,3 C 86 % 1014,8 hPa 0,0 mm 1,7 km/h (1 Bft) NW 311 0 min 0,000 mm 0,0 UV-I 0 W/m 16,9 C 3,2 km/h (1 Bft)
21.07.2016 21:31 19,2 C 19,3 C 87 % 1014,8 hPa 0,0 mm 1,1 km/h (1 Bft) NW 311 0 min 0,000 mm 0,0 UV-I 0 W/m 17,0 C 3,2 km/h (1 Bft)
21.07.2016 21:32 19,2 C 19,2 C 87 % 1014,8 hPa 0,0 mm 1,3 km/h (1 Bft) NW 311 0 min 0,000 mm 0,0 UV-I 0 W/m 17,0 C 1,6 km/h (1 Bft)
21.07.2016 21:33 19,2 C 19,2 C 87 % 1014,8 hPa 0,0 mm 0,8 km/h (0 Bft) NW 311 0 min 0,000 mm 0,0 UV-I 0 W/m 17,0 C 1,6 km/h (1 Bft)
21.07.2016 21:34 19,2 C 19,2 C 87 % 1014,9 hPa 0,0 mm 0,5 km/h (0 Bft) NW 311 0 min 0,000 mm 0,0 UV-I 0 W/m 17,0 C 1,6 km/h (1 Bft)
21.07.2016 21:35 19,1 C 19,2 C 87 % 1014,8 hPa 0,0 mm 0,9 km/h (0 Bft) NW 311 0 min 0,000 mm 0,0 UV-I 0 W/m 16,9 C 1,6 km/h (1 Bft)
21.07.2016 21:36 19,1 C 19,2 C 87 % 1014,8 hPa 0,0 mm 0,0 km/h (0 Bft) NW 311 0 min 0,000 mm 0,0 UV-I 0 W/m 16,9 C 0,0 km/h (0 Bft)
21.07.2016 21:37 19,2 C 19,2 C 87 % 1014,9 hPa 0,0 mm 0,0 km/h (0 Bft) NW 311 0 min 0,000 mm 0,0 UV-I 0 W/m 17,0 C 0,0 km/h (0 Bft)
21.07.2016 21:38 19,1 C 19,2 C 88 % 1014,8 hPa 0,0 mm 0,2 km/h (0 Bft) NW 311 0 min 0,000 mm 0,0 UV-I 0 W/m 17,1 C 1,6 km/h (1 Bft)
21.07.2016 21:39 19,2 C 19,2 C 88 % 1014,8 hPa 0,0 mm 0,8 km/h (0 Bft) NW 311 0 min 0,000 mm 0,0 UV-I 0 W/m 17,2 C 1,6 km/h (1 Bft)
21.07.2016 21:40 19,2 C 19,2 C 87 % 1014,9 hPa 0,0 mm 0,7 km/h (0 Bft) NW 311 0 min 0,000 mm 0,0 UV-I 0 W/m 17,0 C 1,6 km/h (1 Bft)
21.07.2016 21:41 19,2 C 19,2 C 87 % 1014,9 hPa 0,0 mm 0,8 km/h (0 Bft) NW 311 0 min 0,000 mm 0,0 UV-I 0 W/m 17,0 C 1,6 km/h (1 Bft)
21.07.2016 21:42 19,2 C 19,2 C 87 % 1014,8 hPa 0,0 mm 0,9 km/h (0 Bft) NW 311 0 min 0,000 mm 0,0 UV-I 0 W/m 17,0 C 1,6 km/h (1 Bft)
21.07.2016 21:43 19,2 C 19,2 C 88 % 1014,8 hPa 0,0 mm 0,3 km/h (0 Bft) NW 311 0 min 0,000 mm 0,0 UV-I 0 W/m 17,2 C 1,6 km/h (1 Bft)
21.07.2016 21:44 19,2 C 19,2 C 88 % 1014,9 hPa 0,0 mm 0,4 km/h (0 Bft) NW 311 0 min 0,000 mm 0,0 UV-I 0 W/m 17,2 C 1,6 km/h (1 Bft)
21.07.2016 21:45 19,2 C 19,2 C 88 % 1014,9 hPa 0,0 mm 0,5 km/h (0 Bft) NW 311 0 min 0,000 mm 0,0 UV-I 0 W/m 17,2 C 1,6 km/h (1 Bft)
21.07.2016 21:46 19,2 C 19,2 C 88 % 1014,8 hPa 0,0 mm 1,2 km/h (1 Bft) NW 311 0 min 0,000 mm 0,0 UV-I 0 W/m 17,2 C 1,6 km/h (1 Bft)
21.07.2016 21:47 19,2 C 19,2 C 87 % 1014,8 hPa 0,0 mm 1,1 km/h (1 Bft) NW 311 0 min 0,000 mm 0,0 UV-I 0 W/m 17,0 C 1,6 km/h (1 Bft)
21.07.2016 21:48 19,2 C 19,2 C 87 % 1014,9 hPa 0,0 mm 1,9 km/h (1 Bft) NW 311 0 min 0,000 mm 0,0 UV-I 0 W/m 17,0 C 3,2 km/h (1 Bft)
21.07.2016 21:49 19,2 C 19,2 C 87 % 1014,8 hPa 0,0 mm 1,5 km/h (1 Bft) NW 311 0 min 0,000 mm 0,0 UV-I 0 W/m 17,0 C 3,2 km/h (1 Bft)
21.07.2016 21:50 19,2 C 19,2 C 87 % 1014,8 hPa 0,0 mm 1,2 km/h (1 Bft) NW 311 0 min 0,000 mm 0,0 UV-I 0 W/m 17,0 C 1,6 km/h (1 Bft)
21.07.2016 21:51 19,1 C 19,2 C 87 % 1014,8 hPa 0,0 mm 0,8 km/h (0 Bft) NW 311 0 min 0,000 mm 0,0 UV-I 0 W/m 16,9 C 1,6 km/h (1 Bft)
21.07.2016 21:52 19,1 C 19,1 C 87 % 1014,8 hPa 0,0 mm 0,7 km/h (0 Bft) NW 311 0 min 0,000 mm 0,0 UV-I 0 W/m 16,9 C 1,6 km/h (1 Bft)
21.07.2016 21:53 19,0 C 19,1 C 87 % 1014,8 hPa 0,0 mm 0,3 km/h (0 Bft) NW 311 0 min 0,000 mm 0,0 UV-I 0 W/m 16,8 C 1,6 km/h (1 Bft)
21.07.2016 21:54 19,0 C 19,1 C 87 % 1014,8 hPa 0,0 mm 0,1 km/h (0 Bft) NW 311 0 min 0,000 mm 0,0 UV-I 0 W/m 16,8 C 1,6 km/h (1 Bft)
21.07.2016 21:55 18,9 C 19,1 C 87 % 1014,8 hPa 0,0 mm 0,0 km/h (0 Bft) NW 311 0 min 0,000 mm 0,0 UV-I 0 W/m 16,7 C 0,0 km/h (0 Bft)
21.07.2016 21:56 18,9 C 18,9 C 86 % 1014,8 hPa 0,0 mm 0,0 km/h (0 Bft) NW 311 0 min 0,000 mm 0,0 UV-I 0 W/m 16,5 C 0,0 km/h (0 Bft)
21.07.2016 21:57 18,8 C 18,9 C 87 % 1014,8 hPa 0,0 mm 0,0 km/h (0 Bft) NW 311 0 min 0,000 mm 0,0 UV-I 0 W/m 16,6 C 0,0 km/h (0 Bft)
21.07.2016 21:58 18,7 C 18,8 C 87 % 1014,8 hPa 0,0 mm 0,0 km/h (0 Bft) NW 311 0 min 0,000 mm 0,0 UV-I 0 W/m 16,5 C 0,0 km/h (0 Bft)
21.07.2016 21:59 18,7 C 18,7 C 88 % 1014,8 hPa 0,0 mm 0,0 km/h (0 Bft) NW 311 0 min 0,000 mm 0,0 UV-I 0 W/m 16,7 C 0,0 km/h (0 Bft)
21.07.2016 22:00 18,7 C 18,7 C 88 % 1014,7 hPa 0,0 mm 1,2 km/h (1 Bft) NW 311 0 min 0,000 mm 0,0 UV-I 0 W/m 16,7 C 1,6 km/h (1 Bft)
21.07.2016 22:01 18,6 C 18,7 C 88 % 1014,8 hPa 0,0 mm 0,8 km/h (0 Bft) NW 311 0 min 0,000 mm 0,0 UV-I 0 W/m 16,6 C 1,6 km/h (1 Bft)
21.07.2016 22:02 18,5 C 18,6 C 88 % 1014,7 hPa 0,0 mm 0,0 km/h (0 Bft) S 184 0 min 0,000 mm 0,0 UV-I 0 W/m 16,5 C 0,0 km/h (0 Bft)
21.07.2016 22:03 18,5 C 18,5 C 88 % 1014,7 hPa 0,0 mm 1,0 km/h (0 Bft) S 169 0 min 0,000 mm 0,0 UV-I 0 W/m 16,5 C 6,4 km/h (2 Bft)
21.07.2016 22:04 18,4 C 18,5 C 89 % 1014,7 hPa 0,0 mm 5,0 km/h (1 Bft) S-SO 168 0 min 0,000 mm 0,0 UV-I 0 W/m 16,6 C 6,4 km/h (2 Bft)
21.07.2016 22:05 18,5 C 18,5 C 89 % 1014,7 hPa 0,0 mm 3,9 km/h (1 Bft) S-SO 168 0 min 0,000 mm 0,0 UV-I 0 W/m 16,7 C 6,4 km/h (2 Bft)
21.07.2016 22:06 18,5 C 18,5 C 89 % 1014,8 hPa 0,0 mm 4,0 km/h (1 Bft) S-SO 168 0 min 0,000 mm 0,0 UV-I 0 W/m 16,7 C 6,4 km/h (2 Bft)
21.07.2016 22:07 18,5 C 18,5 C 89 % 1014,7 hPa 0,0 mm 3,2 km/h (1 Bft) S-SO 168 0 min 0,000 mm 0,0 UV-I 0 W/m 16,7 C 3,2 km/h (1 Bft)
21.07.2016 22:08 18,6 C 18,6 C 89 % 1014,7 hPa 0,0 mm 3,1 km/h (1 Bft) S-SO 168 0 min 0,000 mm 0,0 UV-I 0 W/m 16,7 C 3,2 km/h (1 Bft)
21.07.2016 22:09 18,6 C 18,6 C 89 % 1014,7 hPa 0,0 mm 2,1 km/h (1 Bft) S-SO 168 0 min 0,000 mm 0,0 UV-I 0 W/m 16,7 C 3,2 km/h (1 Bft)
21.07.2016 22:10 18,5 C 18,6 C 88 % 1014,7 hPa 0,0 mm 0,3 km/h (0 Bft) S-SO 168 0 min 0,000 mm 0,0 UV-I 0 W/m 16,5 C 1,6 km/h (1 Bft)
21.07.2016 22:11 18,5 C 18,6 C 88 % 1014,7 hPa 0,0 mm 0,0 km/h (0 Bft) S-SO 168 0 min 0,000 mm 0,0 UV-I 0 W/m 16,5 C 0,0 km/h (0 Bft)
21.07.2016 22:12 18,4 C 18,5 C 88 % 1014,8 hPa 0,0 mm 0,0 km/h (0 Bft) S-SO 168 0 min 0,000 mm 0,0 UV-I 0 W/m 16,4 C 0,0 km/h (0 Bft)
21.07.2016 22:13 18,3 C 18,4 C 88 % 1014,7 hPa 0,0 mm 0,1 km/h (0 Bft) S-SO 168 0 min 0,000 mm 0,0 UV-I 0 W/m 16,3 C 1,6 km/h (1 Bft)
21.07.2016 22:14 18,2 C 18,3 C 88 % 1014,7 hPa 0,0 mm 0,0 km/h (0 Bft) S-SO 168 0 min 0,000 mm 0,0 UV-I 0 W/m 16,2 C 0,0 km/h (0 Bft)
21.07.2016 22:15 18,1 C 18,2 C 89 % 1014,7 hPa 0,0 mm 0,1 km/h (0 Bft) S-SO 168 0 min 0,000 mm 0,0 UV-I 0 W/m 16,3 C 1,6 km/h (1 Bft)
21.07.2016 22:16 17,9 C 18,1 C 89 % 1014,7 hPa 0,0 mm 0,1 km/h (0 Bft) S-SO 168 0 min 0,000 mm 0,0 UV-I 0 W/m 16,1 C 1,6 km/h (1 Bft)
21.07.2016 22:17 17,8 C 17,9 C 90 % 1014,7 hPa 0,0 mm 0,0 km/h (0 Bft) S-SO 168 0 min 0,000 mm 0,0 UV-I 0 W/m 16,1 C 0,0 km/h (0 Bft)
21.07.2016 22:18 17,8 C 17,8 C 90 % 1014,7 hPa 0,0 mm 0,0 km/h (0 Bft) S-SO 168 0 min 0,000 mm 0,0 UV-I 0 W/m 16,1 C 0,0 km/h (0 Bft)
21.07.2016 22:19 17,8 C 17,8 C 90 % 1014,7 hPa 0,0 mm 0,0 km/h (0 Bft) S-SO 168 0 min 0,000 mm 0,0 UV-I 0 W/m 16,1 C 0,0 km/h (0 Bft)
21.07.2016 22:20 17,8 C 17,8 C 91 % 1014,7 hPa 0,0 mm 0,0 km/h (0 Bft) S-SO 168 0 min 0,000 mm 0,0 UV-I 0 W/m 16,3 C 0,0 km/h (0 Bft)
21.07.2016 22:21 17,9 C 17,9 C 91 % 1014,6 hPa 0,0 mm 0,0 km/h (0 Bft) S-SO 168 0 min 0,000 mm 0,0 UV-I 0 W/m 16,4 C 0,0 km/h (0 Bft)
21.07.2016 22:22 17,9 C 17,9 C 90 % 1014,7 hPa 0,0 mm 0,0 km/h (0 Bft) S-SO 168 0 min 0,000 mm 0,0 UV-I 0 W/m 16,2 C 0,0 km/h (0 Bft)
21.07.2016 22:23 17,9 C 17,9 C 90 % 1014,7 hPa 0,0 mm 0,0 km/h (0 Bft) S-SO 168 0 min 0,000 mm 0,0 UV-I 0 W/m 16,2 C 0,0 km/h (0 Bft)
21.07.2016 22:24 17,9 C 17,9 C 90 % 1014,6 hPa 0,0 mm 0,0 km/h (0 Bft) S-SO 168 0 min 0,000 mm 0,0 UV-I 0 W/m 16,2 C 0,0 km/h (0 Bft)
21.07.2016 22:25 17,9 C 17,9 C 90 % 1014,7 hPa 0,0 mm 0,0 km/h (0 Bft) S-SO 168 0 min 0,000 mm 0,0 UV-I 0 W/m 16,2 C 0,0 km/h (0 Bft)
21.07.2016 22:26 17,8 C 17,9 C 89 % 1014,7 hPa 0,0 mm 0,0 km/h (0 Bft) S-SO 168 0 min 0,000 mm 0,0 UV-I 0 W/m 16,0 C 0,0 km/h (0 Bft)
21.07.2016 22:27 17,8 C 17,8 C 90 % 1014,7 hPa 0,0 mm 0,0 km/h (0 Bft) S-SO 168 0 min 0,000 mm 0,0 UV-I 0 W/m 16,1 C 0,0 km/h (0 Bft)
21.07.2016 22:28 17,7 C 17,8 C 90 % 1014,7 hPa 0,0 mm 0,0 km/h (0 Bft) S-SO 168 0 min 0,000 mm 0,0 UV-I 0 W/m 16,0 C 0,0 km/h (0 Bft)
21.07.2016 22:29 17,6 C 17,7 C 90 % 1014,7 hPa 0,0 mm 0,0 km/h (0 Bft) S-SO 168 0 min 0,000 mm 0,0 UV-I 0 W/m 15,9 C 0,0 km/h (0 Bft)
21.07.2016 22:30 17,6 C 17,6 C 91 % 1014,7 hPa 0,0 mm 0,0 km/h (0 Bft) S-SO 168 0 min 0,000 mm 0,0 UV-I 0 W/m 16,1 C 0,0 km/h (0 Bft)
21.07.2016 22:31 17,6 C 17,6 C 91 % 1014,7 hPa 0,0 mm 0,0 km/h (0 Bft) S-SO 168 0 min 0,000 mm 0,0 UV-I 0 W/m 16,1 C 0,0 km/h (0 Bft)
21.07.2016 22:32 17,5 C 17,6 C 91 % 1014,8 hPa 0,0 mm 0,0 km/h (0 Bft) S-SO 168 0 min 0,000 mm 0,0 UV-I 0 W/m 16,0 C 0,0 km/h (0 Bft)
21.07.2016 22:33 17,6 C 17,6 C 91 % 1014,8 hPa 0,0 mm 0,0 km/h (0 Bft) S-SO 168 0 min 0,000 mm 0,0 UV-I 0 W/m 16,1 C 0,0 km/h (0 Bft)
21.07.2016 22:34 17,6 C 17,6 C 92 % 1014,8 hPa 0,0 mm 0,0 km/h (0 Bft) S-SO 168 0 min 0,000 mm 0,0 UV-I 0 W/m 16,3 C 0,0 km/h (0 Bft)
21.07.2016 22:35 17,6 C 17,6 C 91 % 1014,8 hPa 0,0 mm 0,0 km/h (0 Bft) S-SO 168 0 min 0,000 mm 0,0 UV-I 0 W/m 16,1 C 0,0 km/h (0 Bft)
21.07.2016 22:36 17,6 C 17,6 C 91 % 1014,8 hPa 0,0 mm 0,0 km/h (0 Bft) S-SO 168 0 min 0,000 mm 0,0 UV-I 0 W/m 16,1 C 0,0 km/h (0 Bft)
21.07.2016 22:37 17,7 C 17,7 C 91 % 1014,8 hPa 0,0 mm 0,0 km/h (0 Bft) S-SO 168 0 min 0,000 mm 0,0 UV-I 0 W/m 16,2 C 0,0 km/h (0 Bft)
21.07.2016 22:38 17,7 C 17,7 C 91 % 1014,8 hPa 0,0 mm 0,0 km/h (0 Bft) S-SO 168 0 min 0,000 mm 0,0 UV-I 0 W/m 16,2 C 0,0 km/h (0 Bft)
21.07.2016 22:39 17,7 C 17,7 C 92 % 1014,8 hPa 0,0 mm 0,0 km/h (0 Bft) S-SO 168 0 min 0,000 mm 0,0 UV-I 0 W/m 16,4 C 0,0 km/h (0 Bft)
21.07.2016 22:40 17,7 C 17,7 C 91 % 1014,8 hPa 0,0 mm 0,0 km/h (0 Bft) S-SO 168 0 min 0,000 mm 0,0 UV-I 0 W/m 16,2 C 0,0 km/h (0 Bft)
21.07.2016 22:41 17,7 C 17,7 C 91 % 1014,7 hPa 0,0 mm 0,0 km/h (0 Bft) S-SO 168 0 min 0,000 mm 0,0 UV-I 0 W/m 16,2 C 0,0 km/h (0 Bft)
21.07.2016 22:42 17,7 C 17,7 C 91 % 1014,7 hPa 0,0 mm 0,0 km/h (0 Bft) S-SO 168 0 min 0,000 mm 0,0 UV-I 0 W/m 16,2 C 0,0 km/h (0 Bft)
21.07.2016 22:43 17,7 C 17,7 C 91 % 1014,8 hPa 0,0 mm 0,0 km/h (0 Bft) S-SO 168 0 min 0,000 mm 0,0 UV-I 0 W/m 16,2 C 0,0 km/h (0 Bft)
21.07.2016 22:44 17,7 C 17,7 C 91 % 1014,7 hPa 0,0 mm 0,0 km/h (0 Bft) S-SO 168 0 min 0,000 mm 0,0 UV-I 0 W/m 16,2 C 0,0 km/h (0 Bft)
21.07.2016 22:45 17,6 C 17,7 C 91 % 1014,7 hPa 0,0 mm 0,0 km/h (0 Bft) S-SO 168 0 min 0,000 mm 0,0 UV-I 0 W/m 16,1 C 0,0 km/h (0 Bft)
21.07.2016 22:46 17,6 C 17,6 C 91 % 1014,7 hPa 0,0 mm 0,0 km/h (0 Bft) S-SO 168 0 min 0,000 mm 0,0 UV-I 0 W/m 16,1 C 0,0 km/h (0 Bft)
21.07.2016 22:47 17,5 C 17,6 C 91 % 1014,8 hPa 0,0 mm 0,0 km/h (0 Bft) S-SO 168 0 min 0,000 mm 0,0 UV-I 0 W/m 16,0 C 0,0 km/h (0 Bft)
21.07.2016 22:48 17,4 C 17,5 C 91 % 1014,7 hPa 0,0 mm 0,0 km/h (0 Bft) S-SO 168 0 min 0,000 mm 0,0 UV-I 0 W/m 15,9 C 0,0 km/h (0 Bft)
21.07.2016 22:49 17,4 C 17,4 C 92 % 1014,8 hPa 0,0 mm 0,0 km/h (0 Bft) S-SO 168 0 min 0,000 mm 0,0 UV-I 0 W/m 16,1 C 0,0 km/h (0 Bft)
21.07.2016 22:50 17,4 C 17,4 C 92 % 1014,7 hPa 0,0 mm 0,0 km/h (0 Bft) S-SO 168 0 min 0,000 mm 0,0 UV-I 0 W/m 16,1 C 0,0 km/h (0 Bft)
21.07.2016 22:51 17,4 C 17,4 C 92 % 1014,8 hPa 0,0 mm 0,0 km/h (0 Bft) S-SO 168 0 min 0,000 mm 0,0 UV-I 0 W/m 16,1 C 0,0 km/h (0 Bft)
21.07.2016 22:52 17,4 C 17,4 C 92 % 1014,7 hPa 0,0 mm 0,0 km/h (0 Bft) S-SO 168 0 min 0,000 mm 0,0 UV-I 0 W/m 16,1 C 0,0 km/h (0 Bft)
21.07.2016 22:53 17,4 C 17,4 C 92 % 1014,7 hPa 0,0 mm 0,0 km/h (0 Bft) S-SO 168 0 min 0,000 mm 0,0 UV-I 0 W/m 16,1 C 0,0 km/h (0 Bft)
21.07.2016 22:54 17,4 C 17,4 C 92 % 1014,8 hPa 0,0 mm 0,0 km/h (0 Bft) S-SO 168 0 min 0,000 mm 0,0 UV-I 0 W/m 16,1 C 0,0 km/h (0 Bft)
21.07.2016 22:55 17,4 C 17,4 C 91 % 1014,8 hPa 0,0 mm 0,0 km/h (0 Bft) S-SO 168 0 min 0,000 mm 0,0 UV-I 0 W/m 15,9 C 0,0 km/h (0 Bft)
21.07.2016 22:56 17,3 C 17,4 C 92 % 1014,8 hPa 0,0 mm 0,0 km/h (0 Bft) S-SO 168 0 min 0,000 mm 0,0 UV-I 0 W/m 16,0 C 0,0 km/h (0 Bft)
21.07.2016 22:57 17,3 C 17,3 C 92 % 1014,8 hPa 0,0 mm 0,0 km/h (0 Bft) S-SO 168 0 min 0,000 mm 0,0 UV-I 0 W/m 16,0 C 0,0 km/h (0 Bft)
21.07.2016 22:58 17,3 C 17,3 C 92 % 1014,8 hPa 0,0 mm 0,0 km/h (0 Bft) S-SO 168 0 min 0,000 mm 0,0 UV-I 0 W/m 16,0 C 0,0 km/h (0 Bft)
21.07.2016 22:59 17,2 C 17,3 C 92 % 1014,8 hPa 0,0 mm 0,0 km/h (0 Bft) S-SO 168 0 min 0,000 mm 0,0 UV-I 0 W/m 15,9 C 0,0 km/h (0 Bft)
21.07.2016 23:00 17,2 C 17,2 C 92 % 1014,8 hPa 0,0 mm 0,0 km/h (0 Bft) S-SO 168 0 min 0,000 mm 0,0 UV-I 0 W/m 15,9 C 0,0 km/h (0 Bft)
21.07.2016 23:01 17,2 C 17,2 C 92 % 1014,8 hPa 0,0 mm 0,0 km/h (0 Bft) S-SO 168 0 min 0,000 mm 0,0 UV-I 0 W/m 15,9 C 0,0 km/h (0 Bft)
21.07.2016 23:02 17,2 C 17,2 C 92 % 1014,7 hPa 0,0 mm 0,0 km/h (0 Bft) S-SO 168 0 min 0,000 mm 0,0 UV-I 0 W/m 15,9 C 0,0 km/h (0 Bft)
21.07.2016 23:03 17,2 C 17,2 C 92 % 1014,8 hPa 0,0 mm 1,0 km/h (0 Bft) S-SO 168 0 min 0,000 mm 0,0 UV-I 0 W/m 15,9 C 1,6 km/h (1 Bft)
21.07.2016 23:04 17,2 C 17,2 C 92 % 1014,8 hPa 0,0 mm 1,1 km/h (1 Bft) S-SO 168 0 min 0,000 mm 0,0 UV-I 0 W/m 15,9 C 1,6 km/h (1 Bft)
21.07.2016 23:05 17,2 C 17,2 C 92 % 1014,8 hPa 0,0 mm 0,0 km/h (0 Bft) S-SO 168 0 min 0,000 mm 0,0 UV-I 0 W/m 15,9 C 0,0 km/h (0 Bft)
21.07.2016 23:06 17,2 C 17,2 C 92 % 1014,8 hPa 0,0 mm 0,0 km/h (0 Bft) S-SO 168 0 min 0,000 mm 0,0 UV-I 0 W/m 15,9 C 0,0 km/h (0 Bft)
21.07.2016 23:07 17,1 C 17,2 C 92 % 1014,8 hPa 0,0 mm 0,0 km/h (0 Bft) S-SO 168 0 min 0,000 mm 0,0 UV-I 0 W/m 15,8 C 0,0 km/h (0 Bft)
21.07.2016 23:08 17,1 C 17,1 C 92 % 1014,8 hPa 0,0 mm 0,0 km/h (0 Bft) S-SO 168 0 min 0,000 mm 0,0 UV-I 0 W/m 15,8 C 0,0 km/h (0 Bft)
21.07.2016 23:09 17,0 C 17,1 C 92 % 1014,8 hPa 0,0 mm 0,0 km/h (0 Bft) S-SO 168 0 min 0,000 mm 0,0 UV-I 0 W/m 15,7 C 0,0 km/h (0 Bft)
21.07.2016 23:10 17,1 C 17,1 C 93 % 1014,8 hPa 0,0 mm 0,0 km/h (0 Bft) S-SO 168 0 min 0,000 mm 0,0 UV-I 0 W/m 16,0 C 0,0 km/h (0 Bft)
21.07.2016 23:11 17,1 C 17,1 C 93 % 1014,8 hPa 0,0 mm 0,0 km/h (0 Bft) S-SO 168 0 min 0,000 mm 0,0 UV-I 0 W/m 16,0 C 0,0 km/h (0 Bft)
21.07.2016 23:12 17,1 C 17,1 C 93 % 1014,8 hPa 0,0 mm 0,0 km/h (0 Bft) S-SO 168 0 min 0,000 mm 0,0 UV-I 0 W/m 16,0 C 0,0 km/h (0 Bft)
21.07.2016 23:13 17,1 C 17,1 C 93 % 1014,7 hPa 0,0 mm 0,0 km/h (0 Bft) S-SO 168 0 min 0,000 mm 0,0 UV-I 0 W/m 16,0 C 0,0 km/h (0 Bft)
21.07.2016 23:14 17,1 C 17,1 C 92 % 1014,7 hPa 0,0 mm 0,0 km/h (0 Bft) S-SO 168 0 min 0,000 mm 0,0 UV-I 0 W/m 15,8 C 0,0 km/h (0 Bft)
21.07.2016 23:15 17,1 C 17,1 C 93 % 1014,7 hPa 0,0 mm 0,0 km/h (0 Bft) S-SO 168 0 min 0,000 mm 0,0 UV-I 0 W/m 16,0 C 0,0 km/h (0 Bft)
21.07.2016 23:16 17,0 C 17,1 C 92 % 1014,7 hPa 0,0 mm 0,0 km/h (0 Bft) S-SO 168 0 min 0,000 mm 0,0 UV-I 0 W/m 15,7 C 0,0 km/h (0 Bft)
21.07.2016 23:17 17,1 C 17,1 C 93 % 1014,7 hPa 0,0 mm 0,0 km/h (0 Bft) S-SO 168 0 min 0,000 mm 0,0 UV-I 0 W/m 16,0 C 0,0 km/h (0 Bft)
21.07.2016 23:18 17,1 C 17,1 C 93 % 1014,7 hPa 0,0 mm 0,0 km/h (0 Bft) S-SO 168 0 min 0,000 mm 0,0 UV-I 0 W/m 16,0 C 0,0 km/h (0 Bft)
21.07.2016 23:19 17,2 C 17,2 C 93 % 1014,7 hPa 0,0 mm 0,0 km/h (0 Bft) S-SO 168 0 min 0,000 mm 0,0 UV-I 0 W/m 16,1 C 0,0 km/h (0 Bft)
21.07.2016 23:20 17,2 C 17,2 C 93 % 1014,7 hPa 0,0 mm 0,0 km/h (0 Bft) S-SO 168 0 min 0,000 mm 0,0 UV-I 0 W/m 16,1 C 0,0 km/h (0 Bft)
21.07.2016 23:21 17,1 C 17,2 C 92 % 1014,8 hPa 0,0 mm 0,0 km/h (0 Bft) S-SO 168 0 min 0,000 mm 0,0 UV-I 0 W/m 15,8 C 0,0 km/h (0 Bft)
21.07.2016 23:22 17,2 C 17,2 C 92 % 1014,8 hPa 0,0 mm 0,0 km/h (0 Bft) S-SO 168 0 min 0,000 mm 0,0 UV-I 0 W/m 15,9 C 0,0 km/h (0 Bft)
21.07.2016 23:23 17,2 C 17,2 C 92 % 1014,8 hPa 0,0 mm 0,0 km/h (0 Bft) S-SO 168 0 min 0,000 mm 0,0 UV-I 0 W/m 15,9 C 0,0 km/h (0 Bft)
21.07.2016 23:24 17,1 C 17,2 C 92 % 1014,8 hPa 0,0 mm 0,0 km/h (0 Bft) S-SO 168 0 min 0,000 mm 0,0 UV-I 0 W/m 15,8 C 0,0 km/h (0 Bft)
21.07.2016 23:25 17,1 C 17,1 C 92 % 1014,8 hPa 0,0 mm 0,0 km/h (0 Bft) S-SO 168 0 min 0,000 mm 0,0 UV-I 0 W/m 15,8 C 0,0 km/h (0 Bft)
21.07.2016 23:26 17,1 C 17,1 C 93 % 1014,8 hPa 0,0 mm 0,0 km/h (0 Bft) S-SO 168 0 min 0,000 mm 0,0 UV-I 0 W/m 16,0 C 0,0 km/h (0 Bft)
21.07.2016 23:27 17,0 C 17,1 C 92 % 1014,8 hPa 0,0 mm 0,0 km/h (0 Bft) S-SO 168 0 min 0,000 mm 0,0 UV-I 0 W/m 15,7 C 0,0 km/h (0 Bft)
21.07.2016 23:28 16,9 C 17,0 C 93 % 1014,8 hPa 0,0 mm 0,0 km/h (0 Bft) S-SO 168 0 min 0,000 mm 0,0 UV-I 0 W/m 15,8 C 0,0 km/h (0 Bft)
21.07.2016 23:29 16,9 C 16,9 C 93 % 1014,8 hPa 0,0 mm 0,0 km/h (0 Bft) S-SO 168 0 min 0,000 mm 0,0 UV-I 0 W/m 15,8 C 0,0 km/h (0 Bft)
21.07.2016 23:30 16,9 C 16,9 C 93 % 1014,8 hPa 0,0 mm 0,0 km/h (0 Bft) S-SO 168 0 min 0,000 mm 0,0 UV-I 0 W/m 15,8 C 0,0 km/h (0 Bft)
21.07.2016 23:31 16,9 C 16,9 C 93 % 1014,8 hPa 0,0 mm 0,0 km/h (0 Bft) S-SO 168 0 min 0,000 mm 0,0 UV-I 0 W/m 15,8 C 0,0 km/h (0 Bft)
21.07.2016 23:32 16,9 C 16,9 C 93 % 1014,8 hPa 0,0 mm 0,0 km/h (0 Bft) S-SO 168 0 min 0,000 mm 0,0 UV-I 0 W/m 15,8 C 0,0 km/h (0 Bft)
21.07.2016 23:33 16,9 C 16,9 C 93 % 1014,8 hPa 0,0 mm 0,0 km/h (0 Bft) S-SO 168 0 min 0,000 mm 0,0 UV-I 0 W/m 15,8 C 0,0 km/h (0 Bft)
21.07.2016 23:34 16,8 C 16,9 C 93 % 1014,8 hPa 0,0 mm 0,0 km/h (0 Bft) S-SO 168 0 min 0,000 mm 0,0 UV-I 0 W/m 15,7 C 0,0 km/h (0 Bft)
21.07.2016 23:35 16,8 C 16,8 C 93 % 1014,8 hPa 0,0 mm 0,0 km/h (0 Bft) S-SO 168 0 min 0,000 mm 0,0 UV-I 0 W/m 15,7 C 0,0 km/h (0 Bft)
21.07.2016 23:36 16,8 C 16,8 C 94 % 1014,8 hPa 0,0 mm 0,0 km/h (0 Bft) S-SO 168 0 min 0,000 mm 0,0 UV-I 0 W/m 15,8 C 0,0 km/h (0 Bft)
21.07.2016 23:37 16,8 C 16,8 C 94 % 1014,7 hPa 0,0 mm 0,0 km/h (0 Bft) S-SO 168 0 min 0,000 mm 0,0 UV-I 0 W/m 15,8 C 0,0 km/h (0 Bft)
21.07.2016 23:38 16,8 C 16,8 C 94 % 1014,8 hPa 0,0 mm 0,0 km/h (0 Bft) S-SO 168 0 min 0,000 mm 0,0 UV-I 0 W/m 15,8 C 0,0 km/h (0 Bft)
21.07.2016 23:39 16,8 C 16,8 C 94 % 1014,8 hPa 0,0 mm 0,0 km/h (0 Bft) S-SO 168 0 min 0,000 mm 0,0 UV-I 0 W/m 15,8 C 0,0 km/h (0 Bft)
21.07.2016 23:40 16,8 C 16,8 C 94 % 1014,8 hPa 0,0 mm 0,0 km/h (0 Bft) S-SO 168 0 min 0,000 mm 0,0 UV-I 0 W/m 15,8 C 0,0 km/h (0 Bft)
21.07.2016 23:41 16,8 C 16,9 C 94 % 1014,8 hPa 0,0 mm 0,0 km/h (0 Bft) S-SO 168 0 min 0,000 mm 0,0 UV-I 0 W/m 15,8 C 0,0 km/h (0 Bft)
21.07.2016 23:42 16,8 C 16,9 C 94 % 1014,8 hPa 0,0 mm 0,0 km/h (0 Bft) S-SO 168 0 min 0,000 mm 0,0 UV-I 0 W/m 15,8 C 0,0 km/h (0 Bft)
21.07.2016 23:43 16,9 C 16,9 C 93 % 1014,8 hPa 0,0 mm 0,0 km/h (0 Bft) S-SO 168 0 min 0,000 mm 0,0 UV-I 0 W/m 15,8 C 0,0 km/h (0 Bft)
21.07.2016 23:44 16,9 C 16,9 C 93 % 1014,9 hPa 0,0 mm 0,0 km/h (0 Bft) S-SO 168 0 min 0,000 mm 0,0 UV-I 0 W/m 15,8 C 0,0 km/h (0 Bft)
21.07.2016 23:45 17,0 C 17,0 C 93 % 1014,9 hPa 0,0 mm 0,0 km/h (0 Bft) S-SO 168 0 min 0,000 mm 0,0 UV-I 0 W/m 15,9 C 0,0 km/h (0 Bft)
21.07.2016 23:46 16,9 C 17,0 C 93 % 1014,9 hPa 0,0 mm 0,0 km/h (0 Bft) S-SO 168 0 min 0,000 mm 0,0 UV-I 0 W/m 15,8 C 0,0 km/h (0 Bft)
21.07.2016 23:47 16,9 C 17,0 C 93 % 1014,9 hPa 0,0 mm 0,0 km/h (0 Bft) S-SO 168 0 min 0,000 mm 0,0 UV-I 0 W/m 15,8 C 0,0 km/h (0 Bft)
21.07.2016 23:48 16,9 C 16,9 C 93 % 1014,9 hPa 0,0 mm 0,0 km/h (0 Bft) S-SO 168 0 min 0,000 mm 0,0 UV-I 0 W/m 15,8 C 0,0 km/h (0 Bft)
21.07.2016 23:49 16,9 C 16,9 C 93 % 1014,9 hPa 0,0 mm 0,0 km/h (0 Bft) S-SO 168 0 min 0,000 mm 0,0 UV-I 0 W/m 15,8 C 0,0 km/h (0 Bft)
21.07.2016 23:50 16,9 C 16,9 C 93 % 1014,9 hPa 0,0 mm 0,0 km/h (0 Bft) S-SO 168 0 min 0,000 mm 0,0 UV-I 0 W/m 15,8 C 0,0 km/h (0 Bft)
21.07.2016 23:51 16,9 C 16,9 C 93 % 1014,9 hPa 0,0 mm 0,0 km/h (0 Bft) S-SO 168 0 min 0,000 mm 0,0 UV-I 0 W/m 15,8 C 0,0 km/h (0 Bft)
21.07.2016 23:52 16,9 C 16,9 C 93 % 1014,9 hPa 0,0 mm 0,0 km/h (0 Bft) S-SO 168 0 min 0,000 mm 0,0 UV-I 0 W/m 15,8 C 0,0 km/h (0 Bft)
21.07.2016 23:53 17,0 C 17,0 C 93 % 1014,8 hPa 0,0 mm 0,0 km/h (0 Bft) S-SO 168 0 min 0,000 mm 0,0 UV-I 0 W/m 15,9 C 0,0 km/h (0 Bft)
21.07.2016 23:54 17,1 C 17,1 C 93 % 1014,8 hPa 0,0 mm 0,0 km/h (0 Bft) S-SO 168 0 min 0,000 mm 0,0 UV-I 0 W/m 16,0 C 0,0 km/h (0 Bft)
21.07.2016 23:55 17,1 C 17,1 C 93 % 1014,8 hPa 0,0 mm 0,0 km/h (0 Bft) S-SO 168 0 min 0,000 mm 0,0 UV-I 0 W/m 16,0 C 0,0 km/h (0 Bft)
21.07.2016 23:56 17,1 C 17,1 C 93 % 1014,8 hPa 0,0 mm 0,0 km/h (0 Bft) S-SO 168 0 min 0,000 mm 0,0 UV-I 0 W/m 16,0 C 0,0 km/h (0 Bft)
21.07.2016 23:57 17,1 C 17,1 C 93 % 1014,8 hPa 0,0 mm 0,0 km/h (0 Bft) S-SO 168 0 min 0,000 mm 0,0 UV-I 0 W/m 16,0 C 0,0 km/h (0 Bft)
21.07.2016 23:58 17,1 C 17,1 C 93 % 1014,8 hPa 0,0 mm 0,0 km/h (0 Bft) S-SO 168 0 min 0,000 mm 0,0 UV-I 0 W/m 16,0 C 0,0 km/h (0 Bft)
21.07.2016 23:59 17,2 C 17,2 C 94 % 1014,8 hPa 0,0 mm 0,0 km/h (0 Bft) S-SO 168 0 min 0,000 mm 0,0 UV-I 0 W/m 16,2 C 0,0 km/h (0 Bft)
_ Min-Zeit 04:22 04:24 16:05 05:44 - 23:59 - - - - - - 04:35 23:59
Minimum _ 15,1 C 15,2 C 56 % 1011,9 hPa - 0,0 km/h (0 Bft) - - - - - - 11,1 C 0,0 km/h (0 Bft)
_ Max-Zeit 16:12 16:13 09:45 08:13 09:29 07:12 - - 20:52 14:00 13:13 14:24 13:51 07:17
Maximum _ 25,6 C 25,6 C 95 % 1016,0 hPa 0,2 mm 26,9 km/h
W-SW (4 Bft)
- - 1 min 0,533 mm 8,3 UV-I 1005 W/m 18,7 C 46,7 km/h
W (6 Bft)
Durchschnitt _ 19,8 C 19,9 C 76 % 1013,8 hPa #2,4 mm 4,9 km/h (1 Bft) W - #4:05 h #3,302 mm 3,5 UV-I 183 W/m 15,3 C 8,0 km/h (2 Bft)